<?xml version="1.0" encoding="UTF-8" standalone="no" ?>
<gpx xmlns="http://www.topografix.com/GPX/1/1" xmlns:xsi="http://www.w3.org/2001/XMLSchema-instance" xsi:schemaLocation="http://www.topografix.com/GPX/1/1 http://www.topografix.com/GPX/1/1/gpx.xsd" version="1.1" creator="VisuGPX - https://www.visugpx.com">
  <metadata>
    <name>Champagnat Cyclisme sur route</name>
  </metadata>
  <trk>
    <name><![CDATA[Champagnat Cyclisme sur route_1]]></name>
    <trkseg>
      <trkpt lat="46.48269" lon="5.36837">
        <ele>268.2</ele>
        <time>2022-08-16T12:14:31Z</time>
      </trkpt>
      <trkpt lat="46.48261" lon="5.36826">
        <ele>266.8</ele>
        <time>2022-08-16T12:14:32Z</time>
      </trkpt>
      <trkpt lat="46.48252" lon="5.36816">
        <ele>266.2</ele>
        <time>2022-08-16T12:14:33Z</time>
      </trkpt>
      <trkpt lat="46.48243" lon="5.36807">
        <ele>265.2</ele>
        <time>2022-08-16T12:14:34Z</time>
      </trkpt>
      <trkpt lat="46.48233" lon="5.36799">
        <ele>264.4</ele>
        <time>2022-08-16T12:14:35Z</time>
      </trkpt>
      <trkpt lat="46.48223" lon="5.36791">
        <ele>263.4</ele>
        <time>2022-08-16T12:14:36Z</time>
      </trkpt>
      <trkpt lat="46.48193" lon="5.36767">
        <ele>261.2</ele>
        <time>2022-08-16T12:14:39Z</time>
      </trkpt>
      <trkpt lat="46.48174" lon="5.36751">
        <ele>260</ele>
        <time>2022-08-16T12:14:41Z</time>
      </trkpt>
      <trkpt lat="46.48164" lon="5.36744">
        <ele>259.6</ele>
        <time>2022-08-16T12:14:42Z</time>
      </trkpt>
      <trkpt lat="46.48155" lon="5.36736">
        <ele>258.8</ele>
        <time>2022-08-16T12:14:43Z</time>
      </trkpt>
      <trkpt lat="46.48136" lon="5.36723">
        <ele>257.8</ele>
        <time>2022-08-16T12:14:45Z</time>
      </trkpt>
      <trkpt lat="46.48119" lon="5.36711">
        <ele>256.8</ele>
        <time>2022-08-16T12:14:47Z</time>
      </trkpt>
      <trkpt lat="46.48112" lon="5.36704">
        <ele>256</ele>
        <time>2022-08-16T12:14:48Z</time>
      </trkpt>
      <trkpt lat="46.48106" lon="5.36695">
        <ele>255.8</ele>
        <time>2022-08-16T12:14:49Z</time>
      </trkpt>
      <trkpt lat="46.48104" lon="5.36685">
        <ele>255</ele>
        <time>2022-08-16T12:14:50Z</time>
      </trkpt>
      <trkpt lat="46.48103" lon="5.36675">
        <ele>254.6</ele>
        <time>2022-08-16T12:14:51Z</time>
      </trkpt>
      <trkpt lat="46.48104" lon="5.36665">
        <ele>254.2</ele>
        <time>2022-08-16T12:14:52Z</time>
      </trkpt>
      <trkpt lat="46.48115" lon="5.36649">
        <ele>253.6</ele>
        <time>2022-08-16T12:14:54Z</time>
      </trkpt>
      <trkpt lat="46.48181" lon="5.36609">
        <ele>250.8</ele>
        <time>2022-08-16T12:15:01Z</time>
      </trkpt>
      <trkpt lat="46.48208" lon="5.36599">
        <ele>250.4</ele>
        <time>2022-08-16T12:15:04Z</time>
      </trkpt>
      <trkpt lat="46.48221" lon="5.36586">
        <ele>250</ele>
        <time>2022-08-16T12:15:06Z</time>
      </trkpt>
      <trkpt lat="46.48224" lon="5.36575">
        <ele>250</ele>
        <time>2022-08-16T12:15:07Z</time>
      </trkpt>
      <trkpt lat="46.48228" lon="5.36564">
        <ele>249.8</ele>
        <time>2022-08-16T12:15:08Z</time>
      </trkpt>
      <trkpt lat="46.48233" lon="5.36555">
        <ele>249.6</ele>
        <time>2022-08-16T12:15:09Z</time>
      </trkpt>
      <trkpt lat="46.4824" lon="5.36547">
        <ele>249.4</ele>
        <time>2022-08-16T12:15:10Z</time>
      </trkpt>
      <trkpt lat="46.48266" lon="5.36517">
        <ele>248.6</ele>
        <time>2022-08-16T12:15:14Z</time>
      </trkpt>
      <trkpt lat="46.48287" lon="5.36495">
        <ele>248.2</ele>
        <time>2022-08-16T12:15:17Z</time>
      </trkpt>
      <trkpt lat="46.48314" lon="5.36465">
        <ele>247.4</ele>
        <time>2022-08-16T12:15:21Z</time>
      </trkpt>
      <trkpt lat="46.48349" lon="5.36426">
        <ele>246.4</ele>
        <time>2022-08-16T12:15:26Z</time>
      </trkpt>
      <trkpt lat="46.4837" lon="5.36403">
        <ele>245.2</ele>
        <time>2022-08-16T12:15:29Z</time>
      </trkpt>
      <trkpt lat="46.48384" lon="5.36388">
        <ele>244.8</ele>
        <time>2022-08-16T12:15:31Z</time>
      </trkpt>
      <trkpt lat="46.48398" lon="5.36374">
        <ele>244</ele>
        <time>2022-08-16T12:15:33Z</time>
      </trkpt>
      <trkpt lat="46.48413" lon="5.36362">
        <ele>243.6</ele>
        <time>2022-08-16T12:15:35Z</time>
      </trkpt>
      <trkpt lat="46.4842" lon="5.36358">
        <ele>243.4</ele>
        <time>2022-08-16T12:15:36Z</time>
      </trkpt>
      <trkpt lat="46.48453" lon="5.36348">
        <ele>242.6</ele>
        <time>2022-08-16T12:15:40Z</time>
      </trkpt>
      <trkpt lat="46.48461" lon="5.36347">
        <ele>242.6</ele>
        <time>2022-08-16T12:15:41Z</time>
      </trkpt>
      <trkpt lat="46.48508" lon="5.3634">
        <ele>241.6</ele>
        <time>2022-08-16T12:15:47Z</time>
      </trkpt>
      <trkpt lat="46.48532" lon="5.36335">
        <ele>241.6</ele>
        <time>2022-08-16T12:15:50Z</time>
      </trkpt>
      <trkpt lat="46.48589" lon="5.36325">
        <ele>241</ele>
        <time>2022-08-16T12:15:57Z</time>
      </trkpt>
      <trkpt lat="46.48598" lon="5.36324">
        <ele>240.6</ele>
        <time>2022-08-16T12:15:58Z</time>
      </trkpt>
      <trkpt lat="46.48616" lon="5.36319">
        <ele>240.2</ele>
        <time>2022-08-16T12:16:00Z</time>
      </trkpt>
      <trkpt lat="46.48624" lon="5.36312">
        <ele>240</ele>
        <time>2022-08-16T12:16:01Z</time>
      </trkpt>
      <trkpt lat="46.48631" lon="5.36301">
        <ele>240</ele>
        <time>2022-08-16T12:16:02Z</time>
      </trkpt>
      <trkpt lat="46.48635" lon="5.36287">
        <ele>239.6</ele>
        <time>2022-08-16T12:16:03Z</time>
      </trkpt>
      <trkpt lat="46.48638" lon="5.36273">
        <ele>239.2</ele>
        <time>2022-08-16T12:16:04Z</time>
      </trkpt>
      <trkpt lat="46.4864" lon="5.36242">
        <ele>238.2</ele>
        <time>2022-08-16T12:16:06Z</time>
      </trkpt>
      <trkpt lat="46.48641" lon="5.3621">
        <ele>237.2</ele>
        <time>2022-08-16T12:16:08Z</time>
      </trkpt>
      <trkpt lat="46.48645" lon="5.36162">
        <ele>236.4</ele>
        <time>2022-08-16T12:16:11Z</time>
      </trkpt>
      <trkpt lat="46.48648" lon="5.36147">
        <ele>236</ele>
        <time>2022-08-16T12:16:12Z</time>
      </trkpt>
      <trkpt lat="46.48661" lon="5.36086">
        <ele>235</ele>
        <time>2022-08-16T12:16:16Z</time>
      </trkpt>
      <trkpt lat="46.48674" lon="5.3602">
        <ele>234.6</ele>
        <time>2022-08-16T12:16:21Z</time>
      </trkpt>
      <trkpt lat="46.48681" lon="5.35974">
        <ele>235.2</ele>
        <time>2022-08-16T12:16:25Z</time>
      </trkpt>
      <trkpt lat="46.48683" lon="5.35963">
        <ele>235.6</ele>
        <time>2022-08-16T12:16:26Z</time>
      </trkpt>
      <trkpt lat="46.48688" lon="5.35928">
        <ele>236.2</ele>
        <time>2022-08-16T12:16:29Z</time>
      </trkpt>
      <trkpt lat="46.4869" lon="5.35916">
        <ele>236.6</ele>
        <time>2022-08-16T12:16:30Z</time>
      </trkpt>
      <trkpt lat="46.48694" lon="5.35904">
        <ele>236.8</ele>
        <time>2022-08-16T12:16:31Z</time>
      </trkpt>
      <trkpt lat="46.4872" lon="5.35835">
        <ele>236.8</ele>
        <time>2022-08-16T12:16:37Z</time>
      </trkpt>
      <trkpt lat="46.48749" lon="5.35769">
        <ele>236</ele>
        <time>2022-08-16T12:16:43Z</time>
      </trkpt>
      <trkpt lat="46.48754" lon="5.35758">
        <ele>235.8</ele>
        <time>2022-08-16T12:16:44Z</time>
      </trkpt>
      <trkpt lat="46.48763" lon="5.35737">
        <ele>235.4</ele>
        <time>2022-08-16T12:16:46Z</time>
      </trkpt>
      <trkpt lat="46.48776" lon="5.35705">
        <ele>234.8</ele>
        <time>2022-08-16T12:16:49Z</time>
      </trkpt>
      <trkpt lat="46.48797" lon="5.35658">
        <ele>234.8</ele>
        <time>2022-08-16T12:16:54Z</time>
      </trkpt>
      <trkpt lat="46.4881" lon="5.35631">
        <ele>235</ele>
        <time>2022-08-16T12:16:57Z</time>
      </trkpt>
      <trkpt lat="46.48815" lon="5.35622">
        <ele>234.8</ele>
        <time>2022-08-16T12:16:58Z</time>
      </trkpt>
      <trkpt lat="46.48819" lon="5.35612">
        <ele>234.8</ele>
        <time>2022-08-16T12:16:59Z</time>
      </trkpt>
      <trkpt lat="46.48852" lon="5.35539">
        <ele>234.6</ele>
        <time>2022-08-16T12:17:07Z</time>
      </trkpt>
      <trkpt lat="46.48876" lon="5.35483">
        <ele>234.6</ele>
        <time>2022-08-16T12:17:13Z</time>
      </trkpt>
      <trkpt lat="46.4888" lon="5.35473">
        <ele>234.6</ele>
        <time>2022-08-16T12:17:14Z</time>
      </trkpt>
      <trkpt lat="46.48901" lon="5.35427">
        <ele>234.4</ele>
        <time>2022-08-16T12:17:19Z</time>
      </trkpt>
      <trkpt lat="46.4891" lon="5.35408">
        <ele>234.2</ele>
        <time>2022-08-16T12:17:21Z</time>
      </trkpt>
      <trkpt lat="46.48942" lon="5.35339">
        <ele>233.4</ele>
        <time>2022-08-16T12:17:28Z</time>
      </trkpt>
      <trkpt lat="46.48972" lon="5.35272">
        <ele>233</ele>
        <time>2022-08-16T12:17:35Z</time>
      </trkpt>
      <trkpt lat="46.48995" lon="5.3522">
        <ele>233.6</ele>
        <time>2022-08-16T12:17:41Z</time>
      </trkpt>
      <trkpt lat="46.49012" lon="5.35181">
        <ele>234</ele>
        <time>2022-08-16T12:17:46Z</time>
      </trkpt>
      <trkpt lat="46.49018" lon="5.35167">
        <ele>234.4</ele>
        <time>2022-08-16T12:17:48Z</time>
      </trkpt>
      <trkpt lat="46.49024" lon="5.35153">
        <ele>234.6</ele>
        <time>2022-08-16T12:17:50Z</time>
      </trkpt>
      <trkpt lat="46.49037" lon="5.35124">
        <ele>235.4</ele>
        <time>2022-08-16T12:17:54Z</time>
      </trkpt>
      <trkpt lat="46.49041" lon="5.35117">
        <ele>235.4</ele>
        <time>2022-08-16T12:17:55Z</time>
      </trkpt>
      <trkpt lat="46.49046" lon="5.3511">
        <ele>235.6</ele>
        <time>2022-08-16T12:17:56Z</time>
      </trkpt>
      <trkpt lat="46.49078" lon="5.35081">
        <ele>235.4</ele>
        <time>2022-08-16T12:18:02Z</time>
      </trkpt>
      <trkpt lat="46.49095" lon="5.35064">
        <ele>234.8</ele>
        <time>2022-08-16T12:18:05Z</time>
      </trkpt>
      <trkpt lat="46.49119" lon="5.35042">
        <ele>234.4</ele>
        <time>2022-08-16T12:18:09Z</time>
      </trkpt>
      <trkpt lat="46.49124" lon="5.35037">
        <ele>234.4</ele>
        <time>2022-08-16T12:18:10Z</time>
      </trkpt>
      <trkpt lat="46.49131" lon="5.35031">
        <ele>234.4</ele>
        <time>2022-08-16T12:18:11Z</time>
      </trkpt>
      <trkpt lat="46.49138" lon="5.35025">
        <ele>234.2</ele>
        <time>2022-08-16T12:18:12Z</time>
      </trkpt>
      <trkpt lat="46.49145" lon="5.3502">
        <ele>234.2</ele>
        <time>2022-08-16T12:18:13Z</time>
      </trkpt>
      <trkpt lat="46.49158" lon="5.3501">
        <ele>234</ele>
        <time>2022-08-16T12:18:15Z</time>
      </trkpt>
      <trkpt lat="46.49171" lon="5.34998">
        <ele>233.6</ele>
        <time>2022-08-16T12:18:17Z</time>
      </trkpt>
      <trkpt lat="46.49177" lon="5.34991">
        <ele>233.6</ele>
        <time>2022-08-16T12:18:18Z</time>
      </trkpt>
      <trkpt lat="46.49183" lon="5.34985">
        <ele>233.2</ele>
        <time>2022-08-16T12:18:19Z</time>
      </trkpt>
      <trkpt lat="46.49193" lon="5.34969">
        <ele>232.8</ele>
        <time>2022-08-16T12:18:21Z</time>
      </trkpt>
      <trkpt lat="46.49203" lon="5.34954">
        <ele>232.8</ele>
        <time>2022-08-16T12:18:23Z</time>
      </trkpt>
      <trkpt lat="46.4922" lon="5.34934">
        <ele>232.6</ele>
        <time>2022-08-16T12:18:26Z</time>
      </trkpt>
      <trkpt lat="46.49255" lon="5.34883">
        <ele>232.6</ele>
        <time>2022-08-16T12:18:33Z</time>
      </trkpt>
      <trkpt lat="46.4926" lon="5.34875">
        <ele>232.6</ele>
        <time>2022-08-16T12:18:34Z</time>
      </trkpt>
      <trkpt lat="46.49272" lon="5.34861">
        <ele>232.4</ele>
        <time>2022-08-16T12:18:36Z</time>
      </trkpt>
      <trkpt lat="46.49275" lon="5.34856">
        <ele>232.6</ele>
        <time>2022-08-16T12:18:37Z</time>
      </trkpt>
      <trkpt lat="46.49282" lon="5.3485">
        <ele>232.6</ele>
        <time>2022-08-16T12:18:38Z</time>
      </trkpt>
      <trkpt lat="46.49297" lon="5.34841">
        <ele>232.2</ele>
        <time>2022-08-16T12:18:40Z</time>
      </trkpt>
      <trkpt lat="46.49303" lon="5.34838">
        <ele>232</ele>
        <time>2022-08-16T12:18:41Z</time>
      </trkpt>
      <trkpt lat="46.49316" lon="5.34834">
        <ele>232</ele>
        <time>2022-08-16T12:18:43Z</time>
      </trkpt>
      <trkpt lat="46.49336" lon="5.34832">
        <ele>232</ele>
        <time>2022-08-16T12:18:46Z</time>
      </trkpt>
      <trkpt lat="46.4938" lon="5.34822">
        <ele>231.6</ele>
        <time>2022-08-16T12:18:53Z</time>
      </trkpt>
      <trkpt lat="46.49386" lon="5.34821">
        <ele>231.8</ele>
        <time>2022-08-16T12:18:54Z</time>
      </trkpt>
      <trkpt lat="46.4941" lon="5.34809">
        <ele>231.6</ele>
        <time>2022-08-16T12:18:58Z</time>
      </trkpt>
      <trkpt lat="46.49416" lon="5.34805">
        <ele>231.6</ele>
        <time>2022-08-16T12:18:59Z</time>
      </trkpt>
      <trkpt lat="46.49422" lon="5.34801">
        <ele>231.8</ele>
        <time>2022-08-16T12:19:00Z</time>
      </trkpt>
      <trkpt lat="46.49445" lon="5.34777">
        <ele>231.4</ele>
        <time>2022-08-16T12:19:04Z</time>
      </trkpt>
      <trkpt lat="46.49471" lon="5.34748">
        <ele>231</ele>
        <time>2022-08-16T12:19:08Z</time>
      </trkpt>
      <trkpt lat="46.49478" lon="5.3474">
        <ele>230.8</ele>
        <time>2022-08-16T12:19:09Z</time>
      </trkpt>
      <trkpt lat="46.49501" lon="5.34714">
        <ele>230</ele>
        <time>2022-08-16T12:19:12Z</time>
      </trkpt>
      <trkpt lat="46.49509" lon="5.34704">
        <ele>229.8</ele>
        <time>2022-08-16T12:19:13Z</time>
      </trkpt>
      <trkpt lat="46.49517" lon="5.34694">
        <ele>229.4</ele>
        <time>2022-08-16T12:19:14Z</time>
      </trkpt>
      <trkpt lat="46.49533" lon="5.34676">
        <ele>228.2</ele>
        <time>2022-08-16T12:19:16Z</time>
      </trkpt>
      <trkpt lat="46.4955" lon="5.34657">
        <ele>227.2</ele>
        <time>2022-08-16T12:19:18Z</time>
      </trkpt>
      <trkpt lat="46.49566" lon="5.34638">
        <ele>226.4</ele>
        <time>2022-08-16T12:19:20Z</time>
      </trkpt>
      <trkpt lat="46.49572" lon="5.3463">
        <ele>225.4</ele>
        <time>2022-08-16T12:19:21Z</time>
      </trkpt>
      <trkpt lat="46.49588" lon="5.34607">
        <ele>223.8</ele>
        <time>2022-08-16T12:19:23Z</time>
      </trkpt>
      <trkpt lat="46.49602" lon="5.34585">
        <ele>222.4</ele>
        <time>2022-08-16T12:19:25Z</time>
      </trkpt>
      <trkpt lat="46.49628" lon="5.34549">
        <ele>221.4</ele>
        <time>2022-08-16T12:19:29Z</time>
      </trkpt>
      <trkpt lat="46.49635" lon="5.34544">
        <ele>221.4</ele>
        <time>2022-08-16T12:19:30Z</time>
      </trkpt>
      <trkpt lat="46.49646" lon="5.34537">
        <ele>221.2</ele>
        <time>2022-08-16T12:19:32Z</time>
      </trkpt>
      <trkpt lat="46.49653" lon="5.34526">
        <ele>221.2</ele>
        <time>2022-08-16T12:19:34Z</time>
      </trkpt>
      <trkpt lat="46.49656" lon="5.34519">
        <ele>221</ele>
        <time>2022-08-16T12:19:35Z</time>
      </trkpt>
      <trkpt lat="46.49659" lon="5.34512">
        <ele>221</ele>
        <time>2022-08-16T12:19:36Z</time>
      </trkpt>
      <trkpt lat="46.49665" lon="5.34487">
        <ele>221</ele>
        <time>2022-08-16T12:19:39Z</time>
      </trkpt>
      <trkpt lat="46.49683" lon="5.34426">
        <ele>221</ele>
        <time>2022-08-16T12:19:47Z</time>
      </trkpt>
      <trkpt lat="46.49685" lon="5.34418">
        <ele>221</ele>
        <time>2022-08-16T12:19:48Z</time>
      </trkpt>
      <trkpt lat="46.49692" lon="5.34383">
        <ele>221.8</ele>
        <time>2022-08-16T12:19:53Z</time>
      </trkpt>
      <trkpt lat="46.49697" lon="5.34363">
        <ele>222.4</ele>
        <time>2022-08-16T12:19:56Z</time>
      </trkpt>
      <trkpt lat="46.49702" lon="5.34341">
        <ele>223.2</ele>
        <time>2022-08-16T12:19:59Z</time>
      </trkpt>
      <trkpt lat="46.49706" lon="5.34328">
        <ele>223.6</ele>
        <time>2022-08-16T12:20:01Z</time>
      </trkpt>
      <trkpt lat="46.49712" lon="5.34315">
        <ele>224</ele>
        <time>2022-08-16T12:20:03Z</time>
      </trkpt>
      <trkpt lat="46.49719" lon="5.34301">
        <ele>224.2</ele>
        <time>2022-08-16T12:20:05Z</time>
      </trkpt>
      <trkpt lat="46.49744" lon="5.34259">
        <ele>224.4</ele>
        <time>2022-08-16T12:20:11Z</time>
      </trkpt>
      <trkpt lat="46.49769" lon="5.34217">
        <ele>224.6</ele>
        <time>2022-08-16T12:20:17Z</time>
      </trkpt>
      <trkpt lat="46.49773" lon="5.3421">
        <ele>224.6</ele>
        <time>2022-08-16T12:20:18Z</time>
      </trkpt>
      <trkpt lat="46.49777" lon="5.34202">
        <ele>224.6</ele>
        <time>2022-08-16T12:20:19Z</time>
      </trkpt>
      <trkpt lat="46.49786" lon="5.34189">
        <ele>224.8</ele>
        <time>2022-08-16T12:20:21Z</time>
      </trkpt>
      <trkpt lat="46.49806" lon="5.34153">
        <ele>225</ele>
        <time>2022-08-16T12:20:26Z</time>
      </trkpt>
      <trkpt lat="46.49814" lon="5.3414">
        <ele>225</ele>
        <time>2022-08-16T12:20:28Z</time>
      </trkpt>
      <trkpt lat="46.49845" lon="5.34092">
        <ele>225.2</ele>
        <time>2022-08-16T12:20:35Z</time>
      </trkpt>
      <trkpt lat="46.49871" lon="5.34055">
        <ele>225.2</ele>
        <time>2022-08-16T12:20:40Z</time>
      </trkpt>
      <trkpt lat="46.49914" lon="5.34009">
        <ele>225</ele>
        <time>2022-08-16T12:20:48Z</time>
      </trkpt>
      <trkpt lat="46.49922" lon="5.33999">
        <ele>225.2</ele>
        <time>2022-08-16T12:20:50Z</time>
      </trkpt>
      <trkpt lat="46.49935" lon="5.33983">
        <ele>225.6</ele>
        <time>2022-08-16T12:20:53Z</time>
      </trkpt>
      <trkpt lat="46.49939" lon="5.33978">
        <ele>225.6</ele>
        <time>2022-08-16T12:20:54Z</time>
      </trkpt>
      <trkpt lat="46.49962" lon="5.33954">
        <ele>226.6</ele>
        <time>2022-08-16T12:20:59Z</time>
      </trkpt>
      <trkpt lat="46.49966" lon="5.33949">
        <ele>226.8</ele>
        <time>2022-08-16T12:21:00Z</time>
      </trkpt>
      <trkpt lat="46.49993" lon="5.33919">
        <ele>227.8</ele>
        <time>2022-08-16T12:21:06Z</time>
      </trkpt>
      <trkpt lat="46.49998" lon="5.33914">
        <ele>228</ele>
        <time>2022-08-16T12:21:07Z</time>
      </trkpt>
      <trkpt lat="46.5003" lon="5.33878">
        <ele>228.4</ele>
        <time>2022-08-16T12:21:13Z</time>
      </trkpt>
      <trkpt lat="46.50067" lon="5.33838">
        <ele>227.6</ele>
        <time>2022-08-16T12:21:19Z</time>
      </trkpt>
      <trkpt lat="46.50114" lon="5.33788">
        <ele>226.6</ele>
        <time>2022-08-16T12:21:26Z</time>
      </trkpt>
      <trkpt lat="46.50158" lon="5.33743">
        <ele>225.8</ele>
        <time>2022-08-16T12:21:33Z</time>
      </trkpt>
      <trkpt lat="46.5018" lon="5.33719">
        <ele>226</ele>
        <time>2022-08-16T12:21:37Z</time>
      </trkpt>
      <trkpt lat="46.50213" lon="5.33685">
        <ele>226.4</ele>
        <time>2022-08-16T12:21:43Z</time>
      </trkpt>
      <trkpt lat="46.50253" lon="5.33643">
        <ele>226.4</ele>
        <time>2022-08-16T12:21:50Z</time>
      </trkpt>
      <trkpt lat="46.50299" lon="5.33591">
        <ele>225.6</ele>
        <time>2022-08-16T12:21:58Z</time>
      </trkpt>
      <trkpt lat="46.50345" lon="5.33541">
        <ele>224.8</ele>
        <time>2022-08-16T12:22:06Z</time>
      </trkpt>
      <trkpt lat="46.50357" lon="5.33528">
        <ele>224.8</ele>
        <time>2022-08-16T12:22:08Z</time>
      </trkpt>
      <trkpt lat="46.50392" lon="5.3349">
        <ele>224.4</ele>
        <time>2022-08-16T12:22:14Z</time>
      </trkpt>
      <trkpt lat="46.50404" lon="5.33477">
        <ele>224.2</ele>
        <time>2022-08-16T12:22:16Z</time>
      </trkpt>
      <trkpt lat="46.50428" lon="5.33449">
        <ele>223.4</ele>
        <time>2022-08-16T12:22:20Z</time>
      </trkpt>
      <trkpt lat="46.50439" lon="5.33433">
        <ele>223.2</ele>
        <time>2022-08-16T12:22:22Z</time>
      </trkpt>
      <trkpt lat="46.50445" lon="5.33425">
        <ele>223.2</ele>
        <time>2022-08-16T12:22:23Z</time>
      </trkpt>
      <trkpt lat="46.50459" lon="5.33398">
        <ele>222.6</ele>
        <time>2022-08-16T12:22:26Z</time>
      </trkpt>
      <trkpt lat="46.50462" lon="5.33388">
        <ele>222.4</ele>
        <time>2022-08-16T12:22:27Z</time>
      </trkpt>
      <trkpt lat="46.50465" lon="5.33378">
        <ele>222.2</ele>
        <time>2022-08-16T12:22:28Z</time>
      </trkpt>
      <trkpt lat="46.50471" lon="5.33347">
        <ele>221.8</ele>
        <time>2022-08-16T12:22:31Z</time>
      </trkpt>
      <trkpt lat="46.50471" lon="5.33336">
        <ele>221.8</ele>
        <time>2022-08-16T12:22:32Z</time>
      </trkpt>
      <trkpt lat="46.5047" lon="5.33313">
        <ele>221.6</ele>
        <time>2022-08-16T12:22:34Z</time>
      </trkpt>
      <trkpt lat="46.50469" lon="5.33279">
        <ele>221.6</ele>
        <time>2022-08-16T12:22:37Z</time>
      </trkpt>
      <trkpt lat="46.50468" lon="5.33226">
        <ele>222</ele>
        <time>2022-08-16T12:22:42Z</time>
      </trkpt>
      <trkpt lat="46.50468" lon="5.33217">
        <ele>222</ele>
        <time>2022-08-16T12:22:43Z</time>
      </trkpt>
      <trkpt lat="46.50467" lon="5.33187">
        <ele>222.4</ele>
        <time>2022-08-16T12:22:46Z</time>
      </trkpt>
      <trkpt lat="46.50465" lon="5.33129">
        <ele>222.6</ele>
        <time>2022-08-16T12:22:51Z</time>
      </trkpt>
      <trkpt lat="46.50466" lon="5.33055">
        <ele>221.6</ele>
        <time>2022-08-16T12:22:57Z</time>
      </trkpt>
      <trkpt lat="46.50467" lon="5.33015">
        <ele>221</ele>
        <time>2022-08-16T12:23:00Z</time>
      </trkpt>
      <trkpt lat="46.50469" lon="5.32973">
        <ele>219.6</ele>
        <time>2022-08-16T12:23:03Z</time>
      </trkpt>
      <trkpt lat="46.5047" lon="5.32959">
        <ele>218.4</ele>
        <time>2022-08-16T12:23:04Z</time>
      </trkpt>
      <trkpt lat="46.5047" lon="5.32918">
        <ele>217.4</ele>
        <time>2022-08-16T12:23:07Z</time>
      </trkpt>
      <trkpt lat="46.50471" lon="5.32891">
        <ele>216</ele>
        <time>2022-08-16T12:23:09Z</time>
      </trkpt>
      <trkpt lat="46.50472" lon="5.32877">
        <ele>215.6</ele>
        <time>2022-08-16T12:23:10Z</time>
      </trkpt>
      <trkpt lat="46.50473" lon="5.32863">
        <ele>214.8</ele>
        <time>2022-08-16T12:23:11Z</time>
      </trkpt>
      <trkpt lat="46.50473" lon="5.32821">
        <ele>213.6</ele>
        <time>2022-08-16T12:23:14Z</time>
      </trkpt>
      <trkpt lat="46.50475" lon="5.32767">
        <ele>212.4</ele>
        <time>2022-08-16T12:23:18Z</time>
      </trkpt>
      <trkpt lat="46.50475" lon="5.32741">
        <ele>211.6</ele>
        <time>2022-08-16T12:23:20Z</time>
      </trkpt>
      <trkpt lat="46.50475" lon="5.32729">
        <ele>210.8</ele>
        <time>2022-08-16T12:23:21Z</time>
      </trkpt>
      <trkpt lat="46.50477" lon="5.32668">
        <ele>209.8</ele>
        <time>2022-08-16T12:23:26Z</time>
      </trkpt>
      <trkpt lat="46.50477" lon="5.32645">
        <ele>209.8</ele>
        <time>2022-08-16T12:23:28Z</time>
      </trkpt>
      <trkpt lat="46.50475" lon="5.32557">
        <ele>209</ele>
        <time>2022-08-16T12:23:36Z</time>
      </trkpt>
      <trkpt lat="46.50472" lon="5.32491">
        <ele>208</ele>
        <time>2022-08-16T12:23:42Z</time>
      </trkpt>
      <trkpt lat="46.50469" lon="5.32458">
        <ele>207.6</ele>
        <time>2022-08-16T12:23:45Z</time>
      </trkpt>
      <trkpt lat="46.5046" lon="5.32404">
        <ele>207</ele>
        <time>2022-08-16T12:23:50Z</time>
      </trkpt>
      <trkpt lat="46.50458" lon="5.32393">
        <ele>206.8</ele>
        <time>2022-08-16T12:23:51Z</time>
      </trkpt>
      <trkpt lat="46.50441" lon="5.32312">
        <ele>206.2</ele>
        <time>2022-08-16T12:23:59Z</time>
      </trkpt>
      <trkpt lat="46.50436" lon="5.32283">
        <ele>206.2</ele>
        <time>2022-08-16T12:24:02Z</time>
      </trkpt>
      <trkpt lat="46.50431" lon="5.32222">
        <ele>206.2</ele>
        <time>2022-08-16T12:24:08Z</time>
      </trkpt>
      <trkpt lat="46.50433" lon="5.32201">
        <ele>206.2</ele>
        <time>2022-08-16T12:24:10Z</time>
      </trkpt>
      <trkpt lat="46.50437" lon="5.32193">
        <ele>206.2</ele>
        <time>2022-08-16T12:24:11Z</time>
      </trkpt>
      <trkpt lat="46.50442" lon="5.32187">
        <ele>206.2</ele>
        <time>2022-08-16T12:24:12Z</time>
      </trkpt>
      <trkpt lat="46.50453" lon="5.32177">
        <ele>206</ele>
        <time>2022-08-16T12:24:14Z</time>
      </trkpt>
      <trkpt lat="46.50458" lon="5.32171">
        <ele>206</ele>
        <time>2022-08-16T12:24:15Z</time>
      </trkpt>
      <trkpt lat="46.50466" lon="5.32155">
        <ele>206</ele>
        <time>2022-08-16T12:24:17Z</time>
      </trkpt>
      <trkpt lat="46.50479" lon="5.32117">
        <ele>206</ele>
        <time>2022-08-16T12:24:21Z</time>
      </trkpt>
      <trkpt lat="46.5049" lon="5.32089">
        <ele>206</ele>
        <time>2022-08-16T12:24:24Z</time>
      </trkpt>
      <trkpt lat="46.50523" lon="5.3203">
        <ele>206.2</ele>
        <time>2022-08-16T12:24:31Z</time>
      </trkpt>
      <trkpt lat="46.50552" lon="5.31986">
        <ele>206.6</ele>
        <time>2022-08-16T12:24:37Z</time>
      </trkpt>
      <trkpt lat="46.50556" lon="5.31978">
        <ele>206.6</ele>
        <time>2022-08-16T12:24:38Z</time>
      </trkpt>
      <trkpt lat="46.50566" lon="5.31949">
        <ele>207.4</ele>
        <time>2022-08-16T12:24:42Z</time>
      </trkpt>
      <trkpt lat="46.50569" lon="5.31942">
        <ele>207.8</ele>
        <time>2022-08-16T12:24:43Z</time>
      </trkpt>
      <trkpt lat="46.50571" lon="5.31936">
        <ele>207.8</ele>
        <time>2022-08-16T12:24:44Z</time>
      </trkpt>
      <trkpt lat="46.50577" lon="5.31917">
        <ele>208.6</ele>
        <time>2022-08-16T12:24:47Z</time>
      </trkpt>
      <trkpt lat="46.5058" lon="5.31911">
        <ele>209</ele>
        <time>2022-08-16T12:24:48Z</time>
      </trkpt>
      <trkpt lat="46.50584" lon="5.31898">
        <ele>209.6</ele>
        <time>2022-08-16T12:24:50Z</time>
      </trkpt>
      <trkpt lat="46.50592" lon="5.31875">
        <ele>210.8</ele>
        <time>2022-08-16T12:24:54Z</time>
      </trkpt>
      <trkpt lat="46.50594" lon="5.31869">
        <ele>211</ele>
        <time>2022-08-16T12:24:55Z</time>
      </trkpt>
      <trkpt lat="46.50602" lon="5.31843">
        <ele>211.8</ele>
        <time>2022-08-16T12:25:00Z</time>
      </trkpt>
      <trkpt lat="46.50609" lon="5.31819">
        <ele>213</ele>
        <time>2022-08-16T12:25:04Z</time>
      </trkpt>
      <trkpt lat="46.50614" lon="5.318">
        <ele>214</ele>
        <time>2022-08-16T12:25:07Z</time>
      </trkpt>
      <trkpt lat="46.50625" lon="5.31763">
        <ele>214.8</ele>
        <time>2022-08-16T12:25:12Z</time>
      </trkpt>
      <trkpt lat="46.50633" lon="5.3175">
        <ele>215</ele>
        <time>2022-08-16T12:25:14Z</time>
      </trkpt>
      <trkpt lat="46.50648" lon="5.31728">
        <ele>215.2</ele>
        <time>2022-08-16T12:25:17Z</time>
      </trkpt>
      <trkpt lat="46.50653" lon="5.31722">
        <ele>215.2</ele>
        <time>2022-08-16T12:25:18Z</time>
      </trkpt>
      <trkpt lat="46.50658" lon="5.31717">
        <ele>215.2</ele>
        <time>2022-08-16T12:25:19Z</time>
      </trkpt>
      <trkpt lat="46.5067" lon="5.31713">
        <ele>215.2</ele>
        <time>2022-08-16T12:25:21Z</time>
      </trkpt>
      <trkpt lat="46.50676" lon="5.31712">
        <ele>215.2</ele>
        <time>2022-08-16T12:25:22Z</time>
      </trkpt>
      <trkpt lat="46.50722" lon="5.31708">
        <ele>215.2</ele>
        <time>2022-08-16T12:25:29Z</time>
      </trkpt>
      <trkpt lat="46.50755" lon="5.31705">
        <ele>215.2</ele>
        <time>2022-08-16T12:25:34Z</time>
      </trkpt>
      <trkpt lat="46.50761" lon="5.31705">
        <ele>215.2</ele>
        <time>2022-08-16T12:25:35Z</time>
      </trkpt>
      <trkpt lat="46.50767" lon="5.31706">
        <ele>215.2</ele>
        <time>2022-08-16T12:25:36Z</time>
      </trkpt>
      <trkpt lat="46.5078" lon="5.31711">
        <ele>215.4</ele>
        <time>2022-08-16T12:25:38Z</time>
      </trkpt>
      <trkpt lat="46.50797" lon="5.31723">
        <ele>215.4</ele>
        <time>2022-08-16T12:25:41Z</time>
      </trkpt>
      <trkpt lat="46.50831" lon="5.31748">
        <ele>215.8</ele>
        <time>2022-08-16T12:25:47Z</time>
      </trkpt>
      <trkpt lat="46.50843" lon="5.3175">
        <ele>215.8</ele>
        <time>2022-08-16T12:25:49Z</time>
      </trkpt>
      <trkpt lat="46.5086" lon="5.31742">
        <ele>216</ele>
        <time>2022-08-16T12:25:52Z</time>
      </trkpt>
      <trkpt lat="46.50866" lon="5.31737">
        <ele>216</ele>
        <time>2022-08-16T12:25:53Z</time>
      </trkpt>
      <trkpt lat="46.50872" lon="5.31732">
        <ele>216.4</ele>
        <time>2022-08-16T12:25:54Z</time>
      </trkpt>
      <trkpt lat="46.50877" lon="5.31726">
        <ele>216.4</ele>
        <time>2022-08-16T12:25:55Z</time>
      </trkpt>
      <trkpt lat="46.50896" lon="5.31704">
        <ele>216.8</ele>
        <time>2022-08-16T12:25:59Z</time>
      </trkpt>
      <trkpt lat="46.50905" lon="5.31692">
        <ele>217</ele>
        <time>2022-08-16T12:26:01Z</time>
      </trkpt>
      <trkpt lat="46.50921" lon="5.31673">
        <ele>217</ele>
        <time>2022-08-16T12:26:04Z</time>
      </trkpt>
      <trkpt lat="46.50961" lon="5.3163">
        <ele>216.4</ele>
        <time>2022-08-16T12:26:10Z</time>
      </trkpt>
      <trkpt lat="46.51009" lon="5.31577">
        <ele>215.2</ele>
        <time>2022-08-16T12:26:18Z</time>
      </trkpt>
      <trkpt lat="46.5103" lon="5.31552">
        <ele>215.6</ele>
        <time>2022-08-16T12:26:22Z</time>
      </trkpt>
      <trkpt lat="46.51035" lon="5.31545">
        <ele>215.6</ele>
        <time>2022-08-16T12:26:23Z</time>
      </trkpt>
      <trkpt lat="46.51038" lon="5.31537">
        <ele>215.6</ele>
        <time>2022-08-16T12:26:24Z</time>
      </trkpt>
      <trkpt lat="46.51047" lon="5.31508">
        <ele>215.6</ele>
        <time>2022-08-16T12:26:27Z</time>
      </trkpt>
      <trkpt lat="46.51061" lon="5.31446">
        <ele>215.2</ele>
        <time>2022-08-16T12:26:32Z</time>
      </trkpt>
      <trkpt lat="46.51073" lon="5.31398">
        <ele>214</ele>
        <time>2022-08-16T12:26:36Z</time>
      </trkpt>
      <trkpt lat="46.51075" lon="5.31372">
        <ele>213.4</ele>
        <time>2022-08-16T12:26:38Z</time>
      </trkpt>
      <trkpt lat="46.51073" lon="5.31357">
        <ele>213.4</ele>
        <time>2022-08-16T12:26:39Z</time>
      </trkpt>
      <trkpt lat="46.51071" lon="5.31343">
        <ele>212.8</ele>
        <time>2022-08-16T12:26:40Z</time>
      </trkpt>
      <trkpt lat="46.51072" lon="5.31314">
        <ele>212.4</ele>
        <time>2022-08-16T12:26:42Z</time>
      </trkpt>
      <trkpt lat="46.51075" lon="5.31301">
        <ele>212</ele>
        <time>2022-08-16T12:26:43Z</time>
      </trkpt>
      <trkpt lat="46.51086" lon="5.31279">
        <ele>211.6</ele>
        <time>2022-08-16T12:26:45Z</time>
      </trkpt>
      <trkpt lat="46.51095" lon="5.31269">
        <ele>211.2</ele>
        <time>2022-08-16T12:26:46Z</time>
      </trkpt>
      <trkpt lat="46.5111" lon="5.31251">
        <ele>210.6</ele>
        <time>2022-08-16T12:26:48Z</time>
      </trkpt>
      <trkpt lat="46.51116" lon="5.31241">
        <ele>210.4</ele>
        <time>2022-08-16T12:26:49Z</time>
      </trkpt>
      <trkpt lat="46.51123" lon="5.31228">
        <ele>210</ele>
        <time>2022-08-16T12:26:50Z</time>
      </trkpt>
      <trkpt lat="46.51132" lon="5.31219">
        <ele>209.6</ele>
        <time>2022-08-16T12:26:51Z</time>
      </trkpt>
      <trkpt lat="46.5114" lon="5.31209">
        <ele>209</ele>
        <time>2022-08-16T12:26:52Z</time>
      </trkpt>
      <trkpt lat="46.51169" lon="5.31177">
        <ele>207.8</ele>
        <time>2022-08-16T12:26:56Z</time>
      </trkpt>
      <trkpt lat="46.51176" lon="5.3117">
        <ele>207.6</ele>
        <time>2022-08-16T12:26:57Z</time>
      </trkpt>
      <trkpt lat="46.51183" lon="5.31163">
        <ele>207.6</ele>
        <time>2022-08-16T12:26:58Z</time>
      </trkpt>
      <trkpt lat="46.51202" lon="5.31137">
        <ele>207.2</ele>
        <time>2022-08-16T12:27:01Z</time>
      </trkpt>
      <trkpt lat="46.51231" lon="5.31096">
        <ele>206.6</ele>
        <time>2022-08-16T12:27:06Z</time>
      </trkpt>
      <trkpt lat="46.51249" lon="5.31084">
        <ele>206.2</ele>
        <time>2022-08-16T12:27:08Z</time>
      </trkpt>
      <trkpt lat="46.51258" lon="5.3108">
        <ele>205.8</ele>
        <time>2022-08-16T12:27:09Z</time>
      </trkpt>
      <trkpt lat="46.51267" lon="5.31077">
        <ele>205.6</ele>
        <time>2022-08-16T12:27:10Z</time>
      </trkpt>
      <trkpt lat="46.51276" lon="5.31076">
        <ele>205.4</ele>
        <time>2022-08-16T12:27:11Z</time>
      </trkpt>
      <trkpt lat="46.51294" lon="5.31075">
        <ele>204.8</ele>
        <time>2022-08-16T12:27:13Z</time>
      </trkpt>
      <trkpt lat="46.5132" lon="5.31074">
        <ele>204.2</ele>
        <time>2022-08-16T12:27:16Z</time>
      </trkpt>
      <trkpt lat="46.51361" lon="5.31073">
        <ele>203.8</ele>
        <time>2022-08-16T12:27:21Z</time>
      </trkpt>
      <trkpt lat="46.51418" lon="5.3107">
        <ele>204.2</ele>
        <time>2022-08-16T12:27:28Z</time>
      </trkpt>
      <trkpt lat="46.51476" lon="5.31069">
        <ele>204</ele>
        <time>2022-08-16T12:27:35Z</time>
      </trkpt>
      <trkpt lat="46.51484" lon="5.31069">
        <ele>204</ele>
        <time>2022-08-16T12:27:36Z</time>
      </trkpt>
      <trkpt lat="46.5154" lon="5.31073">
        <ele>203.8</ele>
        <time>2022-08-16T12:27:43Z</time>
      </trkpt>
      <trkpt lat="46.51563" lon="5.31074">
        <ele>204</ele>
        <time>2022-08-16T12:27:46Z</time>
      </trkpt>
      <trkpt lat="46.51586" lon="5.31079">
        <ele>204.2</ele>
        <time>2022-08-16T12:27:49Z</time>
      </trkpt>
      <trkpt lat="46.51608" lon="5.31087">
        <ele>204.4</ele>
        <time>2022-08-16T12:27:52Z</time>
      </trkpt>
      <trkpt lat="46.51639" lon="5.31102">
        <ele>204.8</ele>
        <time>2022-08-16T12:27:57Z</time>
      </trkpt>
      <trkpt lat="46.51662" lon="5.31102">
        <ele>205.6</ele>
        <time>2022-08-16T12:28:01Z</time>
      </trkpt>
      <trkpt lat="46.51673" lon="5.31107">
        <ele>205.8</ele>
        <time>2022-08-16T12:28:03Z</time>
      </trkpt>
      <trkpt lat="46.51676" lon="5.31113">
        <ele>205.8</ele>
        <time>2022-08-16T12:28:04Z</time>
      </trkpt>
      <trkpt lat="46.51688" lon="5.31136">
        <ele>206.2</ele>
        <time>2022-08-16T12:28:07Z</time>
      </trkpt>
      <trkpt lat="46.51693" lon="5.31143">
        <ele>206.2</ele>
        <time>2022-08-16T12:28:08Z</time>
      </trkpt>
      <trkpt lat="46.51719" lon="5.31169">
        <ele>206.4</ele>
        <time>2022-08-16T12:28:12Z</time>
      </trkpt>
      <trkpt lat="46.51727" lon="5.31172">
        <ele>206.4</ele>
        <time>2022-08-16T12:28:13Z</time>
      </trkpt>
      <trkpt lat="46.51752" lon="5.31179">
        <ele>206.4</ele>
        <time>2022-08-16T12:28:16Z</time>
      </trkpt>
      <trkpt lat="46.51761" lon="5.31179">
        <ele>206.2</ele>
        <time>2022-08-16T12:28:17Z</time>
      </trkpt>
      <trkpt lat="46.518" lon="5.3118">
        <ele>204.6</ele>
        <time>2022-08-16T12:28:21Z</time>
      </trkpt>
      <trkpt lat="46.5182" lon="5.31183">
        <ele>204.2</ele>
        <time>2022-08-16T12:28:23Z</time>
      </trkpt>
      <trkpt lat="46.5183" lon="5.31187">
        <ele>203.4</ele>
        <time>2022-08-16T12:28:24Z</time>
      </trkpt>
      <trkpt lat="46.5185" lon="5.31197">
        <ele>202.6</ele>
        <time>2022-08-16T12:28:26Z</time>
      </trkpt>
      <trkpt lat="46.51859" lon="5.31204">
        <ele>202</ele>
        <time>2022-08-16T12:28:27Z</time>
      </trkpt>
      <trkpt lat="46.51868" lon="5.31213">
        <ele>201.8</ele>
        <time>2022-08-16T12:28:28Z</time>
      </trkpt>
      <trkpt lat="46.51882" lon="5.31234">
        <ele>200.8</ele>
        <time>2022-08-16T12:28:30Z</time>
      </trkpt>
      <trkpt lat="46.51889" lon="5.31244">
        <ele>200.6</ele>
        <time>2022-08-16T12:28:31Z</time>
      </trkpt>
      <trkpt lat="46.51922" lon="5.31293">
        <ele>199.8</ele>
        <time>2022-08-16T12:28:36Z</time>
      </trkpt>
      <trkpt lat="46.51942" lon="5.31322">
        <ele>199.6</ele>
        <time>2022-08-16T12:28:39Z</time>
      </trkpt>
      <trkpt lat="46.51977" lon="5.31375">
        <ele>199.2</ele>
        <time>2022-08-16T12:28:45Z</time>
      </trkpt>
      <trkpt lat="46.52015" lon="5.31431">
        <ele>199.4</ele>
        <time>2022-08-16T12:28:52Z</time>
      </trkpt>
      <trkpt lat="46.52021" lon="5.31439">
        <ele>199.4</ele>
        <time>2022-08-16T12:28:53Z</time>
      </trkpt>
      <trkpt lat="46.52051" lon="5.31484">
        <ele>200</ele>
        <time>2022-08-16T12:28:59Z</time>
      </trkpt>
      <trkpt lat="46.52075" lon="5.31517">
        <ele>200.8</ele>
        <time>2022-08-16T12:29:04Z</time>
      </trkpt>
      <trkpt lat="46.52083" lon="5.3153">
        <ele>201.4</ele>
        <time>2022-08-16T12:29:06Z</time>
      </trkpt>
      <trkpt lat="46.52096" lon="5.31548">
        <ele>202</ele>
        <time>2022-08-16T12:29:09Z</time>
      </trkpt>
      <trkpt lat="46.52105" lon="5.3156">
        <ele>202.4</ele>
        <time>2022-08-16T12:29:11Z</time>
      </trkpt>
      <trkpt lat="46.52125" lon="5.31587">
        <ele>203.2</ele>
        <time>2022-08-16T12:29:16Z</time>
      </trkpt>
      <trkpt lat="46.52132" lon="5.31598">
        <ele>203.6</ele>
        <time>2022-08-16T12:29:18Z</time>
      </trkpt>
      <trkpt lat="46.52147" lon="5.31619">
        <ele>204.4</ele>
        <time>2022-08-16T12:29:22Z</time>
      </trkpt>
      <trkpt lat="46.52161" lon="5.3164">
        <ele>205</ele>
        <time>2022-08-16T12:29:26Z</time>
      </trkpt>
      <trkpt lat="46.52172" lon="5.31655">
        <ele>205.4</ele>
        <time>2022-08-16T12:29:29Z</time>
      </trkpt>
      <trkpt lat="46.52189" lon="5.31679">
        <ele>206.6</ele>
        <time>2022-08-16T12:29:34Z</time>
      </trkpt>
      <trkpt lat="46.522" lon="5.31695">
        <ele>207</ele>
        <time>2022-08-16T12:29:37Z</time>
      </trkpt>
      <trkpt lat="46.5221" lon="5.3171">
        <ele>207.2</ele>
        <time>2022-08-16T12:29:40Z</time>
      </trkpt>
      <trkpt lat="46.52222" lon="5.31725">
        <ele>207.6</ele>
        <time>2022-08-16T12:29:43Z</time>
      </trkpt>
      <trkpt lat="46.52229" lon="5.31735">
        <ele>208</ele>
        <time>2022-08-16T12:29:45Z</time>
      </trkpt>
      <trkpt lat="46.52251" lon="5.31767">
        <ele>208.8</ele>
        <time>2022-08-16T12:29:51Z</time>
      </trkpt>
      <trkpt lat="46.52258" lon="5.31777">
        <ele>209.2</ele>
        <time>2022-08-16T12:29:53Z</time>
      </trkpt>
      <trkpt lat="46.52276" lon="5.31802">
        <ele>210</ele>
        <time>2022-08-16T12:29:58Z</time>
      </trkpt>
      <trkpt lat="46.52286" lon="5.31817">
        <ele>210.4</ele>
        <time>2022-08-16T12:30:01Z</time>
      </trkpt>
      <trkpt lat="46.52304" lon="5.31842">
        <ele>211</ele>
        <time>2022-08-16T12:30:06Z</time>
      </trkpt>
      <trkpt lat="46.52314" lon="5.31857">
        <ele>211.6</ele>
        <time>2022-08-16T12:30:09Z</time>
      </trkpt>
      <trkpt lat="46.52321" lon="5.31866">
        <ele>212</ele>
        <time>2022-08-16T12:30:11Z</time>
      </trkpt>
      <trkpt lat="46.52337" lon="5.31891">
        <ele>212.8</ele>
        <time>2022-08-16T12:30:16Z</time>
      </trkpt>
      <trkpt lat="46.52348" lon="5.31906">
        <ele>213.2</ele>
        <time>2022-08-16T12:30:19Z</time>
      </trkpt>
      <trkpt lat="46.52368" lon="5.31933">
        <ele>213.8</ele>
        <time>2022-08-16T12:30:24Z</time>
      </trkpt>
      <trkpt lat="46.52397" lon="5.31975">
        <ele>213.8</ele>
        <time>2022-08-16T12:30:30Z</time>
      </trkpt>
      <trkpt lat="46.52437" lon="5.32033">
        <ele>212.6</ele>
        <time>2022-08-16T12:30:37Z</time>
      </trkpt>
      <trkpt lat="46.52456" lon="5.3206">
        <ele>212</ele>
        <time>2022-08-16T12:30:40Z</time>
      </trkpt>
      <trkpt lat="46.52475" lon="5.32086">
        <ele>211.4</ele>
        <time>2022-08-16T12:30:43Z</time>
      </trkpt>
      <trkpt lat="46.52489" lon="5.32105">
        <ele>210.6</ele>
        <time>2022-08-16T12:30:45Z</time>
      </trkpt>
      <trkpt lat="46.52509" lon="5.32135">
        <ele>210.2</ele>
        <time>2022-08-16T12:30:48Z</time>
      </trkpt>
      <trkpt lat="46.52524" lon="5.32153">
        <ele>209.4</ele>
        <time>2022-08-16T12:30:50Z</time>
      </trkpt>
      <trkpt lat="46.52548" lon="5.32177">
        <ele>208.6</ele>
        <time>2022-08-16T12:30:53Z</time>
      </trkpt>
      <trkpt lat="46.52556" lon="5.32183">
        <ele>208.2</ele>
        <time>2022-08-16T12:30:54Z</time>
      </trkpt>
      <trkpt lat="46.52569" lon="5.32185">
        <ele>208</ele>
        <time>2022-08-16T12:30:56Z</time>
      </trkpt>
      <trkpt lat="46.5258" lon="5.32175">
        <ele>207.4</ele>
        <time>2022-08-16T12:30:58Z</time>
      </trkpt>
      <trkpt lat="46.52583" lon="5.32168">
        <ele>206.8</ele>
        <time>2022-08-16T12:30:59Z</time>
      </trkpt>
      <trkpt lat="46.52589" lon="5.32153">
        <ele>206</ele>
        <time>2022-08-16T12:31:01Z</time>
      </trkpt>
      <trkpt lat="46.52603" lon="5.32127">
        <ele>205.2</ele>
        <time>2022-08-16T12:31:05Z</time>
      </trkpt>
      <trkpt lat="46.5262" lon="5.32085">
        <ele>205.6</ele>
        <time>2022-08-16T12:31:11Z</time>
      </trkpt>
      <trkpt lat="46.52636" lon="5.32044">
        <ele>207</ele>
        <time>2022-08-16T12:31:17Z</time>
      </trkpt>
      <trkpt lat="46.52638" lon="5.32037">
        <ele>207.4</ele>
        <time>2022-08-16T12:31:18Z</time>
      </trkpt>
      <trkpt lat="46.52647" lon="5.32006">
        <ele>208.2</ele>
        <time>2022-08-16T12:31:23Z</time>
      </trkpt>
      <trkpt lat="46.52651" lon="5.31995">
        <ele>208.6</ele>
        <time>2022-08-16T12:31:25Z</time>
      </trkpt>
      <trkpt lat="46.52653" lon="5.31989">
        <ele>208.6</ele>
        <time>2022-08-16T12:31:26Z</time>
      </trkpt>
      <trkpt lat="46.52656" lon="5.31978">
        <ele>209</ele>
        <time>2022-08-16T12:31:28Z</time>
      </trkpt>
      <trkpt lat="46.52661" lon="5.31954">
        <ele>210.4</ele>
        <time>2022-08-16T12:31:32Z</time>
      </trkpt>
      <trkpt lat="46.52665" lon="5.31939">
        <ele>211</ele>
        <time>2022-08-16T12:31:35Z</time>
      </trkpt>
      <trkpt lat="46.52667" lon="5.3193">
        <ele>211.6</ele>
        <time>2022-08-16T12:31:37Z</time>
      </trkpt>
      <trkpt lat="46.52674" lon="5.31904">
        <ele>212.8</ele>
        <time>2022-08-16T12:31:42Z</time>
      </trkpt>
      <trkpt lat="46.52675" lon="5.31899">
        <ele>213</ele>
        <time>2022-08-16T12:31:43Z</time>
      </trkpt>
      <trkpt lat="46.52682" lon="5.31874">
        <ele>213.8</ele>
        <time>2022-08-16T12:31:48Z</time>
      </trkpt>
      <trkpt lat="46.52685" lon="5.31861">
        <ele>214.8</ele>
        <time>2022-08-16T12:31:51Z</time>
      </trkpt>
      <trkpt lat="46.52698" lon="5.31829">
        <ele>216</ele>
        <time>2022-08-16T12:31:57Z</time>
      </trkpt>
      <trkpt lat="46.52701" lon="5.31824">
        <ele>216.2</ele>
        <time>2022-08-16T12:31:58Z</time>
      </trkpt>
      <trkpt lat="46.52719" lon="5.31804">
        <ele>216.8</ele>
        <time>2022-08-16T12:32:03Z</time>
      </trkpt>
      <trkpt lat="46.52724" lon="5.318">
        <ele>217</ele>
        <time>2022-08-16T12:32:04Z</time>
      </trkpt>
      <trkpt lat="46.52727" lon="5.31798">
        <ele>217</ele>
        <time>2022-08-16T12:32:05Z</time>
      </trkpt>
      <trkpt lat="46.52756" lon="5.31784">
        <ele>217.4</ele>
        <time>2022-08-16T12:32:11Z</time>
      </trkpt>
      <trkpt lat="46.52797" lon="5.31766">
        <ele>217.6</ele>
        <time>2022-08-16T12:32:19Z</time>
      </trkpt>
      <trkpt lat="46.52807" lon="5.31761">
        <ele>217.8</ele>
        <time>2022-08-16T12:32:21Z</time>
      </trkpt>
      <trkpt lat="46.52836" lon="5.3175">
        <ele>218</ele>
        <time>2022-08-16T12:32:26Z</time>
      </trkpt>
      <trkpt lat="46.52847" lon="5.31744">
        <ele>218</ele>
        <time>2022-08-16T12:32:28Z</time>
      </trkpt>
      <trkpt lat="46.52865" lon="5.31736">
        <ele>218.2</ele>
        <time>2022-08-16T12:32:31Z</time>
      </trkpt>
      <trkpt lat="46.52878" lon="5.31731">
        <ele>218</ele>
        <time>2022-08-16T12:32:33Z</time>
      </trkpt>
      <trkpt lat="46.52898" lon="5.31727">
        <ele>217.8</ele>
        <time>2022-08-16T12:32:36Z</time>
      </trkpt>
      <trkpt lat="46.52918" lon="5.31733">
        <ele>217.4</ele>
        <time>2022-08-16T12:32:39Z</time>
      </trkpt>
      <trkpt lat="46.52931" lon="5.3174">
        <ele>217.2</ele>
        <time>2022-08-16T12:32:41Z</time>
      </trkpt>
      <trkpt lat="46.52943" lon="5.3175">
        <ele>217</ele>
        <time>2022-08-16T12:32:43Z</time>
      </trkpt>
      <trkpt lat="46.52966" lon="5.31771">
        <ele>217.2</ele>
        <time>2022-08-16T12:32:47Z</time>
      </trkpt>
      <trkpt lat="46.52974" lon="5.31776">
        <ele>217.2</ele>
        <time>2022-08-16T12:32:48Z</time>
      </trkpt>
      <trkpt lat="46.52988" lon="5.31778">
        <ele>217.2</ele>
        <time>2022-08-16T12:32:50Z</time>
      </trkpt>
      <trkpt lat="46.53002" lon="5.31773">
        <ele>217.2</ele>
        <time>2022-08-16T12:32:52Z</time>
      </trkpt>
      <trkpt lat="46.53008" lon="5.31767">
        <ele>217.2</ele>
        <time>2022-08-16T12:32:53Z</time>
      </trkpt>
      <trkpt lat="46.5302" lon="5.31752">
        <ele>217.2</ele>
        <time>2022-08-16T12:32:55Z</time>
      </trkpt>
      <trkpt lat="46.53027" lon="5.31732">
        <ele>216.6</ele>
        <time>2022-08-16T12:32:57Z</time>
      </trkpt>
      <trkpt lat="46.53053" lon="5.31662">
        <ele>215.8</ele>
        <time>2022-08-16T12:33:04Z</time>
      </trkpt>
      <trkpt lat="46.53059" lon="5.31654">
        <ele>215.6</ele>
        <time>2022-08-16T12:33:05Z</time>
      </trkpt>
      <trkpt lat="46.53066" lon="5.31647">
        <ele>215.2</ele>
        <time>2022-08-16T12:33:06Z</time>
      </trkpt>
      <trkpt lat="46.53074" lon="5.31642">
        <ele>215</ele>
        <time>2022-08-16T12:33:07Z</time>
      </trkpt>
      <trkpt lat="46.53083" lon="5.31637">
        <ele>214.8</ele>
        <time>2022-08-16T12:33:08Z</time>
      </trkpt>
      <trkpt lat="46.53092" lon="5.31633">
        <ele>214</ele>
        <time>2022-08-16T12:33:09Z</time>
      </trkpt>
      <trkpt lat="46.53111" lon="5.31625">
        <ele>213.2</ele>
        <time>2022-08-16T12:33:11Z</time>
      </trkpt>
      <trkpt lat="46.5312" lon="5.3162">
        <ele>213</ele>
        <time>2022-08-16T12:33:12Z</time>
      </trkpt>
      <trkpt lat="46.5313" lon="5.31616">
        <ele>212.2</ele>
        <time>2022-08-16T12:33:13Z</time>
      </trkpt>
      <trkpt lat="46.53139" lon="5.31613">
        <ele>211.6</ele>
        <time>2022-08-16T12:33:14Z</time>
      </trkpt>
      <trkpt lat="46.53149" lon="5.3161">
        <ele>211.4</ele>
        <time>2022-08-16T12:33:15Z</time>
      </trkpt>
      <trkpt lat="46.53179" lon="5.31597">
        <ele>210</ele>
        <time>2022-08-16T12:33:18Z</time>
      </trkpt>
      <trkpt lat="46.53209" lon="5.31584">
        <ele>208.8</ele>
        <time>2022-08-16T12:33:21Z</time>
      </trkpt>
      <trkpt lat="46.5323" lon="5.31573">
        <ele>207.4</ele>
        <time>2022-08-16T12:33:23Z</time>
      </trkpt>
      <trkpt lat="46.5326" lon="5.31554">
        <ele>206.6</ele>
        <time>2022-08-16T12:33:26Z</time>
      </trkpt>
      <trkpt lat="46.53271" lon="5.31546">
        <ele>206</ele>
        <time>2022-08-16T12:33:27Z</time>
      </trkpt>
      <trkpt lat="46.53301" lon="5.31521">
        <ele>204.6</ele>
        <time>2022-08-16T12:33:30Z</time>
      </trkpt>
      <trkpt lat="46.5331" lon="5.31513">
        <ele>204.4</ele>
        <time>2022-08-16T12:33:31Z</time>
      </trkpt>
      <trkpt lat="46.5334" lon="5.31488">
        <ele>203.4</ele>
        <time>2022-08-16T12:33:34Z</time>
      </trkpt>
      <trkpt lat="46.53363" lon="5.31467">
        <ele>202.4</ele>
        <time>2022-08-16T12:33:37Z</time>
      </trkpt>
      <trkpt lat="46.53377" lon="5.31451">
        <ele>202.2</ele>
        <time>2022-08-16T12:33:39Z</time>
      </trkpt>
      <trkpt lat="46.53388" lon="5.31432">
        <ele>202.4</ele>
        <time>2022-08-16T12:33:41Z</time>
      </trkpt>
      <trkpt lat="46.53416" lon="5.31369">
        <ele>202.2</ele>
        <time>2022-08-16T12:33:47Z</time>
      </trkpt>
      <trkpt lat="46.53446" lon="5.31301">
        <ele>201.6</ele>
        <time>2022-08-16T12:33:53Z</time>
      </trkpt>
      <trkpt lat="46.53456" lon="5.3128">
        <ele>201</ele>
        <time>2022-08-16T12:33:55Z</time>
      </trkpt>
      <trkpt lat="46.53484" lon="5.31216">
        <ele>200.2</ele>
        <time>2022-08-16T12:34:01Z</time>
      </trkpt>
      <trkpt lat="46.53491" lon="5.31169">
        <ele>200.2</ele>
        <time>2022-08-16T12:34:06Z</time>
      </trkpt>
      <trkpt lat="46.53496" lon="5.31134">
        <ele>201.2</ele>
        <time>2022-08-16T12:34:10Z</time>
      </trkpt>
      <trkpt lat="46.53499" lon="5.31127">
        <ele>201.2</ele>
        <time>2022-08-16T12:34:11Z</time>
      </trkpt>
      <trkpt lat="46.53502" lon="5.3112">
        <ele>201.8</ele>
        <time>2022-08-16T12:34:12Z</time>
      </trkpt>
      <trkpt lat="46.53511" lon="5.3111">
        <ele>202.4</ele>
        <time>2022-08-16T12:34:14Z</time>
      </trkpt>
      <trkpt lat="46.53516" lon="5.31105">
        <ele>202.6</ele>
        <time>2022-08-16T12:34:15Z</time>
      </trkpt>
      <trkpt lat="46.53526" lon="5.31097">
        <ele>203.2</ele>
        <time>2022-08-16T12:34:17Z</time>
      </trkpt>
      <trkpt lat="46.53532" lon="5.31094">
        <ele>203.4</ele>
        <time>2022-08-16T12:34:18Z</time>
      </trkpt>
      <trkpt lat="46.53544" lon="5.31088">
        <ele>204</ele>
        <time>2022-08-16T12:34:20Z</time>
      </trkpt>
      <trkpt lat="46.53555" lon="5.31082">
        <ele>204.4</ele>
        <time>2022-08-16T12:34:22Z</time>
      </trkpt>
      <trkpt lat="46.53574" lon="5.31071">
        <ele>204.6</ele>
        <time>2022-08-16T12:34:25Z</time>
      </trkpt>
      <trkpt lat="46.53606" lon="5.31051">
        <ele>204.8</ele>
        <time>2022-08-16T12:34:30Z</time>
      </trkpt>
      <trkpt lat="46.53654" lon="5.31027">
        <ele>204.8</ele>
        <time>2022-08-16T12:34:37Z</time>
      </trkpt>
      <trkpt lat="46.53669" lon="5.31025">
        <ele>204.8</ele>
        <time>2022-08-16T12:34:39Z</time>
      </trkpt>
      <trkpt lat="46.53684" lon="5.31027">
        <ele>204.6</ele>
        <time>2022-08-16T12:34:41Z</time>
      </trkpt>
      <trkpt lat="46.53736" lon="5.31032">
        <ele>204.4</ele>
        <time>2022-08-16T12:34:48Z</time>
      </trkpt>
      <trkpt lat="46.53775" lon="5.31021">
        <ele>204.4</ele>
        <time>2022-08-16T12:34:53Z</time>
      </trkpt>
      <trkpt lat="46.53791" lon="5.31015">
        <ele>204.4</ele>
        <time>2022-08-16T12:34:55Z</time>
      </trkpt>
      <trkpt lat="46.53807" lon="5.31002">
        <ele>204</ele>
        <time>2022-08-16T12:34:57Z</time>
      </trkpt>
      <trkpt lat="46.53817" lon="5.30982">
        <ele>203.2</ele>
        <time>2022-08-16T12:34:59Z</time>
      </trkpt>
      <trkpt lat="46.53821" lon="5.30971">
        <ele>203.2</ele>
        <time>2022-08-16T12:35:00Z</time>
      </trkpt>
      <trkpt lat="46.53847" lon="5.30906">
        <ele>202</ele>
        <time>2022-08-16T12:35:06Z</time>
      </trkpt>
      <trkpt lat="46.53851" lon="5.30896">
        <ele>202</ele>
        <time>2022-08-16T12:35:07Z</time>
      </trkpt>
      <trkpt lat="46.5387" lon="5.30848">
        <ele>201.8</ele>
        <time>2022-08-16T12:35:12Z</time>
      </trkpt>
      <trkpt lat="46.53886" lon="5.30801">
        <ele>203</ele>
        <time>2022-08-16T12:35:18Z</time>
      </trkpt>
      <trkpt lat="46.53889" lon="5.30787">
        <ele>203.4</ele>
        <time>2022-08-16T12:35:20Z</time>
      </trkpt>
      <trkpt lat="46.53892" lon="5.3076">
        <ele>204</ele>
        <time>2022-08-16T12:35:24Z</time>
      </trkpt>
      <trkpt lat="46.53893" lon="5.30739">
        <ele>204.6</ele>
        <time>2022-08-16T12:35:27Z</time>
      </trkpt>
      <trkpt lat="46.53894" lon="5.30706">
        <ele>205.8</ele>
        <time>2022-08-16T12:35:32Z</time>
      </trkpt>
      <trkpt lat="46.53896" lon="5.30684">
        <ele>206.2</ele>
        <time>2022-08-16T12:35:35Z</time>
      </trkpt>
      <trkpt lat="46.539" lon="5.30663">
        <ele>206.8</ele>
        <time>2022-08-16T12:35:38Z</time>
      </trkpt>
      <trkpt lat="46.53901" lon="5.30656">
        <ele>207.2</ele>
        <time>2022-08-16T12:35:39Z</time>
      </trkpt>
      <trkpt lat="46.53903" lon="5.30649">
        <ele>207.6</ele>
        <time>2022-08-16T12:35:40Z</time>
      </trkpt>
      <trkpt lat="46.53907" lon="5.30635">
        <ele>208</ele>
        <time>2022-08-16T12:35:42Z</time>
      </trkpt>
      <trkpt lat="46.53917" lon="5.30609">
        <ele>208.2</ele>
        <time>2022-08-16T12:35:46Z</time>
      </trkpt>
      <trkpt lat="46.53936" lon="5.30569">
        <ele>209</ele>
        <time>2022-08-16T12:35:53Z</time>
      </trkpt>
      <trkpt lat="46.5394" lon="5.30564">
        <ele>209</ele>
        <time>2022-08-16T12:35:54Z</time>
      </trkpt>
      <trkpt lat="46.5395" lon="5.30552">
        <ele>209.4</ele>
        <time>2022-08-16T12:35:57Z</time>
      </trkpt>
      <trkpt lat="46.53958" lon="5.30544">
        <ele>209.6</ele>
        <time>2022-08-16T12:35:59Z</time>
      </trkpt>
      <trkpt lat="46.53962" lon="5.30541">
        <ele>209.8</ele>
        <time>2022-08-16T12:36:00Z</time>
      </trkpt>
      <trkpt lat="46.53967" lon="5.30539">
        <ele>210</ele>
        <time>2022-08-16T12:36:01Z</time>
      </trkpt>
      <trkpt lat="46.53971" lon="5.30536">
        <ele>210.4</ele>
        <time>2022-08-16T12:36:02Z</time>
      </trkpt>
      <trkpt lat="46.53974" lon="5.30533">
        <ele>210.6</ele>
        <time>2022-08-16T12:36:03Z</time>
      </trkpt>
      <trkpt lat="46.53982" lon="5.30528">
        <ele>211.2</ele>
        <time>2022-08-16T12:36:05Z</time>
      </trkpt>
      <trkpt lat="46.54001" lon="5.30516">
        <ele>212.2</ele>
        <time>2022-08-16T12:36:10Z</time>
      </trkpt>
      <trkpt lat="46.54014" lon="5.30506">
        <ele>212.6</ele>
        <time>2022-08-16T12:36:13Z</time>
      </trkpt>
      <trkpt lat="46.54024" lon="5.30494">
        <ele>213.4</ele>
        <time>2022-08-16T12:36:16Z</time>
      </trkpt>
      <trkpt lat="46.54031" lon="5.30485">
        <ele>214.2</ele>
        <time>2022-08-16T12:36:18Z</time>
      </trkpt>
      <trkpt lat="46.54035" lon="5.3048">
        <ele>214.4</ele>
        <time>2022-08-16T12:36:19Z</time>
      </trkpt>
      <trkpt lat="46.54047" lon="5.30456">
        <ele>214.8</ele>
        <time>2022-08-16T12:36:23Z</time>
      </trkpt>
      <trkpt lat="46.5405" lon="5.30449">
        <ele>214.8</ele>
        <time>2022-08-16T12:36:24Z</time>
      </trkpt>
      <trkpt lat="46.54058" lon="5.30419">
        <ele>214.8</ele>
        <time>2022-08-16T12:36:28Z</time>
      </trkpt>
      <trkpt lat="46.5407" lon="5.30367">
        <ele>215.6</ele>
        <time>2022-08-16T12:36:35Z</time>
      </trkpt>
      <trkpt lat="46.54074" lon="5.30353">
        <ele>215.6</ele>
        <time>2022-08-16T12:36:37Z</time>
      </trkpt>
      <trkpt lat="46.54088" lon="5.30306">
        <ele>215.4</ele>
        <time>2022-08-16T12:36:44Z</time>
      </trkpt>
      <trkpt lat="46.54098" lon="5.30275">
        <ele>215.6</ele>
        <time>2022-08-16T12:36:49Z</time>
      </trkpt>
      <trkpt lat="46.54103" lon="5.3026">
        <ele>215.8</ele>
        <time>2022-08-16T12:36:51Z</time>
      </trkpt>
      <trkpt lat="46.54123" lon="5.30203">
        <ele>216</ele>
        <time>2022-08-16T12:36:58Z</time>
      </trkpt>
      <trkpt lat="46.54144" lon="5.30137">
        <ele>216</ele>
        <time>2022-08-16T12:37:06Z</time>
      </trkpt>
      <trkpt lat="46.54149" lon="5.3012">
        <ele>215.8</ele>
        <time>2022-08-16T12:37:08Z</time>
      </trkpt>
      <trkpt lat="46.54159" lon="5.30111">
        <ele>215.6</ele>
        <time>2022-08-16T12:37:10Z</time>
      </trkpt>
      <trkpt lat="46.54196" lon="5.30097">
        <ele>215.6</ele>
        <time>2022-08-16T12:37:16Z</time>
      </trkpt>
      <trkpt lat="46.54203" lon="5.30096">
        <ele>215.6</ele>
        <time>2022-08-16T12:37:17Z</time>
      </trkpt>
      <trkpt lat="46.54231" lon="5.30098">
        <ele>215.8</ele>
        <time>2022-08-16T12:37:21Z</time>
      </trkpt>
      <trkpt lat="46.5428" lon="5.30105">
        <ele>215.8</ele>
        <time>2022-08-16T12:37:28Z</time>
      </trkpt>
      <trkpt lat="46.54333" lon="5.30114">
        <ele>215.2</ele>
        <time>2022-08-16T12:37:35Z</time>
      </trkpt>
      <trkpt lat="46.54374" lon="5.3013">
        <ele>214.4</ele>
        <time>2022-08-16T12:37:40Z</time>
      </trkpt>
      <trkpt lat="46.54391" lon="5.30138">
        <ele>214</ele>
        <time>2022-08-16T12:37:42Z</time>
      </trkpt>
      <trkpt lat="46.54408" lon="5.30144">
        <ele>213.4</ele>
        <time>2022-08-16T12:37:44Z</time>
      </trkpt>
      <trkpt lat="46.54435" lon="5.30149">
        <ele>212.8</ele>
        <time>2022-08-16T12:37:47Z</time>
      </trkpt>
      <trkpt lat="46.54453" lon="5.30149">
        <ele>212.2</ele>
        <time>2022-08-16T12:37:49Z</time>
      </trkpt>
      <trkpt lat="46.54471" lon="5.30145">
        <ele>211.2</ele>
        <time>2022-08-16T12:37:51Z</time>
      </trkpt>
      <trkpt lat="46.54481" lon="5.30141">
        <ele>211</ele>
        <time>2022-08-16T12:37:52Z</time>
      </trkpt>
      <trkpt lat="46.54509" lon="5.30128">
        <ele>210</ele>
        <time>2022-08-16T12:37:55Z</time>
      </trkpt>
      <trkpt lat="46.54526" lon="5.30119">
        <ele>209.2</ele>
        <time>2022-08-16T12:37:57Z</time>
      </trkpt>
      <trkpt lat="46.54538" lon="5.30112">
        <ele>208.8</ele>
        <time>2022-08-16T12:37:58Z</time>
      </trkpt>
      <trkpt lat="46.54568" lon="5.30093">
        <ele>207.8</ele>
        <time>2022-08-16T12:38:01Z</time>
      </trkpt>
      <trkpt lat="46.54598" lon="5.30075">
        <ele>206.6</ele>
        <time>2022-08-16T12:38:04Z</time>
      </trkpt>
      <trkpt lat="46.54608" lon="5.30068">
        <ele>206</ele>
        <time>2022-08-16T12:38:05Z</time>
      </trkpt>
      <trkpt lat="46.54618" lon="5.30062">
        <ele>205.6</ele>
        <time>2022-08-16T12:38:06Z</time>
      </trkpt>
      <trkpt lat="46.54638" lon="5.30049">
        <ele>204.2</ele>
        <time>2022-08-16T12:38:08Z</time>
      </trkpt>
      <trkpt lat="46.54659" lon="5.30037">
        <ele>202.8</ele>
        <time>2022-08-16T12:38:10Z</time>
      </trkpt>
      <trkpt lat="46.5469" lon="5.30018">
        <ele>201.6</ele>
        <time>2022-08-16T12:38:13Z</time>
      </trkpt>
      <trkpt lat="46.5471" lon="5.30005">
        <ele>200.4</ele>
        <time>2022-08-16T12:38:15Z</time>
      </trkpt>
      <trkpt lat="46.54728" lon="5.2999">
        <ele>199</ele>
        <time>2022-08-16T12:38:17Z</time>
      </trkpt>
      <trkpt lat="46.54745" lon="5.29976">
        <ele>198.6</ele>
        <time>2022-08-16T12:38:19Z</time>
      </trkpt>
      <trkpt lat="46.54762" lon="5.29961">
        <ele>197.6</ele>
        <time>2022-08-16T12:38:21Z</time>
      </trkpt>
      <trkpt lat="46.54785" lon="5.2994">
        <ele>196.6</ele>
        <time>2022-08-16T12:38:24Z</time>
      </trkpt>
      <trkpt lat="46.548" lon="5.29924">
        <ele>196.2</ele>
        <time>2022-08-16T12:38:26Z</time>
      </trkpt>
      <trkpt lat="46.54834" lon="5.29881">
        <ele>195.4</ele>
        <time>2022-08-16T12:38:31Z</time>
      </trkpt>
      <trkpt lat="46.54859" lon="5.29848">
        <ele>195</ele>
        <time>2022-08-16T12:38:35Z</time>
      </trkpt>
      <trkpt lat="46.54892" lon="5.29806">
        <ele>194.8</ele>
        <time>2022-08-16T12:38:41Z</time>
      </trkpt>
      <trkpt lat="46.54918" lon="5.29762">
        <ele>194.8</ele>
        <time>2022-08-16T12:38:46Z</time>
      </trkpt>
      <trkpt lat="46.54942" lon="5.29716">
        <ele>194.6</ele>
        <time>2022-08-16T12:38:51Z</time>
      </trkpt>
      <trkpt lat="46.54945" lon="5.29706">
        <ele>194.4</ele>
        <time>2022-08-16T12:38:52Z</time>
      </trkpt>
      <trkpt lat="46.54948" lon="5.29697">
        <ele>194.4</ele>
        <time>2022-08-16T12:38:53Z</time>
      </trkpt>
      <trkpt lat="46.54956" lon="5.29657">
        <ele>194.4</ele>
        <time>2022-08-16T12:38:57Z</time>
      </trkpt>
      <trkpt lat="46.5496" lon="5.29629">
        <ele>194.6</ele>
        <time>2022-08-16T12:39:00Z</time>
      </trkpt>
      <trkpt lat="46.54965" lon="5.29613">
        <ele>194.8</ele>
        <time>2022-08-16T12:39:02Z</time>
      </trkpt>
      <trkpt lat="46.54974" lon="5.29586">
        <ele>195.6</ele>
        <time>2022-08-16T12:39:06Z</time>
      </trkpt>
      <trkpt lat="46.54977" lon="5.29581">
        <ele>195.6</ele>
        <time>2022-08-16T12:39:07Z</time>
      </trkpt>
      <trkpt lat="46.54987" lon="5.29564">
        <ele>196.2</ele>
        <time>2022-08-16T12:39:10Z</time>
      </trkpt>
      <trkpt lat="46.54997" lon="5.29549">
        <ele>196.6</ele>
        <time>2022-08-16T12:39:13Z</time>
      </trkpt>
      <trkpt lat="46.55" lon="5.29544">
        <ele>196.6</ele>
        <time>2022-08-16T12:39:14Z</time>
      </trkpt>
      <trkpt lat="46.55021" lon="5.29516">
        <ele>197.8</ele>
        <time>2022-08-16T12:39:20Z</time>
      </trkpt>
      <trkpt lat="46.55024" lon="5.29513">
        <ele>198</ele>
        <time>2022-08-16T12:39:21Z</time>
      </trkpt>
      <trkpt lat="46.5504" lon="5.29502">
        <ele>198.8</ele>
        <time>2022-08-16T12:39:25Z</time>
      </trkpt>
      <trkpt lat="46.55044" lon="5.29501">
        <ele>199</ele>
        <time>2022-08-16T12:39:26Z</time>
      </trkpt>
      <trkpt lat="46.55047" lon="5.29499">
        <ele>199.2</ele>
        <time>2022-08-16T12:39:27Z</time>
      </trkpt>
      <trkpt lat="46.55062" lon="5.29499">
        <ele>199.8</ele>
        <time>2022-08-16T12:39:31Z</time>
      </trkpt>
      <trkpt lat="46.55066" lon="5.29499">
        <ele>200</ele>
        <time>2022-08-16T12:39:32Z</time>
      </trkpt>
      <trkpt lat="46.55082" lon="5.29505">
        <ele>201.2</ele>
        <time>2022-08-16T12:39:36Z</time>
      </trkpt>
      <trkpt lat="46.55086" lon="5.29508">
        <ele>201.4</ele>
        <time>2022-08-16T12:39:37Z</time>
      </trkpt>
      <trkpt lat="46.55113" lon="5.2952">
        <ele>202.4</ele>
        <time>2022-08-16T12:39:43Z</time>
      </trkpt>
      <trkpt lat="46.55128" lon="5.29525">
        <ele>202.8</ele>
        <time>2022-08-16T12:39:46Z</time>
      </trkpt>
      <trkpt lat="46.55151" lon="5.29535">
        <ele>203.6</ele>
        <time>2022-08-16T12:39:51Z</time>
      </trkpt>
      <trkpt lat="46.5517" lon="5.29542">
        <ele>203.8</ele>
        <time>2022-08-16T12:39:55Z</time>
      </trkpt>
      <trkpt lat="46.5518" lon="5.29543">
        <ele>204</ele>
        <time>2022-08-16T12:39:57Z</time>
      </trkpt>
      <trkpt lat="46.5519" lon="5.29543">
        <ele>204.4</ele>
        <time>2022-08-16T12:39:59Z</time>
      </trkpt>
      <trkpt lat="46.55195" lon="5.29542">
        <ele>204.4</ele>
        <time>2022-08-16T12:40:00Z</time>
      </trkpt>
      <trkpt lat="46.55204" lon="5.29538">
        <ele>204.6</ele>
        <time>2022-08-16T12:40:02Z</time>
      </trkpt>
      <trkpt lat="46.55225" lon="5.29528">
        <ele>205.4</ele>
        <time>2022-08-16T12:40:07Z</time>
      </trkpt>
      <trkpt lat="46.55232" lon="5.29524">
        <ele>205.8</ele>
        <time>2022-08-16T12:40:09Z</time>
      </trkpt>
      <trkpt lat="46.55257" lon="5.29506">
        <ele>206.6</ele>
        <time>2022-08-16T12:40:15Z</time>
      </trkpt>
      <trkpt lat="46.55266" lon="5.29501">
        <ele>206.8</ele>
        <time>2022-08-16T12:40:17Z</time>
      </trkpt>
      <trkpt lat="46.55279" lon="5.29495">
        <ele>207.2</ele>
        <time>2022-08-16T12:40:21Z</time>
      </trkpt>
      <trkpt lat="46.5528" lon="5.29494">
        <ele>207.2</ele>
        <time>2022-08-16T12:40:22Z</time>
      </trkpt>
      <trkpt lat="46.55282" lon="5.29487">
        <ele>207.2</ele>
        <time>2022-08-16T12:40:24Z</time>
      </trkpt>
      <trkpt lat="46.55281" lon="5.29483">
        <ele>207.2</ele>
        <time>2022-08-16T12:40:25Z</time>
      </trkpt>
      <trkpt lat="46.55272" lon="5.29465">
        <ele>207.2</ele>
        <time>2022-08-16T12:40:29Z</time>
      </trkpt>
      <trkpt lat="46.55261" lon="5.29427">
        <ele>208.2</ele>
        <time>2022-08-16T12:40:36Z</time>
      </trkpt>
      <trkpt lat="46.55255" lon="5.29398">
        <ele>209.2</ele>
        <time>2022-08-16T12:40:41Z</time>
      </trkpt>
      <trkpt lat="46.55253" lon="5.29387">
        <ele>209.8</ele>
        <time>2022-08-16T12:40:43Z</time>
      </trkpt>
      <trkpt lat="46.55251" lon="5.29368">
        <ele>210.2</ele>
        <time>2022-08-16T12:40:46Z</time>
      </trkpt>
      <trkpt lat="46.55252" lon="5.29361">
        <ele>210.4</ele>
        <time>2022-08-16T12:40:47Z</time>
      </trkpt>
      <trkpt lat="46.55252" lon="5.29354">
        <ele>210.6</ele>
        <time>2022-08-16T12:40:48Z</time>
      </trkpt>
      <trkpt lat="46.55254" lon="5.29346">
        <ele>210.6</ele>
        <time>2022-08-16T12:40:49Z</time>
      </trkpt>
      <trkpt lat="46.55263" lon="5.29312">
        <ele>210.8</ele>
        <time>2022-08-16T12:40:53Z</time>
      </trkpt>
      <trkpt lat="46.55281" lon="5.29247">
        <ele>209.4</ele>
        <time>2022-08-16T12:40:59Z</time>
      </trkpt>
      <trkpt lat="46.55288" lon="5.29223">
        <ele>208.6</ele>
        <time>2022-08-16T12:41:01Z</time>
      </trkpt>
      <trkpt lat="46.55293" lon="5.29199">
        <ele>207.8</ele>
        <time>2022-08-16T12:41:03Z</time>
      </trkpt>
      <trkpt lat="46.55297" lon="5.29188">
        <ele>207.4</ele>
        <time>2022-08-16T12:41:04Z</time>
      </trkpt>
      <trkpt lat="46.55303" lon="5.29177">
        <ele>207.2</ele>
        <time>2022-08-16T12:41:05Z</time>
      </trkpt>
      <trkpt lat="46.55314" lon="5.29156">
        <ele>206.6</ele>
        <time>2022-08-16T12:41:07Z</time>
      </trkpt>
      <trkpt lat="46.55318" lon="5.29144">
        <ele>206.4</ele>
        <time>2022-08-16T12:41:08Z</time>
      </trkpt>
      <trkpt lat="46.55323" lon="5.29131">
        <ele>206</ele>
        <time>2022-08-16T12:41:09Z</time>
      </trkpt>
      <trkpt lat="46.55331" lon="5.29106">
        <ele>204.8</ele>
        <time>2022-08-16T12:41:11Z</time>
      </trkpt>
      <trkpt lat="46.55341" lon="5.29071">
        <ele>203.8</ele>
        <time>2022-08-16T12:41:14Z</time>
      </trkpt>
      <trkpt lat="46.55345" lon="5.29055">
        <ele>203</ele>
        <time>2022-08-16T12:41:15Z</time>
      </trkpt>
      <trkpt lat="46.55348" lon="5.29042">
        <ele>202.4</ele>
        <time>2022-08-16T12:41:16Z</time>
      </trkpt>
      <trkpt lat="46.55363" lon="5.28978">
        <ele>201.8</ele>
        <time>2022-08-16T12:41:21Z</time>
      </trkpt>
      <trkpt lat="46.55365" lon="5.28964">
        <ele>201.4</ele>
        <time>2022-08-16T12:41:22Z</time>
      </trkpt>
      <trkpt lat="46.55374" lon="5.28926">
        <ele>200.4</ele>
        <time>2022-08-16T12:41:25Z</time>
      </trkpt>
      <trkpt lat="46.55387" lon="5.28861">
        <ele>199</ele>
        <time>2022-08-16T12:41:30Z</time>
      </trkpt>
      <trkpt lat="46.55393" lon="5.2879">
        <ele>197.6</ele>
        <time>2022-08-16T12:41:35Z</time>
      </trkpt>
      <trkpt lat="46.55395" lon="5.28776">
        <ele>197.4</ele>
        <time>2022-08-16T12:41:36Z</time>
      </trkpt>
      <trkpt lat="46.55402" lon="5.2875">
        <ele>196.4</ele>
        <time>2022-08-16T12:41:38Z</time>
      </trkpt>
      <trkpt lat="46.55406" lon="5.28738">
        <ele>196.2</ele>
        <time>2022-08-16T12:41:39Z</time>
      </trkpt>
      <trkpt lat="46.55428" lon="5.28686">
        <ele>195.6</ele>
        <time>2022-08-16T12:41:44Z</time>
      </trkpt>
      <trkpt lat="46.55456" lon="5.28623">
        <ele>196.6</ele>
        <time>2022-08-16T12:41:51Z</time>
      </trkpt>
      <trkpt lat="46.55476" lon="5.28581">
        <ele>197.8</ele>
        <time>2022-08-16T12:41:56Z</time>
      </trkpt>
      <trkpt lat="46.55488" lon="5.28556">
        <ele>198</ele>
        <time>2022-08-16T12:41:59Z</time>
      </trkpt>
      <trkpt lat="46.55516" lon="5.28495">
        <ele>197.8</ele>
        <time>2022-08-16T12:42:06Z</time>
      </trkpt>
      <trkpt lat="46.5555" lon="5.28428">
        <ele>197.4</ele>
        <time>2022-08-16T12:42:14Z</time>
      </trkpt>
      <trkpt lat="46.55554" lon="5.2842">
        <ele>197.4</ele>
        <time>2022-08-16T12:42:15Z</time>
      </trkpt>
      <trkpt lat="46.55594" lon="5.28361">
        <ele>197.2</ele>
        <time>2022-08-16T12:42:23Z</time>
      </trkpt>
      <trkpt lat="46.55633" lon="5.28328">
        <ele>196.8</ele>
        <time>2022-08-16T12:42:29Z</time>
      </trkpt>
      <trkpt lat="46.55672" lon="5.28295">
        <ele>196.8</ele>
        <time>2022-08-16T12:42:35Z</time>
      </trkpt>
      <trkpt lat="46.55678" lon="5.28287">
        <ele>196.6</ele>
        <time>2022-08-16T12:42:36Z</time>
      </trkpt>
      <trkpt lat="46.55703" lon="5.28253">
        <ele>196.2</ele>
        <time>2022-08-16T12:42:40Z</time>
      </trkpt>
      <trkpt lat="46.55722" lon="5.28227">
        <ele>195.4</ele>
        <time>2022-08-16T12:42:43Z</time>
      </trkpt>
      <trkpt lat="46.55729" lon="5.28219">
        <ele>195.2</ele>
        <time>2022-08-16T12:42:44Z</time>
      </trkpt>
      <trkpt lat="46.55736" lon="5.28213">
        <ele>195</ele>
        <time>2022-08-16T12:42:45Z</time>
      </trkpt>
      <trkpt lat="46.55773" lon="5.28187">
        <ele>194.2</ele>
        <time>2022-08-16T12:42:50Z</time>
      </trkpt>
      <trkpt lat="46.55794" lon="5.28172">
        <ele>194.2</ele>
        <time>2022-08-16T12:42:53Z</time>
      </trkpt>
      <trkpt lat="46.55814" lon="5.2816">
        <ele>194</ele>
        <time>2022-08-16T12:42:56Z</time>
      </trkpt>
      <trkpt lat="46.55829" lon="5.28155">
        <ele>194</ele>
        <time>2022-08-16T12:42:58Z</time>
      </trkpt>
      <trkpt lat="46.5585" lon="5.28151">
        <ele>194</ele>
        <time>2022-08-16T12:43:01Z</time>
      </trkpt>
      <trkpt lat="46.55857" lon="5.28152">
        <ele>194</ele>
        <time>2022-08-16T12:43:02Z</time>
      </trkpt>
      <trkpt lat="46.55865" lon="5.28153">
        <ele>194</ele>
        <time>2022-08-16T12:43:03Z</time>
      </trkpt>
      <trkpt lat="46.55872" lon="5.28156">
        <ele>194</ele>
        <time>2022-08-16T12:43:04Z</time>
      </trkpt>
      <trkpt lat="46.5589" lon="5.28167">
        <ele>194</ele>
        <time>2022-08-16T12:43:07Z</time>
      </trkpt>
      <trkpt lat="46.55898" lon="5.28173">
        <ele>194.2</ele>
        <time>2022-08-16T12:43:08Z</time>
      </trkpt>
      <trkpt lat="46.55911" lon="5.28187">
        <ele>194.4</ele>
        <time>2022-08-16T12:43:10Z</time>
      </trkpt>
      <trkpt lat="46.55916" lon="5.28193">
        <ele>194.6</ele>
        <time>2022-08-16T12:43:11Z</time>
      </trkpt>
      <trkpt lat="46.55929" lon="5.28209">
        <ele>194.4</ele>
        <time>2022-08-16T12:43:13Z</time>
      </trkpt>
      <trkpt lat="46.55944" lon="5.28219">
        <ele>194.4</ele>
        <time>2022-08-16T12:43:15Z</time>
      </trkpt>
      <trkpt lat="46.55981" lon="5.28226">
        <ele>194.2</ele>
        <time>2022-08-16T12:43:20Z</time>
      </trkpt>
      <trkpt lat="46.56037" lon="5.28224">
        <ele>193.8</ele>
        <time>2022-08-16T12:43:27Z</time>
      </trkpt>
      <trkpt lat="46.56083" lon="5.28218">
        <ele>192.2</ele>
        <time>2022-08-16T12:43:33Z</time>
      </trkpt>
      <trkpt lat="46.56142" lon="5.2821">
        <ele>194.4</ele>
        <time>2022-08-16T12:43:42Z</time>
      </trkpt>
      <trkpt lat="46.56148" lon="5.28209">
        <ele>194.6</ele>
        <time>2022-08-16T12:43:43Z</time>
      </trkpt>
      <trkpt lat="46.56154" lon="5.28206">
        <ele>194.6</ele>
        <time>2022-08-16T12:43:44Z</time>
      </trkpt>
      <trkpt lat="46.56165" lon="5.28199">
        <ele>194.6</ele>
        <time>2022-08-16T12:43:46Z</time>
      </trkpt>
      <trkpt lat="46.56169" lon="5.28194">
        <ele>194.6</ele>
        <time>2022-08-16T12:43:47Z</time>
      </trkpt>
      <trkpt lat="46.5618" lon="5.28177">
        <ele>195</ele>
        <time>2022-08-16T12:43:50Z</time>
      </trkpt>
      <trkpt lat="46.56183" lon="5.2817">
        <ele>195.2</ele>
        <time>2022-08-16T12:43:51Z</time>
      </trkpt>
      <trkpt lat="46.56187" lon="5.28157">
        <ele>195.6</ele>
        <time>2022-08-16T12:43:53Z</time>
      </trkpt>
      <trkpt lat="46.562" lon="5.28131">
        <ele>196.4</ele>
        <time>2022-08-16T12:43:57Z</time>
      </trkpt>
      <trkpt lat="46.56206" lon="5.28124">
        <ele>196.4</ele>
        <time>2022-08-16T12:43:58Z</time>
      </trkpt>
      <trkpt lat="46.56215" lon="5.28116">
        <ele>196.6</ele>
        <time>2022-08-16T12:44:00Z</time>
      </trkpt>
      <trkpt lat="46.56251" lon="5.28086">
        <ele>197.6</ele>
        <time>2022-08-16T12:44:07Z</time>
      </trkpt>
      <trkpt lat="46.56269" lon="5.28069">
        <ele>198</ele>
        <time>2022-08-16T12:44:11Z</time>
      </trkpt>
      <trkpt lat="46.56275" lon="5.28059">
        <ele>198.4</ele>
        <time>2022-08-16T12:44:13Z</time>
      </trkpt>
      <trkpt lat="46.56279" lon="5.28052">
        <ele>198.6</ele>
        <time>2022-08-16T12:44:14Z</time>
      </trkpt>
      <trkpt lat="46.56283" lon="5.28045">
        <ele>198.8</ele>
        <time>2022-08-16T12:44:15Z</time>
      </trkpt>
      <trkpt lat="46.56295" lon="5.28022">
        <ele>199</ele>
        <time>2022-08-16T12:44:18Z</time>
      </trkpt>
      <trkpt lat="46.56332" lon="5.27966">
        <ele>198.6</ele>
        <time>2022-08-16T12:44:25Z</time>
      </trkpt>
      <trkpt lat="46.56351" lon="5.27943">
        <ele>197.8</ele>
        <time>2022-08-16T12:44:28Z</time>
      </trkpt>
      <trkpt lat="46.56369" lon="5.27924">
        <ele>197.2</ele>
        <time>2022-08-16T12:44:31Z</time>
      </trkpt>
      <trkpt lat="46.56399" lon="5.27899">
        <ele>196.6</ele>
        <time>2022-08-16T12:44:35Z</time>
      </trkpt>
      <trkpt lat="46.56421" lon="5.27879">
        <ele>196</ele>
        <time>2022-08-16T12:44:38Z</time>
      </trkpt>
      <trkpt lat="46.56442" lon="5.27859">
        <ele>195.4</ele>
        <time>2022-08-16T12:44:41Z</time>
      </trkpt>
      <trkpt lat="46.56488" lon="5.27818">
        <ele>194.8</ele>
        <time>2022-08-16T12:44:47Z</time>
      </trkpt>
      <trkpt lat="46.56529" lon="5.27787">
        <ele>194.2</ele>
        <time>2022-08-16T12:44:52Z</time>
      </trkpt>
      <trkpt lat="46.56546" lon="5.27777">
        <ele>193.2</ele>
        <time>2022-08-16T12:44:54Z</time>
      </trkpt>
      <trkpt lat="46.56561" lon="5.27768">
        <ele>192.6</ele>
        <time>2022-08-16T12:44:56Z</time>
      </trkpt>
      <trkpt lat="46.56603" lon="5.2774">
        <ele>192.4</ele>
        <time>2022-08-16T12:45:02Z</time>
      </trkpt>
      <trkpt lat="46.56614" lon="5.27726">
        <ele>192.6</ele>
        <time>2022-08-16T12:45:04Z</time>
      </trkpt>
      <trkpt lat="46.56622" lon="5.27711">
        <ele>192.8</ele>
        <time>2022-08-16T12:45:06Z</time>
      </trkpt>
      <trkpt lat="46.56639" lon="5.27674">
        <ele>194</ele>
        <time>2022-08-16T12:45:11Z</time>
      </trkpt>
      <trkpt lat="46.56641" lon="5.27667">
        <ele>194</ele>
        <time>2022-08-16T12:45:12Z</time>
      </trkpt>
      <trkpt lat="46.56643" lon="5.27659">
        <ele>194.2</ele>
        <time>2022-08-16T12:45:13Z</time>
      </trkpt>
      <trkpt lat="46.56653" lon="5.27616">
        <ele>195</ele>
        <time>2022-08-16T12:45:19Z</time>
      </trkpt>
      <trkpt lat="46.56665" lon="5.27571">
        <ele>195.6</ele>
        <time>2022-08-16T12:45:26Z</time>
      </trkpt>
      <trkpt lat="46.56667" lon="5.27566">
        <ele>195.8</ele>
        <time>2022-08-16T12:45:27Z</time>
      </trkpt>
      <trkpt lat="46.56675" lon="5.27539">
        <ele>196.6</ele>
        <time>2022-08-16T12:45:32Z</time>
      </trkpt>
      <trkpt lat="46.5668" lon="5.27523">
        <ele>197.2</ele>
        <time>2022-08-16T12:45:35Z</time>
      </trkpt>
      <trkpt lat="46.56687" lon="5.275">
        <ele>197.8</ele>
        <time>2022-08-16T12:45:40Z</time>
      </trkpt>
      <trkpt lat="46.56692" lon="5.27484">
        <ele>198.4</ele>
        <time>2022-08-16T12:45:43Z</time>
      </trkpt>
      <trkpt lat="46.56695" lon="5.27474">
        <ele>199</ele>
        <time>2022-08-16T12:45:45Z</time>
      </trkpt>
      <trkpt lat="46.56699" lon="5.27464">
        <ele>200</ele>
        <time>2022-08-16T12:45:47Z</time>
      </trkpt>
      <trkpt lat="46.56702" lon="5.27456">
        <ele>200.8</ele>
        <time>2022-08-16T12:45:49Z</time>
      </trkpt>
      <trkpt lat="46.56704" lon="5.27448">
        <ele>201.4</ele>
        <time>2022-08-16T12:45:51Z</time>
      </trkpt>
      <trkpt lat="46.5671" lon="5.2743">
        <ele>202.4</ele>
        <time>2022-08-16T12:45:55Z</time>
      </trkpt>
      <trkpt lat="46.56712" lon="5.27421">
        <ele>203.2</ele>
        <time>2022-08-16T12:45:57Z</time>
      </trkpt>
      <trkpt lat="46.56713" lon="5.27418">
        <ele>203.6</ele>
        <time>2022-08-16T12:45:58Z</time>
      </trkpt>
      <trkpt lat="46.56716" lon="5.27408">
        <ele>204.2</ele>
        <time>2022-08-16T12:46:00Z</time>
      </trkpt>
      <trkpt lat="46.56717" lon="5.27403">
        <ele>204.6</ele>
        <time>2022-08-16T12:46:01Z</time>
      </trkpt>
      <trkpt lat="46.56718" lon="5.27399">
        <ele>204.8</ele>
        <time>2022-08-16T12:46:02Z</time>
      </trkpt>
      <trkpt lat="46.56722" lon="5.27377">
        <ele>206</ele>
        <time>2022-08-16T12:46:06Z</time>
      </trkpt>
      <trkpt lat="46.56728" lon="5.27344">
        <ele>207.4</ele>
        <time>2022-08-16T12:46:12Z</time>
      </trkpt>
      <trkpt lat="46.56729" lon="5.27339">
        <ele>207.8</ele>
        <time>2022-08-16T12:46:13Z</time>
      </trkpt>
      <trkpt lat="46.56733" lon="5.27319">
        <ele>208.6</ele>
        <time>2022-08-16T12:46:17Z</time>
      </trkpt>
      <trkpt lat="46.56736" lon="5.27305">
        <ele>209.4</ele>
        <time>2022-08-16T12:46:20Z</time>
      </trkpt>
      <trkpt lat="46.56739" lon="5.27286">
        <ele>209.6</ele>
        <time>2022-08-16T12:46:23Z</time>
      </trkpt>
      <trkpt lat="46.56741" lon="5.27274">
        <ele>210</ele>
        <time>2022-08-16T12:46:25Z</time>
      </trkpt>
      <trkpt lat="46.56751" lon="5.27223">
        <ele>210</ele>
        <time>2022-08-16T12:46:31Z</time>
      </trkpt>
      <trkpt lat="46.5676" lon="5.27187">
        <ele>209.6</ele>
        <time>2022-08-16T12:46:35Z</time>
      </trkpt>
      <trkpt lat="46.56767" lon="5.27169">
        <ele>209.4</ele>
        <time>2022-08-16T12:46:37Z</time>
      </trkpt>
      <trkpt lat="46.56777" lon="5.27143">
        <ele>208.8</ele>
        <time>2022-08-16T12:46:40Z</time>
      </trkpt>
      <trkpt lat="46.56784" lon="5.27127">
        <ele>208.6</ele>
        <time>2022-08-16T12:46:42Z</time>
      </trkpt>
      <trkpt lat="46.56789" lon="5.27116">
        <ele>208.4</ele>
        <time>2022-08-16T12:46:43Z</time>
      </trkpt>
      <trkpt lat="46.56796" lon="5.27098">
        <ele>207.6</ele>
        <time>2022-08-16T12:46:45Z</time>
      </trkpt>
      <trkpt lat="46.56807" lon="5.27072">
        <ele>206.4</ele>
        <time>2022-08-16T12:46:48Z</time>
      </trkpt>
      <trkpt lat="46.56811" lon="5.27063">
        <ele>206</ele>
        <time>2022-08-16T12:46:49Z</time>
      </trkpt>
      <trkpt lat="46.56839" lon="5.26994">
        <ele>205.8</ele>
        <time>2022-08-16T12:46:57Z</time>
      </trkpt>
      <trkpt lat="46.56861" lon="5.26938">
        <ele>206.2</ele>
        <time>2022-08-16T12:47:04Z</time>
      </trkpt>
      <trkpt lat="46.56881" lon="5.26894">
        <ele>206.4</ele>
        <time>2022-08-16T12:47:10Z</time>
      </trkpt>
      <trkpt lat="46.56904" lon="5.26845">
        <ele>207.2</ele>
        <time>2022-08-16T12:47:17Z</time>
      </trkpt>
      <trkpt lat="46.56917" lon="5.26809">
        <ele>208.4</ele>
        <time>2022-08-16T12:47:22Z</time>
      </trkpt>
      <trkpt lat="46.56921" lon="5.268">
        <ele>208.6</ele>
        <time>2022-08-16T12:47:23Z</time>
      </trkpt>
      <trkpt lat="46.56925" lon="5.26785">
        <ele>209</ele>
        <time>2022-08-16T12:47:25Z</time>
      </trkpt>
      <trkpt lat="46.56935" lon="5.26751">
        <ele>209.4</ele>
        <time>2022-08-16T12:47:29Z</time>
      </trkpt>
      <trkpt lat="46.56941" lon="5.26724">
        <ele>209.8</ele>
        <time>2022-08-16T12:47:32Z</time>
      </trkpt>
      <trkpt lat="46.56946" lon="5.26703">
        <ele>210</ele>
        <time>2022-08-16T12:47:34Z</time>
      </trkpt>
      <trkpt lat="46.56953" lon="5.26684">
        <ele>209.8</ele>
        <time>2022-08-16T12:47:36Z</time>
      </trkpt>
      <trkpt lat="46.56958" lon="5.26672">
        <ele>209.6</ele>
        <time>2022-08-16T12:47:37Z</time>
      </trkpt>
      <trkpt lat="46.56976" lon="5.26642">
        <ele>208.4</ele>
        <time>2022-08-16T12:47:40Z</time>
      </trkpt>
      <trkpt lat="46.56996" lon="5.26611">
        <ele>207.2</ele>
        <time>2022-08-16T12:47:43Z</time>
      </trkpt>
      <trkpt lat="46.57013" lon="5.2658">
        <ele>206.4</ele>
        <time>2022-08-16T12:47:46Z</time>
      </trkpt>
      <trkpt lat="46.57019" lon="5.26566">
        <ele>205.2</ele>
        <time>2022-08-16T12:47:47Z</time>
      </trkpt>
      <trkpt lat="46.57041" lon="5.26521">
        <ele>203.8</ele>
        <time>2022-08-16T12:47:51Z</time>
      </trkpt>
      <trkpt lat="46.57046" lon="5.26509">
        <ele>203.6</ele>
        <time>2022-08-16T12:47:52Z</time>
      </trkpt>
      <trkpt lat="46.57055" lon="5.26486">
        <ele>203</ele>
        <time>2022-08-16T12:47:54Z</time>
      </trkpt>
      <trkpt lat="46.57068" lon="5.26456">
        <ele>201.6</ele>
        <time>2022-08-16T12:47:57Z</time>
      </trkpt>
      <trkpt lat="46.57077" lon="5.26433">
        <ele>201.4</ele>
        <time>2022-08-16T12:47:59Z</time>
      </trkpt>
      <trkpt lat="46.57086" lon="5.26413">
        <ele>200.6</ele>
        <time>2022-08-16T12:48:01Z</time>
      </trkpt>
      <trkpt lat="46.571" lon="5.26389">
        <ele>200.2</ele>
        <time>2022-08-16T12:48:04Z</time>
      </trkpt>
      <trkpt lat="46.57123" lon="5.26356">
        <ele>200.6</ele>
        <time>2022-08-16T12:48:09Z</time>
      </trkpt>
      <trkpt lat="46.57127" lon="5.26352">
        <ele>201</ele>
        <time>2022-08-16T12:48:10Z</time>
      </trkpt>
      <trkpt lat="46.57135" lon="5.26344">
        <ele>202</ele>
        <time>2022-08-16T12:48:12Z</time>
      </trkpt>
      <trkpt lat="46.57144" lon="5.26336">
        <ele>202.4</ele>
        <time>2022-08-16T12:48:14Z</time>
      </trkpt>
      <trkpt lat="46.57147" lon="5.26333">
        <ele>202.8</ele>
        <time>2022-08-16T12:48:15Z</time>
      </trkpt>
      <trkpt lat="46.57151" lon="5.2633">
        <ele>203.2</ele>
        <time>2022-08-16T12:48:16Z</time>
      </trkpt>
      <trkpt lat="46.57155" lon="5.26326">
        <ele>203.6</ele>
        <time>2022-08-16T12:48:17Z</time>
      </trkpt>
      <trkpt lat="46.57159" lon="5.26321">
        <ele>203.8</ele>
        <time>2022-08-16T12:48:18Z</time>
      </trkpt>
      <trkpt lat="46.57165" lon="5.26315">
        <ele>204.2</ele>
        <time>2022-08-16T12:48:20Z</time>
      </trkpt>
      <trkpt lat="46.57169" lon="5.2631">
        <ele>204.4</ele>
        <time>2022-08-16T12:48:21Z</time>
      </trkpt>
      <trkpt lat="46.57175" lon="5.26303">
        <ele>205.2</ele>
        <time>2022-08-16T12:48:23Z</time>
      </trkpt>
      <trkpt lat="46.57179" lon="5.26299">
        <ele>205.4</ele>
        <time>2022-08-16T12:48:24Z</time>
      </trkpt>
      <trkpt lat="46.572" lon="5.26278">
        <ele>206.4</ele>
        <time>2022-08-16T12:48:30Z</time>
      </trkpt>
      <trkpt lat="46.57204" lon="5.26275">
        <ele>206.6</ele>
        <time>2022-08-16T12:48:31Z</time>
      </trkpt>
      <trkpt lat="46.5722" lon="5.26257">
        <ele>207.8</ele>
        <time>2022-08-16T12:48:36Z</time>
      </trkpt>
      <trkpt lat="46.57223" lon="5.26254">
        <ele>208.2</ele>
        <time>2022-08-16T12:48:37Z</time>
      </trkpt>
      <trkpt lat="46.57232" lon="5.26241">
        <ele>208.8</ele>
        <time>2022-08-16T12:48:40Z</time>
      </trkpt>
      <trkpt lat="46.57242" lon="5.26229">
        <ele>209.4</ele>
        <time>2022-08-16T12:48:43Z</time>
      </trkpt>
      <trkpt lat="46.57252" lon="5.26218">
        <ele>210.2</ele>
        <time>2022-08-16T12:48:46Z</time>
      </trkpt>
      <trkpt lat="46.57275" lon="5.26195">
        <ele>211.2</ele>
        <time>2022-08-16T12:48:52Z</time>
      </trkpt>
      <trkpt lat="46.57305" lon="5.26163">
        <ele>212.2</ele>
        <time>2022-08-16T12:48:59Z</time>
      </trkpt>
      <trkpt lat="46.57342" lon="5.26123">
        <ele>212.6</ele>
        <time>2022-08-16T12:49:07Z</time>
      </trkpt>
      <trkpt lat="46.57375" lon="5.26087">
        <ele>213</ele>
        <time>2022-08-16T12:49:14Z</time>
      </trkpt>
      <trkpt lat="46.57385" lon="5.26076">
        <ele>213.2</ele>
        <time>2022-08-16T12:49:16Z</time>
      </trkpt>
      <trkpt lat="46.5742" lon="5.2604">
        <ele>214</ele>
        <time>2022-08-16T12:49:23Z</time>
      </trkpt>
      <trkpt lat="46.57456" lon="5.25997">
        <ele>212.2</ele>
        <time>2022-08-16T12:49:30Z</time>
      </trkpt>
      <trkpt lat="46.57461" lon="5.25988">
        <ele>212.2</ele>
        <time>2022-08-16T12:49:31Z</time>
      </trkpt>
      <trkpt lat="46.57469" lon="5.25967">
        <ele>211.8</ele>
        <time>2022-08-16T12:49:33Z</time>
      </trkpt>
      <trkpt lat="46.57472" lon="5.25957">
        <ele>211.6</ele>
        <time>2022-08-16T12:49:34Z</time>
      </trkpt>
      <trkpt lat="46.57475" lon="5.25944">
        <ele>211.2</ele>
        <time>2022-08-16T12:49:35Z</time>
      </trkpt>
      <trkpt lat="46.57485" lon="5.25887">
        <ele>209.8</ele>
        <time>2022-08-16T12:49:39Z</time>
      </trkpt>
      <trkpt lat="46.57492" lon="5.25845">
        <ele>208.8</ele>
        <time>2022-08-16T12:49:42Z</time>
      </trkpt>
      <trkpt lat="46.575" lon="5.25805">
        <ele>208</ele>
        <time>2022-08-16T12:49:45Z</time>
      </trkpt>
      <trkpt lat="46.57503" lon="5.25793">
        <ele>207.2</ele>
        <time>2022-08-16T12:49:46Z</time>
      </trkpt>
      <trkpt lat="46.57515" lon="5.25757">
        <ele>206.8</ele>
        <time>2022-08-16T12:49:49Z</time>
      </trkpt>
      <trkpt lat="46.57527" lon="5.25723">
        <ele>206.2</ele>
        <time>2022-08-16T12:49:52Z</time>
      </trkpt>
      <trkpt lat="46.5755" lon="5.25659">
        <ele>205.8</ele>
        <time>2022-08-16T12:49:58Z</time>
      </trkpt>
      <trkpt lat="46.57558" lon="5.2564">
        <ele>205.4</ele>
        <time>2022-08-16T12:50:00Z</time>
      </trkpt>
      <trkpt lat="46.57578" lon="5.25587">
        <ele>205.2</ele>
        <time>2022-08-16T12:50:06Z</time>
      </trkpt>
      <trkpt lat="46.5758" lon="5.2557">
        <ele>204.8</ele>
        <time>2022-08-16T12:50:08Z</time>
      </trkpt>
      <trkpt lat="46.5758" lon="5.2556">
        <ele>204.8</ele>
        <time>2022-08-16T12:50:09Z</time>
      </trkpt>
      <trkpt lat="46.57579" lon="5.2555">
        <ele>204.8</ele>
        <time>2022-08-16T12:50:10Z</time>
      </trkpt>
      <trkpt lat="46.57576" lon="5.25487">
        <ele>203.4</ele>
        <time>2022-08-16T12:50:15Z</time>
      </trkpt>
      <trkpt lat="46.57574" lon="5.25456">
        <ele>202</ele>
        <time>2022-08-16T12:50:17Z</time>
      </trkpt>
      <trkpt lat="46.57571" lon="5.25425">
        <ele>200.6</ele>
        <time>2022-08-16T12:50:19Z</time>
      </trkpt>
      <trkpt lat="46.57571" lon="5.25408">
        <ele>200</ele>
        <time>2022-08-16T12:50:20Z</time>
      </trkpt>
      <trkpt lat="46.5757" lon="5.25375">
        <ele>199.2</ele>
        <time>2022-08-16T12:50:22Z</time>
      </trkpt>
      <trkpt lat="46.57577" lon="5.25343">
        <ele>197.8</ele>
        <time>2022-08-16T12:50:24Z</time>
      </trkpt>
      <trkpt lat="46.57591" lon="5.25322">
        <ele>196.4</ele>
        <time>2022-08-16T12:50:26Z</time>
      </trkpt>
      <trkpt lat="46.57618" lon="5.253">
        <ele>195.4</ele>
        <time>2022-08-16T12:50:29Z</time>
      </trkpt>
      <trkpt lat="46.57645" lon="5.25278">
        <ele>194.8</ele>
        <time>2022-08-16T12:50:32Z</time>
      </trkpt>
      <trkpt lat="46.57661" lon="5.25265">
        <ele>194.4</ele>
        <time>2022-08-16T12:50:34Z</time>
      </trkpt>
      <trkpt lat="46.57706" lon="5.25226">
        <ele>193.4</ele>
        <time>2022-08-16T12:50:39Z</time>
      </trkpt>
      <trkpt lat="46.57715" lon="5.25219">
        <ele>193.2</ele>
        <time>2022-08-16T12:50:40Z</time>
      </trkpt>
      <trkpt lat="46.57748" lon="5.25192">
        <ele>192.2</ele>
        <time>2022-08-16T12:50:44Z</time>
      </trkpt>
      <trkpt lat="46.57789" lon="5.25159">
        <ele>191.6</ele>
        <time>2022-08-16T12:50:49Z</time>
      </trkpt>
      <trkpt lat="46.57832" lon="5.25134">
        <ele>191.2</ele>
        <time>2022-08-16T12:50:54Z</time>
      </trkpt>
      <trkpt lat="46.57857" lon="5.25131">
        <ele>191.2</ele>
        <time>2022-08-16T12:50:57Z</time>
      </trkpt>
      <trkpt lat="46.57865" lon="5.25132">
        <ele>191.2</ele>
        <time>2022-08-16T12:50:58Z</time>
      </trkpt>
      <trkpt lat="46.57921" lon="5.2514">
        <ele>191.6</ele>
        <time>2022-08-16T12:51:05Z</time>
      </trkpt>
      <trkpt lat="46.57949" lon="5.25145">
        <ele>191.8</ele>
        <time>2022-08-16T12:51:09Z</time>
      </trkpt>
      <trkpt lat="46.57961" lon="5.25143">
        <ele>192</ele>
        <time>2022-08-16T12:51:11Z</time>
      </trkpt>
      <trkpt lat="46.57967" lon="5.25138">
        <ele>192.2</ele>
        <time>2022-08-16T12:51:12Z</time>
      </trkpt>
      <trkpt lat="46.5797" lon="5.25133">
        <ele>192.4</ele>
        <time>2022-08-16T12:51:13Z</time>
      </trkpt>
      <trkpt lat="46.57974" lon="5.25118">
        <ele>192.6</ele>
        <time>2022-08-16T12:51:15Z</time>
      </trkpt>
      <trkpt lat="46.57975" lon="5.25105">
        <ele>193</ele>
        <time>2022-08-16T12:51:17Z</time>
      </trkpt>
      <trkpt lat="46.57971" lon="5.25095">
        <ele>193.2</ele>
        <time>2022-08-16T12:51:19Z</time>
      </trkpt>
      <trkpt lat="46.57967" lon="5.25091">
        <ele>193.4</ele>
        <time>2022-08-16T12:51:20Z</time>
      </trkpt>
      <trkpt lat="46.57962" lon="5.25091">
        <ele>193.4</ele>
        <time>2022-08-16T12:51:21Z</time>
      </trkpt>
      <trkpt lat="46.57957" lon="5.25091">
        <ele>193.4</ele>
        <time>2022-08-16T12:51:22Z</time>
      </trkpt>
      <trkpt lat="46.57919" lon="5.25094">
        <ele>194.2</ele>
        <time>2022-08-16T12:51:29Z</time>
      </trkpt>
      <trkpt lat="46.57897" lon="5.25095">
        <ele>194.4</ele>
        <time>2022-08-16T12:51:33Z</time>
      </trkpt>
      <trkpt lat="46.57873" lon="5.25095">
        <ele>195</ele>
        <time>2022-08-16T12:51:37Z</time>
      </trkpt>
      <trkpt lat="46.57862" lon="5.25095">
        <ele>195.4</ele>
        <time>2022-08-16T12:51:39Z</time>
      </trkpt>
      <trkpt lat="46.57835" lon="5.25095">
        <ele>196.6</ele>
        <time>2022-08-16T12:51:44Z</time>
      </trkpt>
      <trkpt lat="46.5782" lon="5.25094">
        <ele>197.2</ele>
        <time>2022-08-16T12:51:47Z</time>
      </trkpt>
      <trkpt lat="46.57799" lon="5.25094">
        <ele>197.6</ele>
        <time>2022-08-16T12:51:51Z</time>
      </trkpt>
      <trkpt lat="46.57761" lon="5.25092">
        <ele>198.6</ele>
        <time>2022-08-16T12:51:58Z</time>
      </trkpt>
      <trkpt lat="46.57726" lon="5.25091">
        <ele>198.8</ele>
        <time>2022-08-16T12:52:04Z</time>
      </trkpt>
      <trkpt lat="46.57683" lon="5.25098">
        <ele>198.6</ele>
        <time>2022-08-16T12:52:10Z</time>
      </trkpt>
      <trkpt lat="46.57641" lon="5.25123">
        <ele>197.6</ele>
        <time>2022-08-16T12:52:16Z</time>
      </trkpt>
      <trkpt lat="46.57615" lon="5.25135">
        <ele>196.6</ele>
        <time>2022-08-16T12:52:19Z</time>
      </trkpt>
      <trkpt lat="46.57607" lon="5.25137">
        <ele>196.6</ele>
        <time>2022-08-16T12:52:20Z</time>
      </trkpt>
      <trkpt lat="46.5757" lon="5.25134">
        <ele>195.8</ele>
        <time>2022-08-16T12:52:24Z</time>
      </trkpt>
      <trkpt lat="46.57554" lon="5.25127">
        <ele>195.4</ele>
        <time>2022-08-16T12:52:26Z</time>
      </trkpt>
      <trkpt lat="46.57544" lon="5.25121">
        <ele>194.8</ele>
        <time>2022-08-16T12:52:27Z</time>
      </trkpt>
      <trkpt lat="46.57535" lon="5.25113">
        <ele>194.4</ele>
        <time>2022-08-16T12:52:28Z</time>
      </trkpt>
      <trkpt lat="46.57528" lon="5.25105">
        <ele>194</ele>
        <time>2022-08-16T12:52:29Z</time>
      </trkpt>
      <trkpt lat="46.57507" lon="5.25075">
        <ele>193</ele>
        <time>2022-08-16T12:52:32Z</time>
      </trkpt>
      <trkpt lat="46.57481" lon="5.2502">
        <ele>192.2</ele>
        <time>2022-08-16T12:52:37Z</time>
      </trkpt>
      <trkpt lat="46.57472" lon="5.24999">
        <ele>192</ele>
        <time>2022-08-16T12:52:39Z</time>
      </trkpt>
      <trkpt lat="46.57451" lon="5.24949">
        <ele>191.6</ele>
        <time>2022-08-16T12:52:44Z</time>
      </trkpt>
      <trkpt lat="46.5742" lon="5.24884">
        <ele>191.2</ele>
        <time>2022-08-16T12:52:51Z</time>
      </trkpt>
      <trkpt lat="46.57393" lon="5.24821">
        <ele>191.2</ele>
        <time>2022-08-16T12:52:58Z</time>
      </trkpt>
      <trkpt lat="46.57386" lon="5.24805">
        <ele>191.2</ele>
        <time>2022-08-16T12:53:00Z</time>
      </trkpt>
      <trkpt lat="46.57377" lon="5.24787">
        <ele>191</ele>
        <time>2022-08-16T12:53:02Z</time>
      </trkpt>
      <trkpt lat="46.57367" lon="5.24774">
        <ele>190.8</ele>
        <time>2022-08-16T12:53:04Z</time>
      </trkpt>
      <trkpt lat="46.57321" lon="5.24732">
        <ele>190.4</ele>
        <time>2022-08-16T12:53:12Z</time>
      </trkpt>
      <trkpt lat="46.5731" lon="5.2472">
        <ele>190.4</ele>
        <time>2022-08-16T12:53:14Z</time>
      </trkpt>
      <trkpt lat="46.57301" lon="5.24702">
        <ele>190.4</ele>
        <time>2022-08-16T12:53:16Z</time>
      </trkpt>
      <trkpt lat="46.57295" lon="5.24683">
        <ele>190.2</ele>
        <time>2022-08-16T12:53:18Z</time>
      </trkpt>
      <trkpt lat="46.57288" lon="5.24664">
        <ele>190</ele>
        <time>2022-08-16T12:53:20Z</time>
      </trkpt>
      <trkpt lat="46.57284" lon="5.24657">
        <ele>190</ele>
        <time>2022-08-16T12:53:21Z</time>
      </trkpt>
      <trkpt lat="46.57279" lon="5.24651">
        <ele>190</ele>
        <time>2022-08-16T12:53:22Z</time>
      </trkpt>
      <trkpt lat="46.57263" lon="5.24646">
        <ele>190</ele>
        <time>2022-08-16T12:53:24Z</time>
      </trkpt>
      <trkpt lat="46.57235" lon="5.24657">
        <ele>190</ele>
        <time>2022-08-16T12:53:28Z</time>
      </trkpt>
      <trkpt lat="46.57196" lon="5.24672">
        <ele>190.2</ele>
        <time>2022-08-16T12:53:34Z</time>
      </trkpt>
      <trkpt lat="46.57153" lon="5.24687">
        <ele>190.8</ele>
        <time>2022-08-16T12:53:41Z</time>
      </trkpt>
      <trkpt lat="46.57125" lon="5.2469">
        <ele>191.2</ele>
        <time>2022-08-16T12:53:46Z</time>
      </trkpt>
      <trkpt lat="46.57114" lon="5.24688">
        <ele>191.4</ele>
        <time>2022-08-16T12:53:48Z</time>
      </trkpt>
      <trkpt lat="46.57098" lon="5.24682">
        <ele>191.8</ele>
        <time>2022-08-16T12:53:51Z</time>
      </trkpt>
      <trkpt lat="46.57073" lon="5.24674">
        <ele>192.4</ele>
        <time>2022-08-16T12:53:56Z</time>
      </trkpt>
      <trkpt lat="46.57057" lon="5.24668">
        <ele>192.8</ele>
        <time>2022-08-16T12:53:59Z</time>
      </trkpt>
      <trkpt lat="46.57027" lon="5.24658">
        <ele>193.8</ele>
        <time>2022-08-16T12:54:05Z</time>
      </trkpt>
      <trkpt lat="46.57002" lon="5.24649">
        <ele>194.6</ele>
        <time>2022-08-16T12:54:10Z</time>
      </trkpt>
      <trkpt lat="46.56983" lon="5.24642">
        <ele>194.8</ele>
        <time>2022-08-16T12:54:14Z</time>
      </trkpt>
      <trkpt lat="46.56963" lon="5.24635">
        <ele>195.4</ele>
        <time>2022-08-16T12:54:18Z</time>
      </trkpt>
      <trkpt lat="46.5695" lon="5.2463">
        <ele>196</ele>
        <time>2022-08-16T12:54:21Z</time>
      </trkpt>
      <trkpt lat="46.56945" lon="5.24629">
        <ele>196.2</ele>
        <time>2022-08-16T12:54:22Z</time>
      </trkpt>
      <trkpt lat="46.56911" lon="5.24617">
        <ele>197.2</ele>
        <time>2022-08-16T12:54:29Z</time>
      </trkpt>
      <trkpt lat="46.56896" lon="5.24612">
        <ele>197.6</ele>
        <time>2022-08-16T12:54:32Z</time>
      </trkpt>
      <trkpt lat="46.56872" lon="5.24603">
        <ele>198.2</ele>
        <time>2022-08-16T12:54:37Z</time>
      </trkpt>
      <trkpt lat="46.56841" lon="5.24592">
        <ele>199</ele>
        <time>2022-08-16T12:54:43Z</time>
      </trkpt>
      <trkpt lat="46.56826" lon="5.24586">
        <ele>199.2</ele>
        <time>2022-08-16T12:54:46Z</time>
      </trkpt>
      <trkpt lat="46.56784" lon="5.24571">
        <ele>199.6</ele>
        <time>2022-08-16T12:54:54Z</time>
      </trkpt>
      <trkpt lat="46.56748" lon="5.24558">
        <ele>200.4</ele>
        <time>2022-08-16T12:55:01Z</time>
      </trkpt>
      <trkpt lat="46.56743" lon="5.24557">
        <ele>200.6</ele>
        <time>2022-08-16T12:55:02Z</time>
      </trkpt>
      <trkpt lat="46.5671" lon="5.24546">
        <ele>201.2</ele>
        <time>2022-08-16T12:55:09Z</time>
      </trkpt>
      <trkpt lat="46.56701" lon="5.24543">
        <ele>201.4</ele>
        <time>2022-08-16T12:55:11Z</time>
      </trkpt>
      <trkpt lat="46.56676" lon="5.24534">
        <ele>202.2</ele>
        <time>2022-08-16T12:55:17Z</time>
      </trkpt>
      <trkpt lat="46.56672" lon="5.24533">
        <ele>202.4</ele>
        <time>2022-08-16T12:55:18Z</time>
      </trkpt>
      <trkpt lat="46.56646" lon="5.24524">
        <ele>203.6</ele>
        <time>2022-08-16T12:55:24Z</time>
      </trkpt>
      <trkpt lat="46.56638" lon="5.24521">
        <ele>204</ele>
        <time>2022-08-16T12:55:26Z</time>
      </trkpt>
      <trkpt lat="46.56622" lon="5.24516">
        <ele>204.6</ele>
        <time>2022-08-16T12:55:30Z</time>
      </trkpt>
      <trkpt lat="46.566" lon="5.24508">
        <ele>205.6</ele>
        <time>2022-08-16T12:55:35Z</time>
      </trkpt>
      <trkpt lat="46.56572" lon="5.24499">
        <ele>206.8</ele>
        <time>2022-08-16T12:55:41Z</time>
      </trkpt>
      <trkpt lat="46.56551" lon="5.24491">
        <ele>207.4</ele>
        <time>2022-08-16T12:55:45Z</time>
      </trkpt>
      <trkpt lat="46.56536" lon="5.24486">
        <ele>208</ele>
        <time>2022-08-16T12:55:48Z</time>
      </trkpt>
      <trkpt lat="46.56515" lon="5.24479">
        <ele>208.4</ele>
        <time>2022-08-16T12:55:52Z</time>
      </trkpt>
      <trkpt lat="46.56471" lon="5.24463">
        <ele>209</ele>
        <time>2022-08-16T12:56:01Z</time>
      </trkpt>
      <trkpt lat="46.56461" lon="5.24459">
        <ele>209.4</ele>
        <time>2022-08-16T12:56:03Z</time>
      </trkpt>
      <trkpt lat="46.56423" lon="5.24446">
        <ele>210.2</ele>
        <time>2022-08-16T12:56:11Z</time>
      </trkpt>
      <trkpt lat="46.56404" lon="5.2444">
        <ele>210.6</ele>
        <time>2022-08-16T12:56:15Z</time>
      </trkpt>
      <trkpt lat="46.56374" lon="5.24429">
        <ele>211.4</ele>
        <time>2022-08-16T12:56:21Z</time>
      </trkpt>
      <trkpt lat="46.56355" lon="5.24422">
        <ele>211.8</ele>
        <time>2022-08-16T12:56:25Z</time>
      </trkpt>
      <trkpt lat="46.5634" lon="5.24418">
        <ele>212.6</ele>
        <time>2022-08-16T12:56:28Z</time>
      </trkpt>
      <trkpt lat="46.56304" lon="5.24406">
        <ele>213.2</ele>
        <time>2022-08-16T12:56:35Z</time>
      </trkpt>
      <trkpt lat="46.5627" lon="5.24394">
        <ele>213.6</ele>
        <time>2022-08-16T12:56:41Z</time>
      </trkpt>
      <trkpt lat="46.56253" lon="5.24388">
        <ele>214</ele>
        <time>2022-08-16T12:56:44Z</time>
      </trkpt>
      <trkpt lat="46.56231" lon="5.24381">
        <ele>214.6</ele>
        <time>2022-08-16T12:56:48Z</time>
      </trkpt>
      <trkpt lat="46.56192" lon="5.24367">
        <ele>215.6</ele>
        <time>2022-08-16T12:56:55Z</time>
      </trkpt>
      <trkpt lat="46.56147" lon="5.24352">
        <ele>215.4</ele>
        <time>2022-08-16T12:57:03Z</time>
      </trkpt>
      <trkpt lat="46.5609" lon="5.24332">
        <ele>215.4</ele>
        <time>2022-08-16T12:57:13Z</time>
      </trkpt>
      <trkpt lat="46.56085" lon="5.2433">
        <ele>215.2</ele>
        <time>2022-08-16T12:57:14Z</time>
      </trkpt>
      <trkpt lat="46.56035" lon="5.24313">
        <ele>214.6</ele>
        <time>2022-08-16T12:57:23Z</time>
      </trkpt>
      <trkpt lat="46.55977" lon="5.24298">
        <ele>214</ele>
        <time>2022-08-16T12:57:33Z</time>
      </trkpt>
      <trkpt lat="46.55965" lon="5.24293">
        <ele>213.8</ele>
        <time>2022-08-16T12:57:35Z</time>
      </trkpt>
      <trkpt lat="46.55959" lon="5.24286">
        <ele>213.8</ele>
        <time>2022-08-16T12:57:36Z</time>
      </trkpt>
      <trkpt lat="46.55956" lon="5.24277">
        <ele>213.8</ele>
        <time>2022-08-16T12:57:37Z</time>
      </trkpt>
      <trkpt lat="46.55954" lon="5.24256">
        <ele>213.6</ele>
        <time>2022-08-16T12:57:39Z</time>
      </trkpt>
      <trkpt lat="46.5595" lon="5.24213">
        <ele>212.8</ele>
        <time>2022-08-16T12:57:43Z</time>
      </trkpt>
      <trkpt lat="46.55946" lon="5.24193">
        <ele>212.6</ele>
        <time>2022-08-16T12:57:45Z</time>
      </trkpt>
      <trkpt lat="46.55934" lon="5.24146">
        <ele>213.4</ele>
        <time>2022-08-16T12:57:50Z</time>
      </trkpt>
      <trkpt lat="46.55923" lon="5.2411">
        <ele>214</ele>
        <time>2022-08-16T12:57:54Z</time>
      </trkpt>
      <trkpt lat="46.5592" lon="5.24101">
        <ele>214</ele>
        <time>2022-08-16T12:57:55Z</time>
      </trkpt>
      <trkpt lat="46.55899" lon="5.2403">
        <ele>214.4</ele>
        <time>2022-08-16T12:58:03Z</time>
      </trkpt>
      <trkpt lat="46.55886" lon="5.23985">
        <ele>214.4</ele>
        <time>2022-08-16T12:58:09Z</time>
      </trkpt>
      <trkpt lat="46.55883" lon="5.23976">
        <ele>214.4</ele>
        <time>2022-08-16T12:58:12Z</time>
      </trkpt>
      <trkpt lat="46.55883" lon="5.23976">
        <ele>214.4</ele>
        <time>2022-08-16T12:58:14Z</time>
      </trkpt>
      <trkpt lat="46.55879" lon="5.23968">
        <ele>213.6</ele>
        <time>2022-08-16T12:59:07Z</time>
      </trkpt>
      <trkpt lat="46.55872" lon="5.23952">
        <ele>213.6</ele>
        <time>2022-08-16T12:59:10Z</time>
      </trkpt>
      <trkpt lat="46.55868" lon="5.23946">
        <ele>213.6</ele>
        <time>2022-08-16T12:59:11Z</time>
      </trkpt>
      <trkpt lat="46.55863" lon="5.2394">
        <ele>213.6</ele>
        <time>2022-08-16T12:59:12Z</time>
      </trkpt>
      <trkpt lat="46.55851" lon="5.23927">
        <ele>213.4</ele>
        <time>2022-08-16T12:59:14Z</time>
      </trkpt>
      <trkpt lat="46.55844" lon="5.23921">
        <ele>213.4</ele>
        <time>2022-08-16T12:59:15Z</time>
      </trkpt>
      <trkpt lat="46.55803" lon="5.23891">
        <ele>213.8</ele>
        <time>2022-08-16T12:59:21Z</time>
      </trkpt>
      <trkpt lat="46.5576" lon="5.23856">
        <ele>214</ele>
        <time>2022-08-16T12:59:28Z</time>
      </trkpt>
      <trkpt lat="46.5571" lon="5.23823">
        <ele>214</ele>
        <time>2022-08-16T12:59:36Z</time>
      </trkpt>
      <trkpt lat="46.5569" lon="5.2382">
        <ele>214</ele>
        <time>2022-08-16T12:59:39Z</time>
      </trkpt>
      <trkpt lat="46.55676" lon="5.23818">
        <ele>214</ele>
        <time>2022-08-16T12:59:41Z</time>
      </trkpt>
      <trkpt lat="46.55641" lon="5.23817">
        <ele>213.8</ele>
        <time>2022-08-16T12:59:46Z</time>
      </trkpt>
      <trkpt lat="46.55593" lon="5.23818">
        <ele>212.4</ele>
        <time>2022-08-16T12:59:51Z</time>
      </trkpt>
      <trkpt lat="46.55583" lon="5.23817">
        <ele>212.2</ele>
        <time>2022-08-16T12:59:52Z</time>
      </trkpt>
      <trkpt lat="46.55562" lon="5.23813">
        <ele>211</ele>
        <time>2022-08-16T12:59:54Z</time>
      </trkpt>
      <trkpt lat="46.55542" lon="5.23807">
        <ele>209.8</ele>
        <time>2022-08-16T12:59:56Z</time>
      </trkpt>
      <trkpt lat="46.55514" lon="5.23793">
        <ele>208.4</ele>
        <time>2022-08-16T12:59:59Z</time>
      </trkpt>
      <trkpt lat="46.55501" lon="5.23786">
        <ele>207.4</ele>
        <time>2022-08-16T13:00:00Z</time>
      </trkpt>
      <trkpt lat="46.55492" lon="5.23779">
        <ele>207</ele>
        <time>2022-08-16T13:00:01Z</time>
      </trkpt>
      <trkpt lat="46.55482" lon="5.23772">
        <ele>206.2</ele>
        <time>2022-08-16T13:00:02Z</time>
      </trkpt>
      <trkpt lat="46.55462" lon="5.23758">
        <ele>205.2</ele>
        <time>2022-08-16T13:00:04Z</time>
      </trkpt>
      <trkpt lat="46.55442" lon="5.23745">
        <ele>204</ele>
        <time>2022-08-16T13:00:06Z</time>
      </trkpt>
      <trkpt lat="46.55425" lon="5.23733">
        <ele>203</ele>
        <time>2022-08-16T13:00:08Z</time>
      </trkpt>
      <trkpt lat="46.55404" lon="5.23718">
        <ele>202</ele>
        <time>2022-08-16T13:00:10Z</time>
      </trkpt>
      <trkpt lat="46.55377" lon="5.237">
        <ele>200.8</ele>
        <time>2022-08-16T13:00:13Z</time>
      </trkpt>
      <trkpt lat="46.5536" lon="5.23689">
        <ele>200.2</ele>
        <time>2022-08-16T13:00:15Z</time>
      </trkpt>
      <trkpt lat="46.55352" lon="5.23683">
        <ele>199.8</ele>
        <time>2022-08-16T13:00:16Z</time>
      </trkpt>
      <trkpt lat="46.55323" lon="5.2366">
        <ele>199.2</ele>
        <time>2022-08-16T13:00:20Z</time>
      </trkpt>
      <trkpt lat="46.55272" lon="5.2362">
        <ele>199.4</ele>
        <time>2022-08-16T13:00:27Z</time>
      </trkpt>
      <trkpt lat="46.5526" lon="5.2361">
        <ele>199.4</ele>
        <time>2022-08-16T13:00:29Z</time>
      </trkpt>
      <trkpt lat="46.55213" lon="5.2357">
        <ele>199.8</ele>
        <time>2022-08-16T13:00:36Z</time>
      </trkpt>
      <trkpt lat="46.55206" lon="5.23565">
        <ele>199.8</ele>
        <time>2022-08-16T13:00:37Z</time>
      </trkpt>
      <trkpt lat="46.55155" lon="5.23523">
        <ele>200</ele>
        <time>2022-08-16T13:00:45Z</time>
      </trkpt>
      <trkpt lat="46.55129" lon="5.23501">
        <ele>199.6</ele>
        <time>2022-08-16T13:00:49Z</time>
      </trkpt>
      <trkpt lat="46.55088" lon="5.23457">
        <ele>199.6</ele>
        <time>2022-08-16T13:00:56Z</time>
      </trkpt>
      <trkpt lat="46.55042" lon="5.23398">
        <ele>199.4</ele>
        <time>2022-08-16T13:01:04Z</time>
      </trkpt>
      <trkpt lat="46.55033" lon="5.23379">
        <ele>199.2</ele>
        <time>2022-08-16T13:01:06Z</time>
      </trkpt>
      <trkpt lat="46.55025" lon="5.23358">
        <ele>199</ele>
        <time>2022-08-16T13:01:08Z</time>
      </trkpt>
      <trkpt lat="46.55015" lon="5.23327">
        <ele>198.6</ele>
        <time>2022-08-16T13:01:11Z</time>
      </trkpt>
      <trkpt lat="46.55001" lon="5.2328">
        <ele>198.6</ele>
        <time>2022-08-16T13:01:16Z</time>
      </trkpt>
      <trkpt lat="46.54985" lon="5.23231">
        <ele>199.4</ele>
        <time>2022-08-16T13:01:22Z</time>
      </trkpt>
      <trkpt lat="46.54981" lon="5.23222">
        <ele>199.6</ele>
        <time>2022-08-16T13:01:23Z</time>
      </trkpt>
      <trkpt lat="46.54978" lon="5.23217">
        <ele>199.8</ele>
        <time>2022-08-16T13:01:24Z</time>
      </trkpt>
      <trkpt lat="46.54966" lon="5.23199">
        <ele>200.2</ele>
        <time>2022-08-16T13:01:27Z</time>
      </trkpt>
      <trkpt lat="46.54959" lon="5.23189">
        <ele>200.6</ele>
        <time>2022-08-16T13:01:29Z</time>
      </trkpt>
      <trkpt lat="46.54956" lon="5.23186">
        <ele>200.8</ele>
        <time>2022-08-16T13:01:30Z</time>
      </trkpt>
      <trkpt lat="46.54952" lon="5.23182">
        <ele>201</ele>
        <time>2022-08-16T13:01:31Z</time>
      </trkpt>
      <trkpt lat="46.54941" lon="5.23172">
        <ele>202</ele>
        <time>2022-08-16T13:01:34Z</time>
      </trkpt>
      <trkpt lat="46.54923" lon="5.23155">
        <ele>203</ele>
        <time>2022-08-16T13:01:39Z</time>
      </trkpt>
      <trkpt lat="46.54907" lon="5.23139">
        <ele>204.2</ele>
        <time>2022-08-16T13:01:44Z</time>
      </trkpt>
      <trkpt lat="46.54894" lon="5.23126">
        <ele>204.8</ele>
        <time>2022-08-16T13:01:48Z</time>
      </trkpt>
      <trkpt lat="46.54885" lon="5.23117">
        <ele>205.2</ele>
        <time>2022-08-16T13:01:51Z</time>
      </trkpt>
      <trkpt lat="46.54869" lon="5.23101">
        <ele>206.6</ele>
        <time>2022-08-16T13:01:56Z</time>
      </trkpt>
      <trkpt lat="46.54866" lon="5.23099">
        <ele>206.6</ele>
        <time>2022-08-16T13:01:57Z</time>
      </trkpt>
      <trkpt lat="46.5485" lon="5.23083">
        <ele>207.6</ele>
        <time>2022-08-16T13:02:02Z</time>
      </trkpt>
      <trkpt lat="46.54829" lon="5.23063">
        <ele>208.6</ele>
        <time>2022-08-16T13:02:08Z</time>
      </trkpt>
      <trkpt lat="46.54809" lon="5.23043">
        <ele>209.8</ele>
        <time>2022-08-16T13:02:14Z</time>
      </trkpt>
      <trkpt lat="46.54796" lon="5.23031">
        <ele>210.2</ele>
        <time>2022-08-16T13:02:17Z</time>
      </trkpt>
      <trkpt lat="46.54769" lon="5.23005">
        <ele>210.6</ele>
        <time>2022-08-16T13:02:23Z</time>
      </trkpt>
      <trkpt lat="46.54725" lon="5.22961">
        <ele>210.6</ele>
        <time>2022-08-16T13:02:32Z</time>
      </trkpt>
      <trkpt lat="46.54719" lon="5.22955">
        <ele>210.8</ele>
        <time>2022-08-16T13:02:33Z</time>
      </trkpt>
      <trkpt lat="46.54687" lon="5.22932">
        <ele>211.4</ele>
        <time>2022-08-16T13:02:39Z</time>
      </trkpt>
      <trkpt lat="46.54642" lon="5.2291">
        <ele>211.6</ele>
        <time>2022-08-16T13:02:47Z</time>
      </trkpt>
      <trkpt lat="46.54637" lon="5.22907">
        <ele>211.6</ele>
        <time>2022-08-16T13:02:48Z</time>
      </trkpt>
      <trkpt lat="46.54621" lon="5.22899">
        <ele>212</ele>
        <time>2022-08-16T13:02:51Z</time>
      </trkpt>
      <trkpt lat="46.546" lon="5.22887">
        <ele>212.2</ele>
        <time>2022-08-16T13:02:55Z</time>
      </trkpt>
      <trkpt lat="46.54547" lon="5.22858">
        <ele>212.6</ele>
        <time>2022-08-16T13:03:05Z</time>
      </trkpt>
      <trkpt lat="46.54526" lon="5.22842">
        <ele>212.6</ele>
        <time>2022-08-16T13:03:09Z</time>
      </trkpt>
      <trkpt lat="46.54521" lon="5.22836">
        <ele>212.6</ele>
        <time>2022-08-16T13:03:10Z</time>
      </trkpt>
      <trkpt lat="46.54517" lon="5.22829">
        <ele>212.6</ele>
        <time>2022-08-16T13:03:11Z</time>
      </trkpt>
      <trkpt lat="46.545" lon="5.22797">
        <ele>212.8</ele>
        <time>2022-08-16T13:03:15Z</time>
      </trkpt>
      <trkpt lat="46.54481" lon="5.22759">
        <ele>213</ele>
        <time>2022-08-16T13:03:20Z</time>
      </trkpt>
      <trkpt lat="46.54457" lon="5.22718">
        <ele>213.6</ele>
        <time>2022-08-16T13:03:26Z</time>
      </trkpt>
      <trkpt lat="46.54421" lon="5.22678">
        <ele>213.6</ele>
        <time>2022-08-16T13:03:33Z</time>
      </trkpt>
      <trkpt lat="46.54374" lon="5.22632">
        <ele>212.6</ele>
        <time>2022-08-16T13:03:41Z</time>
      </trkpt>
      <trkpt lat="46.54368" lon="5.22626">
        <ele>212.6</ele>
        <time>2022-08-16T13:03:42Z</time>
      </trkpt>
      <trkpt lat="46.54327" lon="5.22586">
        <ele>212.2</ele>
        <time>2022-08-16T13:03:50Z</time>
      </trkpt>
      <trkpt lat="46.54282" lon="5.2254">
        <ele>212.2</ele>
        <time>2022-08-16T13:03:59Z</time>
      </trkpt>
      <trkpt lat="46.54278" lon="5.22533">
        <ele>212</ele>
        <time>2022-08-16T13:04:00Z</time>
      </trkpt>
      <trkpt lat="46.54274" lon="5.22525">
        <ele>212</ele>
        <time>2022-08-16T13:04:01Z</time>
      </trkpt>
      <trkpt lat="46.54271" lon="5.22516">
        <ele>212</ele>
        <time>2022-08-16T13:04:02Z</time>
      </trkpt>
      <trkpt lat="46.54267" lon="5.22497">
        <ele>211.8</ele>
        <time>2022-08-16T13:04:04Z</time>
      </trkpt>
      <trkpt lat="46.54268" lon="5.22444">
        <ele>211.6</ele>
        <time>2022-08-16T13:04:09Z</time>
      </trkpt>
      <trkpt lat="46.54271" lon="5.22384">
        <ele>211.4</ele>
        <time>2022-08-16T13:04:14Z</time>
      </trkpt>
      <trkpt lat="46.54272" lon="5.22359">
        <ele>211</ele>
        <time>2022-08-16T13:04:16Z</time>
      </trkpt>
      <trkpt lat="46.54274" lon="5.2229">
        <ele>209.6</ele>
        <time>2022-08-16T13:04:21Z</time>
      </trkpt>
      <trkpt lat="46.54275" lon="5.22248">
        <ele>208</ele>
        <time>2022-08-16T13:04:24Z</time>
      </trkpt>
      <trkpt lat="46.54278" lon="5.22198">
        <ele>206.8</ele>
        <time>2022-08-16T13:04:28Z</time>
      </trkpt>
      <trkpt lat="46.54276" lon="5.22134">
        <ele>206</ele>
        <time>2022-08-16T13:04:33Z</time>
      </trkpt>
      <trkpt lat="46.54267" lon="5.221">
        <ele>205.8</ele>
        <time>2022-08-16T13:04:36Z</time>
      </trkpt>
      <trkpt lat="46.54263" lon="5.2209">
        <ele>205.8</ele>
        <time>2022-08-16T13:04:37Z</time>
      </trkpt>
      <trkpt lat="46.54243" lon="5.22047">
        <ele>206</ele>
        <time>2022-08-16T13:04:42Z</time>
      </trkpt>
      <trkpt lat="46.5423" lon="5.22018">
        <ele>206.2</ele>
        <time>2022-08-16T13:04:46Z</time>
      </trkpt>
      <trkpt lat="46.54226" lon="5.22011">
        <ele>206.6</ele>
        <time>2022-08-16T13:04:47Z</time>
      </trkpt>
      <trkpt lat="46.54219" lon="5.21997">
        <ele>207</ele>
        <time>2022-08-16T13:04:49Z</time>
      </trkpt>
      <trkpt lat="46.54201" lon="5.21961">
        <ele>207.6</ele>
        <time>2022-08-16T13:04:54Z</time>
      </trkpt>
      <trkpt lat="46.54198" lon="5.21953">
        <ele>207.8</ele>
        <time>2022-08-16T13:04:55Z</time>
      </trkpt>
      <trkpt lat="46.54192" lon="5.21939">
        <ele>208</ele>
        <time>2022-08-16T13:04:57Z</time>
      </trkpt>
      <trkpt lat="46.54185" lon="5.21924">
        <ele>208.2</ele>
        <time>2022-08-16T13:04:59Z</time>
      </trkpt>
      <trkpt lat="46.54179" lon="5.21909">
        <ele>208.4</ele>
        <time>2022-08-16T13:05:01Z</time>
      </trkpt>
      <trkpt lat="46.54172" lon="5.2189">
        <ele>208.6</ele>
        <time>2022-08-16T13:05:04Z</time>
      </trkpt>
      <trkpt lat="46.54168" lon="5.21883">
        <ele>208.6</ele>
        <time>2022-08-16T13:05:05Z</time>
      </trkpt>
      <trkpt lat="46.54166" lon="5.21876">
        <ele>208.8</ele>
        <time>2022-08-16T13:05:06Z</time>
      </trkpt>
      <trkpt lat="46.54157" lon="5.21849">
        <ele>209.4</ele>
        <time>2022-08-16T13:05:10Z</time>
      </trkpt>
      <trkpt lat="46.54155" lon="5.21842">
        <ele>209.6</ele>
        <time>2022-08-16T13:05:11Z</time>
      </trkpt>
      <trkpt lat="46.54151" lon="5.21827">
        <ele>210</ele>
        <time>2022-08-16T13:05:13Z</time>
      </trkpt>
      <trkpt lat="46.54144" lon="5.21802">
        <ele>210.4</ele>
        <time>2022-08-16T13:05:16Z</time>
      </trkpt>
      <trkpt lat="46.54125" lon="5.21737">
        <ele>210.4</ele>
        <time>2022-08-16T13:05:23Z</time>
      </trkpt>
      <trkpt lat="46.54106" lon="5.21682">
        <ele>210.2</ele>
        <time>2022-08-16T13:05:29Z</time>
      </trkpt>
      <trkpt lat="46.54081" lon="5.21648">
        <ele>209.8</ele>
        <time>2022-08-16T13:05:34Z</time>
      </trkpt>
      <trkpt lat="46.54035" lon="5.21603">
        <ele>209</ele>
        <time>2022-08-16T13:05:42Z</time>
      </trkpt>
      <trkpt lat="46.54029" lon="5.21598">
        <ele>208.8</ele>
        <time>2022-08-16T13:05:43Z</time>
      </trkpt>
      <trkpt lat="46.54024" lon="5.21592">
        <ele>208.8</ele>
        <time>2022-08-16T13:05:44Z</time>
      </trkpt>
      <trkpt lat="46.54013" lon="5.21581">
        <ele>208.8</ele>
        <time>2022-08-16T13:05:46Z</time>
      </trkpt>
      <trkpt lat="46.53997" lon="5.21566">
        <ele>208.8</ele>
        <time>2022-08-16T13:05:49Z</time>
      </trkpt>
      <trkpt lat="46.53952" lon="5.21522">
        <ele>209.6</ele>
        <time>2022-08-16T13:05:58Z</time>
      </trkpt>
      <trkpt lat="46.53933" lon="5.21503">
        <ele>210</ele>
        <time>2022-08-16T13:06:02Z</time>
      </trkpt>
      <trkpt lat="46.53915" lon="5.21482">
        <ele>210.6</ele>
        <time>2022-08-16T13:06:06Z</time>
      </trkpt>
      <trkpt lat="46.53879" lon="5.21429">
        <ele>210.6</ele>
        <time>2022-08-16T13:06:14Z</time>
      </trkpt>
      <trkpt lat="46.53846" lon="5.21376">
        <ele>210.6</ele>
        <time>2022-08-16T13:06:22Z</time>
      </trkpt>
      <trkpt lat="46.53819" lon="5.21333">
        <ele>211</ele>
        <time>2022-08-16T13:06:29Z</time>
      </trkpt>
      <trkpt lat="46.53815" lon="5.21327">
        <ele>211.2</ele>
        <time>2022-08-16T13:06:30Z</time>
      </trkpt>
      <trkpt lat="46.53808" lon="5.21314">
        <ele>211.2</ele>
        <time>2022-08-16T13:06:32Z</time>
      </trkpt>
      <trkpt lat="46.53793" lon="5.2129">
        <ele>211.8</ele>
        <time>2022-08-16T13:06:36Z</time>
      </trkpt>
      <trkpt lat="46.5377" lon="5.21254">
        <ele>212.2</ele>
        <time>2022-08-16T13:06:42Z</time>
      </trkpt>
      <trkpt lat="46.53765" lon="5.21249">
        <ele>212.2</ele>
        <time>2022-08-16T13:06:43Z</time>
      </trkpt>
      <trkpt lat="46.53728" lon="5.21202">
        <ele>212.6</ele>
        <time>2022-08-16T13:06:51Z</time>
      </trkpt>
      <trkpt lat="46.537" lon="5.2117">
        <ele>212.6</ele>
        <time>2022-08-16T13:06:56Z</time>
      </trkpt>
      <trkpt lat="46.53653" lon="5.21123">
        <ele>211.8</ele>
        <time>2022-08-16T13:07:04Z</time>
      </trkpt>
      <trkpt lat="46.53629" lon="5.21101">
        <ele>211.8</ele>
        <time>2022-08-16T13:07:08Z</time>
      </trkpt>
      <trkpt lat="46.53619" lon="5.21087">
        <ele>211.6</ele>
        <time>2022-08-16T13:07:10Z</time>
      </trkpt>
      <trkpt lat="46.53596" lon="5.2104">
        <ele>211</ele>
        <time>2022-08-16T13:07:16Z</time>
      </trkpt>
      <trkpt lat="46.53593" lon="5.21031">
        <ele>210.8</ele>
        <time>2022-08-16T13:07:17Z</time>
      </trkpt>
      <trkpt lat="46.53589" lon="5.21012">
        <ele>210.6</ele>
        <time>2022-08-16T13:07:19Z</time>
      </trkpt>
      <trkpt lat="46.53589" lon="5.21002">
        <ele>210.6</ele>
        <time>2022-08-16T13:07:20Z</time>
      </trkpt>
      <trkpt lat="46.53592" lon="5.20944">
        <ele>210.4</ele>
        <time>2022-08-16T13:07:26Z</time>
      </trkpt>
      <trkpt lat="46.53591" lon="5.20934">
        <ele>210.6</ele>
        <time>2022-08-16T13:07:27Z</time>
      </trkpt>
      <trkpt lat="46.53588" lon="5.20906">
        <ele>210.8</ele>
        <time>2022-08-16T13:07:30Z</time>
      </trkpt>
      <trkpt lat="46.53583" lon="5.20879">
        <ele>210.8</ele>
        <time>2022-08-16T13:07:33Z</time>
      </trkpt>
      <trkpt lat="46.53574" lon="5.2084">
        <ele>210.8</ele>
        <time>2022-08-16T13:07:37Z</time>
      </trkpt>
      <trkpt lat="46.53565" lon="5.20824">
        <ele>210.8</ele>
        <time>2022-08-16T13:07:39Z</time>
      </trkpt>
      <trkpt lat="46.53548" lon="5.20807">
        <ele>210.4</ele>
        <time>2022-08-16T13:07:42Z</time>
      </trkpt>
      <trkpt lat="46.53542" lon="5.20802">
        <ele>210.4</ele>
        <time>2022-08-16T13:07:43Z</time>
      </trkpt>
      <trkpt lat="46.53517" lon="5.20785">
        <ele>210.2</ele>
        <time>2022-08-16T13:07:47Z</time>
      </trkpt>
      <trkpt lat="46.53511" lon="5.2078">
        <ele>210</ele>
        <time>2022-08-16T13:07:48Z</time>
      </trkpt>
      <trkpt lat="46.53499" lon="5.20769">
        <ele>209.6</ele>
        <time>2022-08-16T13:07:50Z</time>
      </trkpt>
      <trkpt lat="46.53463" lon="5.20727">
        <ele>209.4</ele>
        <time>2022-08-16T13:07:56Z</time>
      </trkpt>
      <trkpt lat="46.53438" lon="5.20698">
        <ele>208.8</ele>
        <time>2022-08-16T13:08:00Z</time>
      </trkpt>
      <trkpt lat="46.5341" lon="5.20665">
        <ele>208.2</ele>
        <time>2022-08-16T13:08:05Z</time>
      </trkpt>
      <trkpt lat="46.53407" lon="5.20647">
        <ele>207.8</ele>
        <time>2022-08-16T13:08:07Z</time>
      </trkpt>
      <trkpt lat="46.53411" lon="5.20631">
        <ele>207.6</ele>
        <time>2022-08-16T13:08:09Z</time>
      </trkpt>
      <trkpt lat="46.53417" lon="5.2062">
        <ele>207.4</ele>
        <time>2022-08-16T13:08:10Z</time>
      </trkpt>
      <trkpt lat="46.53439" lon="5.20588">
        <ele>206.6</ele>
        <time>2022-08-16T13:08:14Z</time>
      </trkpt>
      <trkpt lat="46.53452" lon="5.20572">
        <ele>206.4</ele>
        <time>2022-08-16T13:08:16Z</time>
      </trkpt>
      <trkpt lat="46.53491" lon="5.20519">
        <ele>205.8</ele>
        <time>2022-08-16T13:08:22Z</time>
      </trkpt>
      <trkpt lat="46.53514" lon="5.20491">
        <ele>205.6</ele>
        <time>2022-08-16T13:08:25Z</time>
      </trkpt>
      <trkpt lat="46.53536" lon="5.20461">
        <ele>204.6</ele>
        <time>2022-08-16T13:08:28Z</time>
      </trkpt>
      <trkpt lat="46.5355" lon="5.20442">
        <ele>204</ele>
        <time>2022-08-16T13:08:30Z</time>
      </trkpt>
      <trkpt lat="46.53582" lon="5.20399">
        <ele>203.4</ele>
        <time>2022-08-16T13:08:35Z</time>
      </trkpt>
      <trkpt lat="46.53595" lon="5.20381">
        <ele>203.4</ele>
        <time>2022-08-16T13:08:37Z</time>
      </trkpt>
      <trkpt lat="46.53631" lon="5.2033">
        <ele>204</ele>
        <time>2022-08-16T13:08:44Z</time>
      </trkpt>
      <trkpt lat="46.53654" lon="5.20289">
        <ele>204.8</ele>
        <time>2022-08-16T13:08:48Z</time>
      </trkpt>
      <trkpt lat="46.53657" lon="5.20283">
        <ele>205.4</ele>
        <time>2022-08-16T13:08:50Z</time>
      </trkpt>
      <trkpt lat="46.53667" lon="5.20266">
        <ele>206</ele>
        <time>2022-08-16T13:08:52Z</time>
      </trkpt>
      <trkpt lat="46.53689" lon="5.2023">
        <ele>207</ele>
        <time>2022-08-16T13:08:57Z</time>
      </trkpt>
      <trkpt lat="46.53693" lon="5.20223">
        <ele>207.4</ele>
        <time>2022-08-16T13:08:58Z</time>
      </trkpt>
      <trkpt lat="46.53705" lon="5.20203">
        <ele>208</ele>
        <time>2022-08-16T13:09:01Z</time>
      </trkpt>
      <trkpt lat="46.53722" lon="5.20173">
        <ele>208.4</ele>
        <time>2022-08-16T13:09:05Z</time>
      </trkpt>
      <trkpt lat="46.53761" lon="5.20108">
        <ele>208.8</ele>
        <time>2022-08-16T13:09:14Z</time>
      </trkpt>
      <trkpt lat="46.538" lon="5.20047">
        <ele>208.8</ele>
        <time>2022-08-16T13:09:23Z</time>
      </trkpt>
      <trkpt lat="46.53806" lon="5.20038">
        <ele>208.8</ele>
        <time>2022-08-16T13:09:24Z</time>
      </trkpt>
      <trkpt lat="46.53843" lon="5.19984">
        <ele>208.6</ele>
        <time>2022-08-16T13:09:30Z</time>
      </trkpt>
      <trkpt lat="46.53874" lon="5.19939">
        <ele>207</ele>
        <time>2022-08-16T13:09:36Z</time>
      </trkpt>
      <trkpt lat="46.53894" lon="5.1991">
        <ele>205.6</ele>
        <time>2022-08-16T13:09:39Z</time>
      </trkpt>
      <trkpt lat="46.53923" lon="5.19869">
        <ele>204.6</ele>
        <time>2022-08-16T13:09:42Z</time>
      </trkpt>
      <trkpt lat="46.53935" lon="5.19847">
        <ele>203.2</ele>
        <time>2022-08-16T13:09:44Z</time>
      </trkpt>
      <trkpt lat="46.53946" lon="5.19823">
        <ele>202.4</ele>
        <time>2022-08-16T13:09:47Z</time>
      </trkpt>
      <trkpt lat="46.53956" lon="5.19798">
        <ele>202</ele>
        <time>2022-08-16T13:09:48Z</time>
      </trkpt>
      <trkpt lat="46.53965" lon="5.19774">
        <ele>201</ele>
        <time>2022-08-16T13:09:50Z</time>
      </trkpt>
      <trkpt lat="46.53991" lon="5.19705">
        <ele>200.6</ele>
        <time>2022-08-16T13:09:56Z</time>
      </trkpt>
      <trkpt lat="46.54014" lon="5.19645">
        <ele>200.6</ele>
        <time>2022-08-16T13:10:02Z</time>
      </trkpt>
      <trkpt lat="46.54037" lon="5.1959">
        <ele>200.6</ele>
        <time>2022-08-16T13:10:08Z</time>
      </trkpt>
      <trkpt lat="46.54054" lon="5.19569">
        <ele>200.8</ele>
        <time>2022-08-16T13:10:11Z</time>
      </trkpt>
      <trkpt lat="46.54067" lon="5.19558">
        <ele>201</ele>
        <time>2022-08-16T13:10:13Z</time>
      </trkpt>
      <trkpt lat="46.54115" lon="5.1953">
        <ele>201.2</ele>
        <time>2022-08-16T13:10:20Z</time>
      </trkpt>
      <trkpt lat="46.54128" lon="5.19526">
        <ele>201.2</ele>
        <time>2022-08-16T13:10:22Z</time>
      </trkpt>
      <trkpt lat="46.54165" lon="5.19518">
        <ele>201.2</ele>
        <time>2022-08-16T13:10:27Z</time>
      </trkpt>
      <trkpt lat="46.54225" lon="5.19503">
        <ele>201.6</ele>
        <time>2022-08-16T13:10:35Z</time>
      </trkpt>
      <trkpt lat="46.54285" lon="5.1949">
        <ele>201.6</ele>
        <time>2022-08-16T13:10:43Z</time>
      </trkpt>
      <trkpt lat="46.54291" lon="5.19488">
        <ele>201.6</ele>
        <time>2022-08-16T13:10:44Z</time>
      </trkpt>
      <trkpt lat="46.54348" lon="5.19475">
        <ele>201.4</ele>
        <time>2022-08-16T13:10:51Z</time>
      </trkpt>
      <trkpt lat="46.54363" lon="5.19472">
        <ele>201.4</ele>
        <time>2022-08-16T13:10:53Z</time>
      </trkpt>
      <trkpt lat="46.54398" lon="5.19458">
        <ele>201</ele>
        <time>2022-08-16T13:10:57Z</time>
      </trkpt>
      <trkpt lat="46.54407" lon="5.19452">
        <ele>200.6</ele>
        <time>2022-08-16T13:10:58Z</time>
      </trkpt>
      <trkpt lat="46.54416" lon="5.19443">
        <ele>200.4</ele>
        <time>2022-08-16T13:10:59Z</time>
      </trkpt>
      <trkpt lat="46.54422" lon="5.19436">
        <ele>200</ele>
        <time>2022-08-16T13:11:00Z</time>
      </trkpt>
      <trkpt lat="46.54429" lon="5.19423">
        <ele>199.8</ele>
        <time>2022-08-16T13:11:01Z</time>
      </trkpt>
      <trkpt lat="46.54441" lon="5.19389">
        <ele>199.4</ele>
        <time>2022-08-16T13:11:04Z</time>
      </trkpt>
      <trkpt lat="46.54445" lon="5.19373">
        <ele>199.4</ele>
        <time>2022-08-16T13:11:05Z</time>
      </trkpt>
      <trkpt lat="46.5445" lon="5.19334">
        <ele>199.2</ele>
        <time>2022-08-16T13:11:08Z</time>
      </trkpt>
      <trkpt lat="46.5445" lon="5.19321">
        <ele>199.2</ele>
        <time>2022-08-16T13:11:09Z</time>
      </trkpt>
      <trkpt lat="46.54446" lon="5.19262">
        <ele>199.4</ele>
        <time>2022-08-16T13:11:14Z</time>
      </trkpt>
      <trkpt lat="46.54436" lon="5.19197">
        <ele>200</ele>
        <time>2022-08-16T13:11:20Z</time>
      </trkpt>
      <trkpt lat="46.54432" lon="5.19128">
        <ele>201.2</ele>
        <time>2022-08-16T13:11:27Z</time>
      </trkpt>
      <trkpt lat="46.54431" lon="5.19079">
        <ele>202.4</ele>
        <time>2022-08-16T13:11:32Z</time>
      </trkpt>
      <trkpt lat="46.5443" lon="5.19012">
        <ele>202.6</ele>
        <time>2022-08-16T13:11:39Z</time>
      </trkpt>
      <trkpt lat="46.54434" lon="5.18938">
        <ele>202.6</ele>
        <time>2022-08-16T13:11:47Z</time>
      </trkpt>
      <trkpt lat="46.54441" lon="5.18886">
        <ele>203.4</ele>
        <time>2022-08-16T13:11:53Z</time>
      </trkpt>
      <trkpt lat="46.54443" lon="5.18877">
        <ele>203.6</ele>
        <time>2022-08-16T13:11:54Z</time>
      </trkpt>
      <trkpt lat="46.54454" lon="5.18823">
        <ele>204</ele>
        <time>2022-08-16T13:12:00Z</time>
      </trkpt>
      <trkpt lat="46.54473" lon="5.18743">
        <ele>204.4</ele>
        <time>2022-08-16T13:12:09Z</time>
      </trkpt>
      <trkpt lat="46.54475" lon="5.18734">
        <ele>204.4</ele>
        <time>2022-08-16T13:12:10Z</time>
      </trkpt>
      <trkpt lat="46.54486" lon="5.18698">
        <ele>204.4</ele>
        <time>2022-08-16T13:12:14Z</time>
      </trkpt>
      <trkpt lat="46.54495" lon="5.18682">
        <ele>204.2</ele>
        <time>2022-08-16T13:12:16Z</time>
      </trkpt>
      <trkpt lat="46.545" lon="5.18675">
        <ele>204</ele>
        <time>2022-08-16T13:12:17Z</time>
      </trkpt>
      <trkpt lat="46.54517" lon="5.18657">
        <ele>203.8</ele>
        <time>2022-08-16T13:12:20Z</time>
      </trkpt>
      <trkpt lat="46.54564" lon="5.18616">
        <ele>202.8</ele>
        <time>2022-08-16T13:12:26Z</time>
      </trkpt>
      <trkpt lat="46.54579" lon="5.18602">
        <ele>202.4</ele>
        <time>2022-08-16T13:12:28Z</time>
      </trkpt>
      <trkpt lat="46.54609" lon="5.18575">
        <ele>201</ele>
        <time>2022-08-16T13:12:32Z</time>
      </trkpt>
      <trkpt lat="46.54622" lon="5.18564">
        <ele>200.8</ele>
        <time>2022-08-16T13:12:34Z</time>
      </trkpt>
      <trkpt lat="46.54656" lon="5.18534">
        <ele>201.4</ele>
        <time>2022-08-16T13:12:40Z</time>
      </trkpt>
      <trkpt lat="46.54667" lon="5.18527">
        <ele>202.2</ele>
        <time>2022-08-16T13:12:42Z</time>
      </trkpt>
      <trkpt lat="46.54689" lon="5.18515">
        <ele>202.8</ele>
        <time>2022-08-16T13:12:46Z</time>
      </trkpt>
      <trkpt lat="46.547" lon="5.18509">
        <ele>203.2</ele>
        <time>2022-08-16T13:12:48Z</time>
      </trkpt>
      <trkpt lat="46.54732" lon="5.18494">
        <ele>204.2</ele>
        <time>2022-08-16T13:12:54Z</time>
      </trkpt>
      <trkpt lat="46.54743" lon="5.18489">
        <ele>204.2</ele>
        <time>2022-08-16T13:12:56Z</time>
      </trkpt>
      <trkpt lat="46.54758" lon="5.1848">
        <ele>205.4</ele>
        <time>2022-08-16T13:12:59Z</time>
      </trkpt>
      <trkpt lat="46.54762" lon="5.18475">
        <ele>205.6</ele>
        <time>2022-08-16T13:13:00Z</time>
      </trkpt>
      <trkpt lat="46.54784" lon="5.18441">
        <ele>206.6</ele>
        <time>2022-08-16T13:13:06Z</time>
      </trkpt>
      <trkpt lat="46.54793" lon="5.18407">
        <ele>207.8</ele>
        <time>2022-08-16T13:13:11Z</time>
      </trkpt>
      <trkpt lat="46.54794" lon="5.18392">
        <ele>208.2</ele>
        <time>2022-08-16T13:13:13Z</time>
      </trkpt>
      <trkpt lat="46.54794" lon="5.18369">
        <ele>208.8</ele>
        <time>2022-08-16T13:13:16Z</time>
      </trkpt>
      <trkpt lat="46.54793" lon="5.1836">
        <ele>209</ele>
        <time>2022-08-16T13:13:17Z</time>
      </trkpt>
      <trkpt lat="46.54785" lon="5.18319">
        <ele>209.2</ele>
        <time>2022-08-16T13:13:22Z</time>
      </trkpt>
      <trkpt lat="46.5477" lon="5.18239">
        <ele>209.4</ele>
        <time>2022-08-16T13:13:31Z</time>
      </trkpt>
      <trkpt lat="46.54768" lon="5.1823">
        <ele>209.2</ele>
        <time>2022-08-16T13:13:32Z</time>
      </trkpt>
      <trkpt lat="46.54752" lon="5.18146">
        <ele>208.6</ele>
        <time>2022-08-16T13:13:41Z</time>
      </trkpt>
      <trkpt lat="46.5475" lon="5.18139">
        <ele>208.6</ele>
        <time>2022-08-16T13:13:42Z</time>
      </trkpt>
      <trkpt lat="46.54733" lon="5.18061">
        <ele>208.4</ele>
        <time>2022-08-16T13:13:50Z</time>
      </trkpt>
      <trkpt lat="46.54721" lon="5.18011">
        <ele>207.8</ele>
        <time>2022-08-16T13:13:55Z</time>
      </trkpt>
      <trkpt lat="46.54716" lon="5.1799">
        <ele>207.6</ele>
        <time>2022-08-16T13:13:57Z</time>
      </trkpt>
      <trkpt lat="46.54704" lon="5.17933">
        <ele>207.4</ele>
        <time>2022-08-16T13:14:03Z</time>
      </trkpt>
      <trkpt lat="46.54703" lon="5.17914">
        <ele>207.6</ele>
        <time>2022-08-16T13:14:05Z</time>
      </trkpt>
      <trkpt lat="46.54704" lon="5.17894">
        <ele>207.6</ele>
        <time>2022-08-16T13:14:07Z</time>
      </trkpt>
      <trkpt lat="46.54708" lon="5.17866">
        <ele>207.6</ele>
        <time>2022-08-16T13:14:10Z</time>
      </trkpt>
      <trkpt lat="46.54728" lon="5.17796">
        <ele>208</ele>
        <time>2022-08-16T13:14:18Z</time>
      </trkpt>
      <trkpt lat="46.54746" lon="5.17732">
        <ele>208.2</ele>
        <time>2022-08-16T13:14:25Z</time>
      </trkpt>
      <trkpt lat="46.54768" lon="5.17657">
        <ele>208.2</ele>
        <time>2022-08-16T13:14:33Z</time>
      </trkpt>
      <trkpt lat="46.5477" lon="5.17649">
        <ele>208.2</ele>
        <time>2022-08-16T13:14:34Z</time>
      </trkpt>
      <trkpt lat="46.54787" lon="5.17592">
        <ele>208</ele>
        <time>2022-08-16T13:14:39Z</time>
      </trkpt>
      <trkpt lat="46.54803" lon="5.17528">
        <ele>206.4</ele>
        <time>2022-08-16T13:14:44Z</time>
      </trkpt>
      <trkpt lat="46.54807" lon="5.17515">
        <ele>205.6</ele>
        <time>2022-08-16T13:14:45Z</time>
      </trkpt>
      <trkpt lat="46.54811" lon="5.17501">
        <ele>205.4</ele>
        <time>2022-08-16T13:14:46Z</time>
      </trkpt>
      <trkpt lat="46.54827" lon="5.1746">
        <ele>204.2</ele>
        <time>2022-08-16T13:14:49Z</time>
      </trkpt>
      <trkpt lat="46.54841" lon="5.17439">
        <ele>203.6</ele>
        <time>2022-08-16T13:14:51Z</time>
      </trkpt>
      <trkpt lat="46.54851" lon="5.1743">
        <ele>202.6</ele>
        <time>2022-08-16T13:14:52Z</time>
      </trkpt>
      <trkpt lat="46.54863" lon="5.17423">
        <ele>202.2</ele>
        <time>2022-08-16T13:14:53Z</time>
      </trkpt>
      <trkpt lat="46.54872" lon="5.1742">
        <ele>201</ele>
        <time>2022-08-16T13:14:54Z</time>
      </trkpt>
      <trkpt lat="46.54882" lon="5.17417">
        <ele>200.4</ele>
        <time>2022-08-16T13:14:55Z</time>
      </trkpt>
      <trkpt lat="46.54892" lon="5.17413">
        <ele>199.8</ele>
        <time>2022-08-16T13:14:56Z</time>
      </trkpt>
      <trkpt lat="46.54923" lon="5.17405">
        <ele>198.8</ele>
        <time>2022-08-16T13:14:59Z</time>
      </trkpt>
      <trkpt lat="46.5496" lon="5.17393">
        <ele>198.4</ele>
        <time>2022-08-16T13:15:04Z</time>
      </trkpt>
      <trkpt lat="46.54974" lon="5.17381">
        <ele>198.2</ele>
        <time>2022-08-16T13:15:06Z</time>
      </trkpt>
      <trkpt lat="46.54978" lon="5.17373">
        <ele>198.2</ele>
        <time>2022-08-16T13:15:07Z</time>
      </trkpt>
      <trkpt lat="46.54982" lon="5.17364">
        <ele>198.2</ele>
        <time>2022-08-16T13:15:08Z</time>
      </trkpt>
      <trkpt lat="46.54985" lon="5.17343">
        <ele>198.2</ele>
        <time>2022-08-16T13:15:10Z</time>
      </trkpt>
      <trkpt lat="46.54985" lon="5.1732">
        <ele>198.2</ele>
        <time>2022-08-16T13:15:12Z</time>
      </trkpt>
      <trkpt lat="46.54982" lon="5.173">
        <ele>197.6</ele>
        <time>2022-08-16T13:15:14Z</time>
      </trkpt>
      <trkpt lat="46.54978" lon="5.1727">
        <ele>197</ele>
        <time>2022-08-16T13:15:18Z</time>
      </trkpt>
      <trkpt lat="46.54977" lon="5.17268">
        <ele>196.8</ele>
        <time>2022-08-16T13:15:19Z</time>
      </trkpt>
      <trkpt lat="46.54977" lon="5.17268">
        <ele>196.6</ele>
        <time>2022-08-16T13:15:20Z</time>
      </trkpt>
      <trkpt lat="46.54977" lon="5.17267">
        <ele>195.8</ele>
        <time>2022-08-16T13:15:24Z</time>
      </trkpt>
      <trkpt lat="46.54977" lon="5.17261">
        <ele>195.2</ele>
        <time>2022-08-16T13:15:38Z</time>
      </trkpt>
      <trkpt lat="46.54977" lon="5.17237">
        <ele>195</ele>
        <time>2022-08-16T13:15:42Z</time>
      </trkpt>
      <trkpt lat="46.54977" lon="5.1722">
        <ele>194.8</ele>
        <time>2022-08-16T13:15:44Z</time>
      </trkpt>
      <trkpt lat="46.5498" lon="5.17194">
        <ele>194.8</ele>
        <time>2022-08-16T13:15:47Z</time>
      </trkpt>
      <trkpt lat="46.5499" lon="5.17133">
        <ele>194.8</ele>
        <time>2022-08-16T13:15:54Z</time>
      </trkpt>
      <trkpt lat="46.54998" lon="5.1708">
        <ele>195</ele>
        <time>2022-08-16T13:16:01Z</time>
      </trkpt>
      <trkpt lat="46.55001" lon="5.17069">
        <ele>195.2</ele>
        <time>2022-08-16T13:16:03Z</time>
      </trkpt>
      <trkpt lat="46.55003" lon="5.1706">
        <ele>195.8</ele>
        <time>2022-08-16T13:16:05Z</time>
      </trkpt>
      <trkpt lat="46.54995" lon="5.17059">
        <ele>195.6</ele>
        <time>2022-08-16T13:16:07Z</time>
      </trkpt>
      <trkpt lat="46.54978" lon="5.17074">
        <ele>195.6</ele>
        <time>2022-08-16T13:16:10Z</time>
      </trkpt>
      <trkpt lat="46.54972" lon="5.17079">
        <ele>195.6</ele>
        <time>2022-08-16T13:16:11Z</time>
      </trkpt>
      <trkpt lat="46.54964" lon="5.17082">
        <ele>195.6</ele>
        <time>2022-08-16T13:16:12Z</time>
      </trkpt>
      <trkpt lat="46.54949" lon="5.17083">
        <ele>195.4</ele>
        <time>2022-08-16T13:16:14Z</time>
      </trkpt>
      <trkpt lat="46.54927" lon="5.17085">
        <ele>194.8</ele>
        <time>2022-08-16T13:16:17Z</time>
      </trkpt>
      <trkpt lat="46.5492" lon="5.17089">
        <ele>194.8</ele>
        <time>2022-08-16T13:16:18Z</time>
      </trkpt>
      <trkpt lat="46.54913" lon="5.17095">
        <ele>194.6</ele>
        <time>2022-08-16T13:16:19Z</time>
      </trkpt>
      <trkpt lat="46.54895" lon="5.17116">
        <ele>194.6</ele>
        <time>2022-08-16T13:16:22Z</time>
      </trkpt>
      <trkpt lat="46.54871" lon="5.17143">
        <ele>194.4</ele>
        <time>2022-08-16T13:16:26Z</time>
      </trkpt>
      <trkpt lat="46.54859" lon="5.17151">
        <ele>194.2</ele>
        <time>2022-08-16T13:16:28Z</time>
      </trkpt>
      <trkpt lat="46.54828" lon="5.17157">
        <ele>194</ele>
        <time>2022-08-16T13:16:32Z</time>
      </trkpt>
      <trkpt lat="46.54797" lon="5.17154">
        <ele>194.4</ele>
        <time>2022-08-16T13:16:37Z</time>
      </trkpt>
      <trkpt lat="46.54768" lon="5.17148">
        <ele>195</ele>
        <time>2022-08-16T13:16:42Z</time>
      </trkpt>
      <trkpt lat="46.54763" lon="5.17147">
        <ele>195.4</ele>
        <time>2022-08-16T13:16:43Z</time>
      </trkpt>
      <trkpt lat="46.54749" lon="5.17145">
        <ele>196</ele>
        <time>2022-08-16T13:16:46Z</time>
      </trkpt>
      <trkpt lat="46.5474" lon="5.17144">
        <ele>196.4</ele>
        <time>2022-08-16T13:16:48Z</time>
      </trkpt>
      <trkpt lat="46.54735" lon="5.17143">
        <ele>197</ele>
        <time>2022-08-16T13:16:49Z</time>
      </trkpt>
      <trkpt lat="46.54731" lon="5.17142">
        <ele>197.6</ele>
        <time>2022-08-16T13:16:50Z</time>
      </trkpt>
      <trkpt lat="46.54712" lon="5.17137">
        <ele>198.4</ele>
        <time>2022-08-16T13:16:54Z</time>
      </trkpt>
      <trkpt lat="46.54701" lon="5.17135">
        <ele>198.6</ele>
        <time>2022-08-16T13:16:56Z</time>
      </trkpt>
      <trkpt lat="46.54696" lon="5.17135">
        <ele>198.8</ele>
        <time>2022-08-16T13:16:57Z</time>
      </trkpt>
      <trkpt lat="46.5468" lon="5.17132">
        <ele>199</ele>
        <time>2022-08-16T13:17:00Z</time>
      </trkpt>
      <trkpt lat="46.54665" lon="5.17131">
        <ele>199.6</ele>
        <time>2022-08-16T13:17:03Z</time>
      </trkpt>
      <trkpt lat="46.5466" lon="5.17131">
        <ele>200</ele>
        <time>2022-08-16T13:17:04Z</time>
      </trkpt>
      <trkpt lat="46.54632" lon="5.17131">
        <ele>201</ele>
        <time>2022-08-16T13:17:10Z</time>
      </trkpt>
      <trkpt lat="46.54613" lon="5.17131">
        <ele>202</ele>
        <time>2022-08-16T13:17:14Z</time>
      </trkpt>
      <trkpt lat="46.54599" lon="5.17131">
        <ele>202</ele>
        <time>2022-08-16T13:17:17Z</time>
      </trkpt>
      <trkpt lat="46.54571" lon="5.17131">
        <ele>202.6</ele>
        <time>2022-08-16T13:17:23Z</time>
      </trkpt>
      <trkpt lat="46.54553" lon="5.17131">
        <ele>203.2</ele>
        <time>2022-08-16T13:17:27Z</time>
      </trkpt>
      <trkpt lat="46.54524" lon="5.17131">
        <ele>203.8</ele>
        <time>2022-08-16T13:17:33Z</time>
      </trkpt>
      <trkpt lat="46.54509" lon="5.17132">
        <ele>204.2</ele>
        <time>2022-08-16T13:17:36Z</time>
      </trkpt>
      <trkpt lat="46.5447" lon="5.17131">
        <ele>204.6</ele>
        <time>2022-08-16T13:17:43Z</time>
      </trkpt>
      <trkpt lat="46.54416" lon="5.17131">
        <ele>205.4</ele>
        <time>2022-08-16T13:17:53Z</time>
      </trkpt>
      <trkpt lat="46.54411" lon="5.17132">
        <ele>205.4</ele>
        <time>2022-08-16T13:17:54Z</time>
      </trkpt>
      <trkpt lat="46.544" lon="5.17135">
        <ele>205.6</ele>
        <time>2022-08-16T13:17:56Z</time>
      </trkpt>
      <trkpt lat="46.54383" lon="5.17145">
        <ele>205.6</ele>
        <time>2022-08-16T13:17:59Z</time>
      </trkpt>
      <trkpt lat="46.54341" lon="5.17179">
        <ele>205.6</ele>
        <time>2022-08-16T13:18:06Z</time>
      </trkpt>
      <trkpt lat="46.54289" lon="5.17217">
        <ele>205</ele>
        <time>2022-08-16T13:18:14Z</time>
      </trkpt>
      <trkpt lat="46.54269" lon="5.17232">
        <ele>204.6</ele>
        <time>2022-08-16T13:18:17Z</time>
      </trkpt>
      <trkpt lat="46.54246" lon="5.17249">
        <ele>204.2</ele>
        <time>2022-08-16T13:18:20Z</time>
      </trkpt>
      <trkpt lat="46.54223" lon="5.17267">
        <ele>203.4</ele>
        <time>2022-08-16T13:18:23Z</time>
      </trkpt>
      <trkpt lat="46.54217" lon="5.17272">
        <ele>203.2</ele>
        <time>2022-08-16T13:18:24Z</time>
      </trkpt>
      <trkpt lat="46.54171" lon="5.17308">
        <ele>202.2</ele>
        <time>2022-08-16T13:18:31Z</time>
      </trkpt>
      <trkpt lat="46.54139" lon="5.1733">
        <ele>203</ele>
        <time>2022-08-16T13:18:37Z</time>
      </trkpt>
      <trkpt lat="46.5412" lon="5.17344">
        <ele>203.4</ele>
        <time>2022-08-16T13:18:41Z</time>
      </trkpt>
      <trkpt lat="46.54106" lon="5.17355">
        <ele>204.4</ele>
        <time>2022-08-16T13:18:44Z</time>
      </trkpt>
      <trkpt lat="46.54084" lon="5.17374">
        <ele>205.4</ele>
        <time>2022-08-16T13:18:49Z</time>
      </trkpt>
      <trkpt lat="46.54068" lon="5.17385">
        <ele>206</ele>
        <time>2022-08-16T13:18:52Z</time>
      </trkpt>
      <trkpt lat="46.54053" lon="5.17396">
        <ele>206.4</ele>
        <time>2022-08-16T13:18:55Z</time>
      </trkpt>
      <trkpt lat="46.54029" lon="5.17414">
        <ele>207.4</ele>
        <time>2022-08-16T13:19:00Z</time>
      </trkpt>
      <trkpt lat="46.54023" lon="5.17418">
        <ele>207.4</ele>
        <time>2022-08-16T13:19:01Z</time>
      </trkpt>
      <trkpt lat="46.53978" lon="5.17452">
        <ele>207.8</ele>
        <time>2022-08-16T13:19:09Z</time>
      </trkpt>
      <trkpt lat="46.53928" lon="5.17489">
        <ele>207.8</ele>
        <time>2022-08-16T13:19:18Z</time>
      </trkpt>
      <trkpt lat="46.53922" lon="5.17494">
        <ele>207.8</ele>
        <time>2022-08-16T13:19:19Z</time>
      </trkpt>
      <trkpt lat="46.53871" lon="5.17531">
        <ele>207</ele>
        <time>2022-08-16T13:19:27Z</time>
      </trkpt>
      <trkpt lat="46.53843" lon="5.17541">
        <ele>206.4</ele>
        <time>2022-08-16T13:19:31Z</time>
      </trkpt>
      <trkpt lat="46.5383" lon="5.17544">
        <ele>206.2</ele>
        <time>2022-08-16T13:19:33Z</time>
      </trkpt>
      <trkpt lat="46.53786" lon="5.17553">
        <ele>206.2</ele>
        <time>2022-08-16T13:19:40Z</time>
      </trkpt>
      <trkpt lat="46.53731" lon="5.17564">
        <ele>207.4</ele>
        <time>2022-08-16T13:19:49Z</time>
      </trkpt>
      <trkpt lat="46.53719" lon="5.17567">
        <ele>207.6</ele>
        <time>2022-08-16T13:19:51Z</time>
      </trkpt>
      <trkpt lat="46.53664" lon="5.17579">
        <ele>208</ele>
        <time>2022-08-16T13:20:00Z</time>
      </trkpt>
      <trkpt lat="46.5365" lon="5.17582">
        <ele>208</ele>
        <time>2022-08-16T13:20:02Z</time>
      </trkpt>
      <trkpt lat="46.53596" lon="5.17594">
        <ele>207.6</ele>
        <time>2022-08-16T13:20:10Z</time>
      </trkpt>
      <trkpt lat="46.5359" lon="5.17596">
        <ele>207.6</ele>
        <time>2022-08-16T13:20:11Z</time>
      </trkpt>
      <trkpt lat="46.53534" lon="5.17612">
        <ele>207.6</ele>
        <time>2022-08-16T13:20:20Z</time>
      </trkpt>
      <trkpt lat="46.53488" lon="5.17646">
        <ele>208</ele>
        <time>2022-08-16T13:20:28Z</time>
      </trkpt>
      <trkpt lat="46.5344" lon="5.17682">
        <ele>208</ele>
        <time>2022-08-16T13:20:36Z</time>
      </trkpt>
      <trkpt lat="46.53433" lon="5.17687">
        <ele>208</ele>
        <time>2022-08-16T13:20:37Z</time>
      </trkpt>
      <trkpt lat="46.53382" lon="5.17726">
        <ele>207</ele>
        <time>2022-08-16T13:20:45Z</time>
      </trkpt>
      <trkpt lat="46.53363" lon="5.17741">
        <ele>206.8</ele>
        <time>2022-08-16T13:20:48Z</time>
      </trkpt>
      <trkpt lat="46.53334" lon="5.17755">
        <ele>206.4</ele>
        <time>2022-08-16T13:20:52Z</time>
      </trkpt>
      <trkpt lat="46.53291" lon="5.17761">
        <ele>206</ele>
        <time>2022-08-16T13:20:58Z</time>
      </trkpt>
      <trkpt lat="46.53255" lon="5.17761">
        <ele>206.4</ele>
        <time>2022-08-16T13:21:04Z</time>
      </trkpt>
      <trkpt lat="46.53212" lon="5.17756">
        <ele>207.8</ele>
        <time>2022-08-16T13:21:12Z</time>
      </trkpt>
      <trkpt lat="46.53207" lon="5.17755">
        <ele>208</ele>
        <time>2022-08-16T13:21:13Z</time>
      </trkpt>
      <trkpt lat="46.5317" lon="5.17747">
        <ele>208</ele>
        <time>2022-08-16T13:21:19Z</time>
      </trkpt>
      <trkpt lat="46.53126" lon="5.1774">
        <ele>207.8</ele>
        <time>2022-08-16T13:21:25Z</time>
      </trkpt>
      <trkpt lat="46.53085" lon="5.17734">
        <ele>206.8</ele>
        <time>2022-08-16T13:21:30Z</time>
      </trkpt>
      <trkpt lat="46.5306" lon="5.1773">
        <ele>206.2</ele>
        <time>2022-08-16T13:21:33Z</time>
      </trkpt>
      <trkpt lat="46.53045" lon="5.17727">
        <ele>205.4</ele>
        <time>2022-08-16T13:21:35Z</time>
      </trkpt>
      <trkpt lat="46.5301" lon="5.17717">
        <ele>204.4</ele>
        <time>2022-08-16T13:21:39Z</time>
      </trkpt>
      <trkpt lat="46.53002" lon="5.17714">
        <ele>204.2</ele>
        <time>2022-08-16T13:21:40Z</time>
      </trkpt>
      <trkpt lat="46.52969" lon="5.17701">
        <ele>203.2</ele>
        <time>2022-08-16T13:21:44Z</time>
      </trkpt>
      <trkpt lat="46.52932" lon="5.17685">
        <ele>202.2</ele>
        <time>2022-08-16T13:21:49Z</time>
      </trkpt>
      <trkpt lat="46.52917" lon="5.17678">
        <ele>202</ele>
        <time>2022-08-16T13:21:51Z</time>
      </trkpt>
      <trkpt lat="46.52865" lon="5.17654">
        <ele>201.4</ele>
        <time>2022-08-16T13:21:58Z</time>
      </trkpt>
      <trkpt lat="46.52856" lon="5.1765">
        <ele>201.2</ele>
        <time>2022-08-16T13:21:59Z</time>
      </trkpt>
      <trkpt lat="46.5285" lon="5.17647">
        <ele>201</ele>
        <time>2022-08-16T13:22:00Z</time>
      </trkpt>
      <trkpt lat="46.52834" lon="5.17642">
        <ele>200.8</ele>
        <time>2022-08-16T13:22:02Z</time>
      </trkpt>
      <trkpt lat="46.52818" lon="5.17643">
        <ele>200.2</ele>
        <time>2022-08-16T13:22:04Z</time>
      </trkpt>
      <trkpt lat="46.52804" lon="5.17651">
        <ele>200</ele>
        <time>2022-08-16T13:22:06Z</time>
      </trkpt>
      <trkpt lat="46.52792" lon="5.17664">
        <ele>199.6</ele>
        <time>2022-08-16T13:22:08Z</time>
      </trkpt>
      <trkpt lat="46.52782" lon="5.17681">
        <ele>199.6</ele>
        <time>2022-08-16T13:22:10Z</time>
      </trkpt>
      <trkpt lat="46.52778" lon="5.17701">
        <ele>199.2</ele>
        <time>2022-08-16T13:22:12Z</time>
      </trkpt>
      <trkpt lat="46.52775" lon="5.17722">
        <ele>199</ele>
        <time>2022-08-16T13:22:14Z</time>
      </trkpt>
      <trkpt lat="46.52774" lon="5.17729">
        <ele>198.8</ele>
        <time>2022-08-16T13:22:15Z</time>
      </trkpt>
      <trkpt lat="46.52774" lon="5.17735">
        <ele>198.8</ele>
        <time>2022-08-16T13:22:16Z</time>
      </trkpt>
      <trkpt lat="46.52775" lon="5.17741">
        <ele>198.2</ele>
        <time>2022-08-16T13:22:18Z</time>
      </trkpt>
      <trkpt lat="46.52776" lon="5.17739">
        <ele>198</ele>
        <time>2022-08-16T13:22:19Z</time>
      </trkpt>
      <trkpt lat="46.52777" lon="5.17736">
        <ele>198</ele>
        <time>2022-08-16T13:22:20Z</time>
      </trkpt>
      <trkpt lat="46.52778" lon="5.17719">
        <ele>197.6</ele>
        <time>2022-08-16T13:22:23Z</time>
      </trkpt>
      <trkpt lat="46.52783" lon="5.17696">
        <ele>197.4</ele>
        <time>2022-08-16T13:22:26Z</time>
      </trkpt>
      <trkpt lat="46.52785" lon="5.17688">
        <ele>197.4</ele>
        <time>2022-08-16T13:22:27Z</time>
      </trkpt>
      <trkpt lat="46.52791" lon="5.17675">
        <ele>197.2</ele>
        <time>2022-08-16T13:22:29Z</time>
      </trkpt>
      <trkpt lat="46.528" lon="5.17663">
        <ele>197.2</ele>
        <time>2022-08-16T13:22:31Z</time>
      </trkpt>
      <trkpt lat="46.52803" lon="5.17659">
        <ele>197.2</ele>
        <time>2022-08-16T13:22:32Z</time>
      </trkpt>
      <trkpt lat="46.52822" lon="5.17646">
        <ele>197.4</ele>
        <time>2022-08-16T13:22:36Z</time>
      </trkpt>
      <trkpt lat="46.52824" lon="5.17637">
        <ele>197.6</ele>
        <time>2022-08-16T13:22:38Z</time>
      </trkpt>
      <trkpt lat="46.52823" lon="5.17633">
        <ele>197.6</ele>
        <time>2022-08-16T13:22:39Z</time>
      </trkpt>
      <trkpt lat="46.52818" lon="5.17624">
        <ele>197.8</ele>
        <time>2022-08-16T13:22:41Z</time>
      </trkpt>
      <trkpt lat="46.5281" lon="5.17612">
        <ele>198</ele>
        <time>2022-08-16T13:22:43Z</time>
      </trkpt>
      <trkpt lat="46.52782" lon="5.17564">
        <ele>198.8</ele>
        <time>2022-08-16T13:22:50Z</time>
      </trkpt>
      <trkpt lat="46.52745" lon="5.17502">
        <ele>198.4</ele>
        <time>2022-08-16T13:22:59Z</time>
      </trkpt>
      <trkpt lat="46.52713" lon="5.17456">
        <ele>198.8</ele>
        <time>2022-08-16T13:23:07Z</time>
      </trkpt>
      <trkpt lat="46.52705" lon="5.17448">
        <ele>199</ele>
        <time>2022-08-16T13:23:09Z</time>
      </trkpt>
      <trkpt lat="46.52683" lon="5.17424">
        <ele>199.6</ele>
        <time>2022-08-16T13:23:15Z</time>
      </trkpt>
      <trkpt lat="46.52679" lon="5.1742">
        <ele>200.2</ele>
        <time>2022-08-16T13:23:16Z</time>
      </trkpt>
      <trkpt lat="46.52666" lon="5.17405">
        <ele>201.4</ele>
        <time>2022-08-16T13:23:20Z</time>
      </trkpt>
      <trkpt lat="46.5265" lon="5.17388">
        <ele>202.4</ele>
        <time>2022-08-16T13:23:25Z</time>
      </trkpt>
      <trkpt lat="46.52638" lon="5.17375">
        <ele>203.2</ele>
        <time>2022-08-16T13:23:29Z</time>
      </trkpt>
      <trkpt lat="46.52628" lon="5.17364">
        <ele>203.6</ele>
        <time>2022-08-16T13:23:32Z</time>
      </trkpt>
      <trkpt lat="46.52616" lon="5.17353">
        <ele>204.6</ele>
        <time>2022-08-16T13:23:36Z</time>
      </trkpt>
      <trkpt lat="46.52606" lon="5.1734">
        <ele>205.8</ele>
        <time>2022-08-16T13:23:40Z</time>
      </trkpt>
      <trkpt lat="46.52604" lon="5.17337">
        <ele>205.8</ele>
        <time>2022-08-16T13:23:41Z</time>
      </trkpt>
      <trkpt lat="46.52596" lon="5.17329">
        <ele>206.8</ele>
        <time>2022-08-16T13:23:44Z</time>
      </trkpt>
      <trkpt lat="46.52578" lon="5.17308">
        <ele>207.8</ele>
        <time>2022-08-16T13:23:50Z</time>
      </trkpt>
      <trkpt lat="46.52576" lon="5.17305">
        <ele>208.2</ele>
        <time>2022-08-16T13:23:51Z</time>
      </trkpt>
      <trkpt lat="46.52558" lon="5.17286">
        <ele>209.2</ele>
        <time>2022-08-16T13:23:56Z</time>
      </trkpt>
      <trkpt lat="46.52552" lon="5.17279">
        <ele>209.8</ele>
        <time>2022-08-16T13:23:58Z</time>
      </trkpt>
      <trkpt lat="46.52536" lon="5.17261">
        <ele>210.2</ele>
        <time>2022-08-16T13:24:03Z</time>
      </trkpt>
      <trkpt lat="46.52526" lon="5.1725">
        <ele>210.6</ele>
        <time>2022-08-16T13:24:06Z</time>
      </trkpt>
      <trkpt lat="46.52497" lon="5.17217">
        <ele>211.2</ele>
        <time>2022-08-16T13:24:14Z</time>
      </trkpt>
      <trkpt lat="46.5246" lon="5.17176">
        <ele>211.6</ele>
        <time>2022-08-16T13:24:23Z</time>
      </trkpt>
      <trkpt lat="46.52432" lon="5.17143">
        <ele>212</ele>
        <time>2022-08-16T13:24:30Z</time>
      </trkpt>
      <trkpt lat="46.52386" lon="5.17086">
        <ele>211.8</ele>
        <time>2022-08-16T13:24:40Z</time>
      </trkpt>
      <trkpt lat="46.52341" lon="5.17035">
        <ele>211.8</ele>
        <time>2022-08-16T13:24:49Z</time>
      </trkpt>
      <trkpt lat="46.52336" lon="5.17029">
        <ele>211.8</ele>
        <time>2022-08-16T13:24:50Z</time>
      </trkpt>
      <trkpt lat="46.52298" lon="5.16979">
        <ele>211.8</ele>
        <time>2022-08-16T13:24:58Z</time>
      </trkpt>
      <trkpt lat="46.52283" lon="5.16936">
        <ele>211.2</ele>
        <time>2022-08-16T13:25:03Z</time>
      </trkpt>
      <trkpt lat="46.52279" lon="5.16907">
        <ele>211.2</ele>
        <time>2022-08-16T13:25:06Z</time>
      </trkpt>
      <trkpt lat="46.52278" lon="5.16888">
        <ele>211.2</ele>
        <time>2022-08-16T13:25:08Z</time>
      </trkpt>
      <trkpt lat="46.5228" lon="5.16825">
        <ele>211.4</ele>
        <time>2022-08-16T13:25:15Z</time>
      </trkpt>
      <trkpt lat="46.52281" lon="5.16769">
        <ele>212.6</ele>
        <time>2022-08-16T13:25:21Z</time>
      </trkpt>
      <trkpt lat="46.5228" lon="5.16728">
        <ele>213</ele>
        <time>2022-08-16T13:25:26Z</time>
      </trkpt>
      <trkpt lat="46.52279" lon="5.16717">
        <ele>213.2</ele>
        <time>2022-08-16T13:25:27Z</time>
      </trkpt>
      <trkpt lat="46.52273" lon="5.16692">
        <ele>213.4</ele>
        <time>2022-08-16T13:25:30Z</time>
      </trkpt>
      <trkpt lat="46.52271" lon="5.16685">
        <ele>213.4</ele>
        <time>2022-08-16T13:25:31Z</time>
      </trkpt>
      <trkpt lat="46.52251" lon="5.16652">
        <ele>213.4</ele>
        <time>2022-08-16T13:25:36Z</time>
      </trkpt>
      <trkpt lat="46.5224" lon="5.16641">
        <ele>213.4</ele>
        <time>2022-08-16T13:25:38Z</time>
      </trkpt>
      <trkpt lat="46.52222" lon="5.1663">
        <ele>213.4</ele>
        <time>2022-08-16T13:25:41Z</time>
      </trkpt>
      <trkpt lat="46.5219" lon="5.16612">
        <ele>213.4</ele>
        <time>2022-08-16T13:25:46Z</time>
      </trkpt>
      <trkpt lat="46.52161" lon="5.16597">
        <ele>213.6</ele>
        <time>2022-08-16T13:25:51Z</time>
      </trkpt>
      <trkpt lat="46.5211" lon="5.16568">
        <ele>214</ele>
        <time>2022-08-16T13:26:00Z</time>
      </trkpt>
      <trkpt lat="46.52071" lon="5.16548">
        <ele>214</ele>
        <time>2022-08-16T13:26:06Z</time>
      </trkpt>
      <trkpt lat="46.52064" lon="5.16546">
        <ele>213.8</ele>
        <time>2022-08-16T13:26:07Z</time>
      </trkpt>
      <trkpt lat="46.52051" lon="5.16543">
        <ele>213.6</ele>
        <time>2022-08-16T13:26:09Z</time>
      </trkpt>
      <trkpt lat="46.52043" lon="5.16543">
        <ele>213.2</ele>
        <time>2022-08-16T13:26:10Z</time>
      </trkpt>
      <trkpt lat="46.51992" lon="5.16551">
        <ele>212.4</ele>
        <time>2022-08-16T13:26:17Z</time>
      </trkpt>
      <trkpt lat="46.51944" lon="5.1656">
        <ele>211.4</ele>
        <time>2022-08-16T13:26:23Z</time>
      </trkpt>
      <trkpt lat="46.51936" lon="5.16562">
        <ele>211.2</ele>
        <time>2022-08-16T13:26:24Z</time>
      </trkpt>
      <trkpt lat="46.51909" lon="5.16568">
        <ele>210.4</ele>
        <time>2022-08-16T13:26:27Z</time>
      </trkpt>
      <trkpt lat="46.51891" lon="5.16572">
        <ele>210</ele>
        <time>2022-08-16T13:26:29Z</time>
      </trkpt>
      <trkpt lat="46.51863" lon="5.16576">
        <ele>209</ele>
        <time>2022-08-16T13:26:32Z</time>
      </trkpt>
      <trkpt lat="46.51844" lon="5.16578">
        <ele>207.6</ele>
        <time>2022-08-16T13:26:34Z</time>
      </trkpt>
      <trkpt lat="46.51836" lon="5.16578">
        <ele>207.4</ele>
        <time>2022-08-16T13:26:35Z</time>
      </trkpt>
      <trkpt lat="46.51809" lon="5.16576">
        <ele>206.4</ele>
        <time>2022-08-16T13:26:38Z</time>
      </trkpt>
      <trkpt lat="46.51766" lon="5.16574">
        <ele>205.6</ele>
        <time>2022-08-16T13:26:43Z</time>
      </trkpt>
      <trkpt lat="46.51758" lon="5.16576">
        <ele>205.4</ele>
        <time>2022-08-16T13:26:44Z</time>
      </trkpt>
      <trkpt lat="46.5175" lon="5.16579">
        <ele>205.4</ele>
        <time>2022-08-16T13:26:45Z</time>
      </trkpt>
      <trkpt lat="46.51741" lon="5.16584">
        <ele>205.4</ele>
        <time>2022-08-16T13:26:46Z</time>
      </trkpt>
      <trkpt lat="46.51713" lon="5.16613">
        <ele>205.4</ele>
        <time>2022-08-16T13:26:51Z</time>
      </trkpt>
      <trkpt lat="46.51693" lon="5.16635">
        <ele>205.6</ele>
        <time>2022-08-16T13:26:55Z</time>
      </trkpt>
      <trkpt lat="46.51683" lon="5.16641">
        <ele>205.8</ele>
        <time>2022-08-16T13:26:57Z</time>
      </trkpt>
      <trkpt lat="46.51677" lon="5.16644">
        <ele>206</ele>
        <time>2022-08-16T13:26:58Z</time>
      </trkpt>
      <trkpt lat="46.51665" lon="5.16648">
        <ele>206.8</ele>
        <time>2022-08-16T13:27:00Z</time>
      </trkpt>
      <trkpt lat="46.51659" lon="5.16649">
        <ele>207</ele>
        <time>2022-08-16T13:27:01Z</time>
      </trkpt>
      <trkpt lat="46.51623" lon="5.16657">
        <ele>207.8</ele>
        <time>2022-08-16T13:27:07Z</time>
      </trkpt>
      <trkpt lat="46.51617" lon="5.16659">
        <ele>208</ele>
        <time>2022-08-16T13:27:08Z</time>
      </trkpt>
      <trkpt lat="46.51577" lon="5.16686">
        <ele>208.4</ele>
        <time>2022-08-16T13:27:15Z</time>
      </trkpt>
      <trkpt lat="46.5156" lon="5.16696">
        <ele>208.2</ele>
        <time>2022-08-16T13:27:18Z</time>
      </trkpt>
      <trkpt lat="46.51547" lon="5.167">
        <ele>208.2</ele>
        <time>2022-08-16T13:27:20Z</time>
      </trkpt>
      <trkpt lat="46.51541" lon="5.167">
        <ele>208</ele>
        <time>2022-08-16T13:27:21Z</time>
      </trkpt>
      <trkpt lat="46.51534" lon="5.16698">
        <ele>207.8</ele>
        <time>2022-08-16T13:27:22Z</time>
      </trkpt>
      <trkpt lat="46.51514" lon="5.16689">
        <ele>207.4</ele>
        <time>2022-08-16T13:27:25Z</time>
      </trkpt>
      <trkpt lat="46.51467" lon="5.16674">
        <ele>206.8</ele>
        <time>2022-08-16T13:27:32Z</time>
      </trkpt>
      <trkpt lat="46.5142" lon="5.16671">
        <ele>206.4</ele>
        <time>2022-08-16T13:27:39Z</time>
      </trkpt>
      <trkpt lat="46.51389" lon="5.16685">
        <ele>206.4</ele>
        <time>2022-08-16T13:27:44Z</time>
      </trkpt>
      <trkpt lat="46.51341" lon="5.16727">
        <ele>206.8</ele>
        <time>2022-08-16T13:27:52Z</time>
      </trkpt>
      <trkpt lat="46.51297" lon="5.16756">
        <ele>206.8</ele>
        <time>2022-08-16T13:27:59Z</time>
      </trkpt>
      <trkpt lat="46.51264" lon="5.16775">
        <ele>206.6</ele>
        <time>2022-08-16T13:28:04Z</time>
      </trkpt>
      <trkpt lat="46.51249" lon="5.16777">
        <ele>206.4</ele>
        <time>2022-08-16T13:28:06Z</time>
      </trkpt>
      <trkpt lat="46.51234" lon="5.16775">
        <ele>206.2</ele>
        <time>2022-08-16T13:28:08Z</time>
      </trkpt>
      <trkpt lat="46.51219" lon="5.16769">
        <ele>206</ele>
        <time>2022-08-16T13:28:10Z</time>
      </trkpt>
      <trkpt lat="46.51212" lon="5.16764">
        <ele>206</ele>
        <time>2022-08-16T13:28:11Z</time>
      </trkpt>
      <trkpt lat="46.51199" lon="5.16751">
        <ele>205.8</ele>
        <time>2022-08-16T13:28:13Z</time>
      </trkpt>
      <trkpt lat="46.51193" lon="5.16744">
        <ele>205.8</ele>
        <time>2022-08-16T13:28:14Z</time>
      </trkpt>
      <trkpt lat="46.51151" lon="5.16687">
        <ele>205</ele>
        <time>2022-08-16T13:28:21Z</time>
      </trkpt>
      <trkpt lat="46.51139" lon="5.1667">
        <ele>204.8</ele>
        <time>2022-08-16T13:28:23Z</time>
      </trkpt>
      <trkpt lat="46.51133" lon="5.16662">
        <ele>204.8</ele>
        <time>2022-08-16T13:28:24Z</time>
      </trkpt>
      <trkpt lat="46.511" lon="5.16627">
        <ele>203.8</ele>
        <time>2022-08-16T13:28:29Z</time>
      </trkpt>
      <trkpt lat="46.51092" lon="5.16622">
        <ele>203.8</ele>
        <time>2022-08-16T13:28:30Z</time>
      </trkpt>
      <trkpt lat="46.51084" lon="5.16618">
        <ele>203.6</ele>
        <time>2022-08-16T13:28:31Z</time>
      </trkpt>
      <trkpt lat="46.51069" lon="5.16612">
        <ele>203.4</ele>
        <time>2022-08-16T13:28:33Z</time>
      </trkpt>
      <trkpt lat="46.51031" lon="5.16599">
        <ele>203.4</ele>
        <time>2022-08-16T13:28:38Z</time>
      </trkpt>
      <trkpt lat="46.51024" lon="5.16594">
        <ele>203.4</ele>
        <time>2022-08-16T13:28:39Z</time>
      </trkpt>
      <trkpt lat="46.50993" lon="5.16566">
        <ele>203.4</ele>
        <time>2022-08-16T13:28:44Z</time>
      </trkpt>
      <trkpt lat="46.50986" lon="5.16561">
        <ele>203.6</ele>
        <time>2022-08-16T13:28:45Z</time>
      </trkpt>
      <trkpt lat="46.50972" lon="5.16556">
        <ele>204.2</ele>
        <time>2022-08-16T13:28:47Z</time>
      </trkpt>
      <trkpt lat="46.50964" lon="5.16555">
        <ele>204.2</ele>
        <time>2022-08-16T13:28:48Z</time>
      </trkpt>
      <trkpt lat="46.50926" lon="5.16561">
        <ele>204</ele>
        <time>2022-08-16T13:28:53Z</time>
      </trkpt>
      <trkpt lat="46.50866" lon="5.16566">
        <ele>203.2</ele>
        <time>2022-08-16T13:29:01Z</time>
      </trkpt>
      <trkpt lat="46.50837" lon="5.16556">
        <ele>202.6</ele>
        <time>2022-08-16T13:29:05Z</time>
      </trkpt>
      <trkpt lat="46.50824" lon="5.16551">
        <ele>202.6</ele>
        <time>2022-08-16T13:29:07Z</time>
      </trkpt>
      <trkpt lat="46.50769" lon="5.16532">
        <ele>202.6</ele>
        <time>2022-08-16T13:29:15Z</time>
      </trkpt>
      <trkpt lat="46.50735" lon="5.16531">
        <ele>202.4</ele>
        <time>2022-08-16T13:29:20Z</time>
      </trkpt>
      <trkpt lat="46.50684" lon="5.16551">
        <ele>202.6</ele>
        <time>2022-08-16T13:29:28Z</time>
      </trkpt>
      <trkpt lat="46.5065" lon="5.16578">
        <ele>202.6</ele>
        <time>2022-08-16T13:29:34Z</time>
      </trkpt>
      <trkpt lat="46.50607" lon="5.16615">
        <ele>202.6</ele>
        <time>2022-08-16T13:29:42Z</time>
      </trkpt>
      <trkpt lat="46.50554" lon="5.16651">
        <ele>203.4</ele>
        <time>2022-08-16T13:29:51Z</time>
      </trkpt>
      <trkpt lat="46.50522" lon="5.1667">
        <ele>203.8</ele>
        <time>2022-08-16T13:29:56Z</time>
      </trkpt>
      <trkpt lat="46.50496" lon="5.16687">
        <ele>203.8</ele>
        <time>2022-08-16T13:30:00Z</time>
      </trkpt>
      <trkpt lat="46.50454" lon="5.16711">
        <ele>203.6</ele>
        <time>2022-08-16T13:30:06Z</time>
      </trkpt>
      <trkpt lat="46.50446" lon="5.16712">
        <ele>203.6</ele>
        <time>2022-08-16T13:30:07Z</time>
      </trkpt>
      <trkpt lat="46.50422" lon="5.16711">
        <ele>203.4</ele>
        <time>2022-08-16T13:30:10Z</time>
      </trkpt>
      <trkpt lat="46.50367" lon="5.16695">
        <ele>202.6</ele>
        <time>2022-08-16T13:30:17Z</time>
      </trkpt>
      <trkpt lat="46.50344" lon="5.16686">
        <ele>202.2</ele>
        <time>2022-08-16T13:30:20Z</time>
      </trkpt>
      <trkpt lat="46.5033" lon="5.16675">
        <ele>202</ele>
        <time>2022-08-16T13:30:22Z</time>
      </trkpt>
      <trkpt lat="46.50324" lon="5.16668">
        <ele>202</ele>
        <time>2022-08-16T13:30:23Z</time>
      </trkpt>
      <trkpt lat="46.50318" lon="5.1666">
        <ele>201.6</ele>
        <time>2022-08-16T13:30:24Z</time>
      </trkpt>
      <trkpt lat="46.50306" lon="5.16644">
        <ele>201.4</ele>
        <time>2022-08-16T13:30:26Z</time>
      </trkpt>
      <trkpt lat="46.50293" lon="5.16632">
        <ele>201.4</ele>
        <time>2022-08-16T13:30:28Z</time>
      </trkpt>
      <trkpt lat="46.50278" lon="5.16624">
        <ele>201.4</ele>
        <time>2022-08-16T13:30:30Z</time>
      </trkpt>
      <trkpt lat="46.50248" lon="5.16623">
        <ele>201.4</ele>
        <time>2022-08-16T13:30:34Z</time>
      </trkpt>
      <trkpt lat="46.50192" lon="5.16627">
        <ele>201.6</ele>
        <time>2022-08-16T13:30:42Z</time>
      </trkpt>
      <trkpt lat="46.50158" lon="5.16628">
        <ele>202.8</ele>
        <time>2022-08-16T13:30:47Z</time>
      </trkpt>
      <trkpt lat="46.50141" lon="5.16629">
        <ele>203</ele>
        <time>2022-08-16T13:30:50Z</time>
      </trkpt>
      <trkpt lat="46.50107" lon="5.16629">
        <ele>203.8</ele>
        <time>2022-08-16T13:30:56Z</time>
      </trkpt>
      <trkpt lat="46.50096" lon="5.16627">
        <ele>204.2</ele>
        <time>2022-08-16T13:30:58Z</time>
      </trkpt>
      <trkpt lat="46.50055" lon="5.16617">
        <ele>205.2</ele>
        <time>2022-08-16T13:31:06Z</time>
      </trkpt>
      <trkpt lat="46.5005" lon="5.16616">
        <ele>205.4</ele>
        <time>2022-08-16T13:31:07Z</time>
      </trkpt>
      <trkpt lat="46.50016" lon="5.16605">
        <ele>206.2</ele>
        <time>2022-08-16T13:31:14Z</time>
      </trkpt>
      <trkpt lat="46.50006" lon="5.16602">
        <ele>206.6</ele>
        <time>2022-08-16T13:31:16Z</time>
      </trkpt>
      <trkpt lat="46.49961" lon="5.16588">
        <ele>207.4</ele>
        <time>2022-08-16T13:31:25Z</time>
      </trkpt>
      <trkpt lat="46.49956" lon="5.16587">
        <ele>207.4</ele>
        <time>2022-08-16T13:31:26Z</time>
      </trkpt>
      <trkpt lat="46.49913" lon="5.16575">
        <ele>207.4</ele>
        <time>2022-08-16T13:31:34Z</time>
      </trkpt>
      <trkpt lat="46.49858" lon="5.16568">
        <ele>207.6</ele>
        <time>2022-08-16T13:31:44Z</time>
      </trkpt>
      <trkpt lat="46.49806" lon="5.16558">
        <ele>208.2</ele>
        <time>2022-08-16T13:31:53Z</time>
      </trkpt>
      <trkpt lat="46.49789" lon="5.16556">
        <ele>208.4</ele>
        <time>2022-08-16T13:31:56Z</time>
      </trkpt>
      <trkpt lat="46.49749" lon="5.16549">
        <ele>208.6</ele>
        <time>2022-08-16T13:32:03Z</time>
      </trkpt>
      <trkpt lat="46.49717" lon="5.16547">
        <ele>209.4</ele>
        <time>2022-08-16T13:32:09Z</time>
      </trkpt>
      <trkpt lat="46.49707" lon="5.16547">
        <ele>209.8</ele>
        <time>2022-08-16T13:32:11Z</time>
      </trkpt>
      <trkpt lat="46.49688" lon="5.16551">
        <ele>210.6</ele>
        <time>2022-08-16T13:32:15Z</time>
      </trkpt>
      <trkpt lat="46.49679" lon="5.16554">
        <ele>211</ele>
        <time>2022-08-16T13:32:17Z</time>
      </trkpt>
      <trkpt lat="46.49666" lon="5.16558">
        <ele>211.8</ele>
        <time>2022-08-16T13:32:20Z</time>
      </trkpt>
      <trkpt lat="46.49649" lon="5.16564">
        <ele>212.8</ele>
        <time>2022-08-16T13:32:24Z</time>
      </trkpt>
      <trkpt lat="46.49645" lon="5.16565">
        <ele>213</ele>
        <time>2022-08-16T13:32:25Z</time>
      </trkpt>
      <trkpt lat="46.4963" lon="5.16572">
        <ele>213.8</ele>
        <time>2022-08-16T13:32:29Z</time>
      </trkpt>
      <trkpt lat="46.49606" lon="5.16582">
        <ele>214.4</ele>
        <time>2022-08-16T13:32:34Z</time>
      </trkpt>
      <trkpt lat="46.49593" lon="5.16587">
        <ele>215</ele>
        <time>2022-08-16T13:32:37Z</time>
      </trkpt>
      <trkpt lat="46.49574" lon="5.16593">
        <ele>216</ele>
        <time>2022-08-16T13:32:41Z</time>
      </trkpt>
      <trkpt lat="46.49527" lon="5.16611">
        <ele>217</ele>
        <time>2022-08-16T13:32:50Z</time>
      </trkpt>
      <trkpt lat="46.49495" lon="5.16623">
        <ele>217</ele>
        <time>2022-08-16T13:32:55Z</time>
      </trkpt>
      <trkpt lat="46.49452" lon="5.16631">
        <ele>216.2</ele>
        <time>2022-08-16T13:33:01Z</time>
      </trkpt>
      <trkpt lat="46.494" lon="5.16631">
        <ele>215.2</ele>
        <time>2022-08-16T13:33:08Z</time>
      </trkpt>
      <trkpt lat="46.49341" lon="5.16629">
        <ele>215</ele>
        <time>2022-08-16T13:33:16Z</time>
      </trkpt>
      <trkpt lat="46.49328" lon="5.16629">
        <ele>215</ele>
        <time>2022-08-16T13:33:18Z</time>
      </trkpt>
      <trkpt lat="46.49318" lon="5.16629">
        <ele>215</ele>
        <time>2022-08-16T13:33:19Z</time>
      </trkpt>
      <trkpt lat="46.49258" lon="5.16628">
        <ele>214.6</ele>
        <time>2022-08-16T13:33:27Z</time>
      </trkpt>
      <trkpt lat="46.49216" lon="5.16635">
        <ele>214</ele>
        <time>2022-08-16T13:33:32Z</time>
      </trkpt>
      <trkpt lat="46.49208" lon="5.16637">
        <ele>213.8</ele>
        <time>2022-08-16T13:33:33Z</time>
      </trkpt>
      <trkpt lat="46.49155" lon="5.16657">
        <ele>213.4</ele>
        <time>2022-08-16T13:33:40Z</time>
      </trkpt>
      <trkpt lat="46.49125" lon="5.16668">
        <ele>213.4</ele>
        <time>2022-08-16T13:33:44Z</time>
      </trkpt>
      <trkpt lat="46.49067" lon="5.16689">
        <ele>213.4</ele>
        <time>2022-08-16T13:33:52Z</time>
      </trkpt>
      <trkpt lat="46.4906" lon="5.16691">
        <ele>213.4</ele>
        <time>2022-08-16T13:33:53Z</time>
      </trkpt>
      <trkpt lat="46.49005" lon="5.16713">
        <ele>214</ele>
        <time>2022-08-16T13:34:01Z</time>
      </trkpt>
      <trkpt lat="46.48999" lon="5.16716">
        <ele>214</ele>
        <time>2022-08-16T13:34:02Z</time>
      </trkpt>
      <trkpt lat="46.48949" lon="5.16739">
        <ele>214.2</ele>
        <time>2022-08-16T13:34:10Z</time>
      </trkpt>
      <trkpt lat="46.48903" lon="5.16762">
        <ele>215</ele>
        <time>2022-08-16T13:34:18Z</time>
      </trkpt>
      <trkpt lat="46.4888" lon="5.16776">
        <ele>215.2</ele>
        <time>2022-08-16T13:34:22Z</time>
      </trkpt>
      <trkpt lat="46.48859" lon="5.16788">
        <ele>215.4</ele>
        <time>2022-08-16T13:34:26Z</time>
      </trkpt>
      <trkpt lat="46.48837" lon="5.16802">
        <ele>216.2</ele>
        <time>2022-08-16T13:34:30Z</time>
      </trkpt>
      <trkpt lat="46.48813" lon="5.16814">
        <ele>216.8</ele>
        <time>2022-08-16T13:34:34Z</time>
      </trkpt>
      <trkpt lat="46.48775" lon="5.16828">
        <ele>217.2</ele>
        <time>2022-08-16T13:34:40Z</time>
      </trkpt>
      <trkpt lat="46.48768" lon="5.16829">
        <ele>217.4</ele>
        <time>2022-08-16T13:34:41Z</time>
      </trkpt>
      <trkpt lat="46.48711" lon="5.16837">
        <ele>217.4</ele>
        <time>2022-08-16T13:34:50Z</time>
      </trkpt>
      <trkpt lat="46.48704" lon="5.16838">
        <ele>217.4</ele>
        <time>2022-08-16T13:34:51Z</time>
      </trkpt>
      <trkpt lat="46.48646" lon="5.16847">
        <ele>216.8</ele>
        <time>2022-08-16T13:35:00Z</time>
      </trkpt>
      <trkpt lat="46.48586" lon="5.16849">
        <ele>216.8</ele>
        <time>2022-08-16T13:35:09Z</time>
      </trkpt>
      <trkpt lat="46.48539" lon="5.16836">
        <ele>217</ele>
        <time>2022-08-16T13:35:16Z</time>
      </trkpt>
      <trkpt lat="46.48485" lon="5.16804">
        <ele>217.2</ele>
        <time>2022-08-16T13:35:25Z</time>
      </trkpt>
      <trkpt lat="46.48454" lon="5.16784">
        <ele>217.6</ele>
        <time>2022-08-16T13:35:31Z</time>
      </trkpt>
      <trkpt lat="46.48419" lon="5.16761">
        <ele>218.4</ele>
        <time>2022-08-16T13:35:38Z</time>
      </trkpt>
      <trkpt lat="46.48414" lon="5.16758">
        <ele>218.6</ele>
        <time>2022-08-16T13:35:39Z</time>
      </trkpt>
      <trkpt lat="46.48396" lon="5.16747">
        <ele>219.6</ele>
        <time>2022-08-16T13:35:43Z</time>
      </trkpt>
      <trkpt lat="46.48366" lon="5.16727">
        <ele>220.6</ele>
        <time>2022-08-16T13:35:49Z</time>
      </trkpt>
      <trkpt lat="46.48317" lon="5.16694">
        <ele>221.2</ele>
        <time>2022-08-16T13:35:59Z</time>
      </trkpt>
      <trkpt lat="46.48264" lon="5.16666">
        <ele>221.6</ele>
        <time>2022-08-16T13:36:08Z</time>
      </trkpt>
      <trkpt lat="46.48259" lon="5.16663">
        <ele>221.8</ele>
        <time>2022-08-16T13:36:09Z</time>
      </trkpt>
      <trkpt lat="46.48208" lon="5.16641">
        <ele>222</ele>
        <time>2022-08-16T13:36:17Z</time>
      </trkpt>
      <trkpt lat="46.48171" lon="5.16625">
        <ele>222</ele>
        <time>2022-08-16T13:36:23Z</time>
      </trkpt>
      <trkpt lat="46.4816" lon="5.16618">
        <ele>222</ele>
        <time>2022-08-16T13:36:25Z</time>
      </trkpt>
      <trkpt lat="46.48111" lon="5.16585">
        <ele>221.8</ele>
        <time>2022-08-16T13:36:33Z</time>
      </trkpt>
      <trkpt lat="46.48068" lon="5.16548">
        <ele>221.8</ele>
        <time>2022-08-16T13:36:40Z</time>
      </trkpt>
      <trkpt lat="46.48015" lon="5.16506">
        <ele>221.4</ele>
        <time>2022-08-16T13:36:48Z</time>
      </trkpt>
      <trkpt lat="46.48008" lon="5.16501">
        <ele>221.4</ele>
        <time>2022-08-16T13:36:49Z</time>
      </trkpt>
      <trkpt lat="46.47958" lon="5.16464">
        <ele>221</ele>
        <time>2022-08-16T13:36:56Z</time>
      </trkpt>
      <trkpt lat="46.47951" lon="5.16459">
        <ele>220.8</ele>
        <time>2022-08-16T13:36:57Z</time>
      </trkpt>
      <trkpt lat="46.47938" lon="5.16448">
        <ele>220.6</ele>
        <time>2022-08-16T13:36:59Z</time>
      </trkpt>
      <trkpt lat="46.47902" lon="5.16414">
        <ele>219.4</ele>
        <time>2022-08-16T13:37:04Z</time>
      </trkpt>
      <trkpt lat="46.47895" lon="5.16407">
        <ele>219.2</ele>
        <time>2022-08-16T13:37:05Z</time>
      </trkpt>
      <trkpt lat="46.4785" lon="5.16359">
        <ele>218.4</ele>
        <time>2022-08-16T13:37:12Z</time>
      </trkpt>
      <trkpt lat="46.47831" lon="5.16338">
        <ele>218.4</ele>
        <time>2022-08-16T13:37:15Z</time>
      </trkpt>
      <trkpt lat="46.47795" lon="5.16299">
        <ele>218.6</ele>
        <time>2022-08-16T13:37:21Z</time>
      </trkpt>
      <trkpt lat="46.4775" lon="5.16254">
        <ele>218.8</ele>
        <time>2022-08-16T13:37:28Z</time>
      </trkpt>
      <trkpt lat="46.47717" lon="5.16235">
        <ele>219.2</ele>
        <time>2022-08-16T13:37:33Z</time>
      </trkpt>
      <trkpt lat="46.47668" lon="5.16223">
        <ele>219.6</ele>
        <time>2022-08-16T13:37:40Z</time>
      </trkpt>
      <trkpt lat="46.47643" lon="5.16217">
        <ele>220.4</ele>
        <time>2022-08-16T13:37:44Z</time>
      </trkpt>
      <trkpt lat="46.47625" lon="5.16212">
        <ele>220.6</ele>
        <time>2022-08-16T13:37:47Z</time>
      </trkpt>
      <trkpt lat="46.47593" lon="5.16193">
        <ele>221.4</ele>
        <time>2022-08-16T13:37:53Z</time>
      </trkpt>
      <trkpt lat="46.47565" lon="5.16163">
        <ele>221.4</ele>
        <time>2022-08-16T13:37:59Z</time>
      </trkpt>
      <trkpt lat="46.47541" lon="5.16118">
        <ele>221.4</ele>
        <time>2022-08-16T13:38:06Z</time>
      </trkpt>
      <trkpt lat="46.47527" lon="5.16073">
        <ele>221.4</ele>
        <time>2022-08-16T13:38:12Z</time>
      </trkpt>
      <trkpt lat="46.47512" lon="5.1602">
        <ele>221.8</ele>
        <time>2022-08-16T13:38:19Z</time>
      </trkpt>
      <trkpt lat="46.47507" lon="5.16006">
        <ele>222.2</ele>
        <time>2022-08-16T13:38:21Z</time>
      </trkpt>
      <trkpt lat="46.47497" lon="5.15989">
        <ele>222.8</ele>
        <time>2022-08-16T13:38:24Z</time>
      </trkpt>
      <trkpt lat="46.47493" lon="5.15985">
        <ele>222.8</ele>
        <time>2022-08-16T13:38:25Z</time>
      </trkpt>
      <trkpt lat="46.47481" lon="5.15975">
        <ele>223.4</ele>
        <time>2022-08-16T13:38:28Z</time>
      </trkpt>
      <trkpt lat="46.4747" lon="5.15969">
        <ele>223.6</ele>
        <time>2022-08-16T13:38:32Z</time>
      </trkpt>
      <trkpt lat="46.47467" lon="5.15969">
        <ele>223.8</ele>
        <time>2022-08-16T13:38:34Z</time>
      </trkpt>
      <trkpt lat="46.47465" lon="5.15971">
        <ele>223.8</ele>
        <time>2022-08-16T13:38:35Z</time>
      </trkpt>
      <trkpt lat="46.47464" lon="5.15975">
        <ele>223.8</ele>
        <time>2022-08-16T13:38:36Z</time>
      </trkpt>
      <trkpt lat="46.47464" lon="5.15991">
        <ele>224</ele>
        <time>2022-08-16T13:38:39Z</time>
      </trkpt>
      <trkpt lat="46.47465" lon="5.15998">
        <ele>224</ele>
        <time>2022-08-16T13:38:40Z</time>
      </trkpt>
      <trkpt lat="46.4747" lon="5.1603">
        <ele>224.4</ele>
        <time>2022-08-16T13:38:44Z</time>
      </trkpt>
      <trkpt lat="46.47475" lon="5.1608">
        <ele>224.6</ele>
        <time>2022-08-16T13:38:49Z</time>
      </trkpt>
      <trkpt lat="46.47481" lon="5.16152">
        <ele>224.6</ele>
        <time>2022-08-16T13:38:56Z</time>
      </trkpt>
      <trkpt lat="46.4749" lon="5.16233">
        <ele>224.4</ele>
        <time>2022-08-16T13:39:03Z</time>
      </trkpt>
      <trkpt lat="46.47497" lon="5.16311">
        <ele>224.2</ele>
        <time>2022-08-16T13:39:10Z</time>
      </trkpt>
      <trkpt lat="46.47505" lon="5.16387">
        <ele>224.4</ele>
        <time>2022-08-16T13:39:18Z</time>
      </trkpt>
      <trkpt lat="46.47514" lon="5.16469">
        <ele>224.8</ele>
        <time>2022-08-16T13:39:26Z</time>
      </trkpt>
      <trkpt lat="46.47516" lon="5.1648">
        <ele>225</ele>
        <time>2022-08-16T13:39:27Z</time>
      </trkpt>
      <trkpt lat="46.47523" lon="5.16561">
        <ele>224.6</ele>
        <time>2022-08-16T13:39:34Z</time>
      </trkpt>
      <trkpt lat="46.47531" lon="5.1664">
        <ele>224.6</ele>
        <time>2022-08-16T13:39:41Z</time>
      </trkpt>
      <trkpt lat="46.47531" lon="5.16649">
        <ele>224.6</ele>
        <time>2022-08-16T13:39:42Z</time>
      </trkpt>
      <trkpt lat="46.4754" lon="5.16735">
        <ele>225.2</ele>
        <time>2022-08-16T13:39:50Z</time>
      </trkpt>
      <trkpt lat="46.47549" lon="5.16824">
        <ele>225.2</ele>
        <time>2022-08-16T13:39:58Z</time>
      </trkpt>
      <trkpt lat="46.47552" lon="5.16856">
        <ele>225</ele>
        <time>2022-08-16T13:40:01Z</time>
      </trkpt>
      <trkpt lat="46.47561" lon="5.16938">
        <ele>225</ele>
        <time>2022-08-16T13:40:08Z</time>
      </trkpt>
      <trkpt lat="46.47569" lon="5.17017">
        <ele>224.8</ele>
        <time>2022-08-16T13:40:15Z</time>
      </trkpt>
      <trkpt lat="46.47572" lon="5.17051">
        <ele>224.8</ele>
        <time>2022-08-16T13:40:18Z</time>
      </trkpt>
      <trkpt lat="46.4758" lon="5.17132">
        <ele>224.4</ele>
        <time>2022-08-16T13:40:25Z</time>
      </trkpt>
      <trkpt lat="46.47581" lon="5.17144">
        <ele>224.6</ele>
        <time>2022-08-16T13:40:26Z</time>
      </trkpt>
      <trkpt lat="46.47587" lon="5.17194">
        <ele>224</ele>
        <time>2022-08-16T13:40:30Z</time>
      </trkpt>
      <trkpt lat="46.47591" lon="5.17242">
        <ele>223.6</ele>
        <time>2022-08-16T13:40:34Z</time>
      </trkpt>
      <trkpt lat="46.47596" lon="5.17292">
        <ele>223</ele>
        <time>2022-08-16T13:40:38Z</time>
      </trkpt>
      <trkpt lat="46.476" lon="5.17339">
        <ele>222.6</ele>
        <time>2022-08-16T13:40:42Z</time>
      </trkpt>
      <trkpt lat="46.47607" lon="5.17416">
        <ele>221.8</ele>
        <time>2022-08-16T13:40:48Z</time>
      </trkpt>
      <trkpt lat="46.47614" lon="5.17496">
        <ele>220.8</ele>
        <time>2022-08-16T13:40:54Z</time>
      </trkpt>
      <trkpt lat="46.47617" lon="5.17524">
        <ele>220.2</ele>
        <time>2022-08-16T13:40:56Z</time>
      </trkpt>
      <trkpt lat="46.47618" lon="5.17538">
        <ele>219.6</ele>
        <time>2022-08-16T13:40:57Z</time>
      </trkpt>
      <trkpt lat="46.47626" lon="5.1762">
        <ele>218.6</ele>
        <time>2022-08-16T13:41:03Z</time>
      </trkpt>
      <trkpt lat="46.47633" lon="5.17694">
        <ele>217.8</ele>
        <time>2022-08-16T13:41:09Z</time>
      </trkpt>
      <trkpt lat="46.47637" lon="5.17757">
        <ele>218</ele>
        <time>2022-08-16T13:41:15Z</time>
      </trkpt>
      <trkpt lat="46.47644" lon="5.17832">
        <ele>220</ele>
        <time>2022-08-16T13:41:22Z</time>
      </trkpt>
      <trkpt lat="46.47648" lon="5.17885">
        <ele>221</ele>
        <time>2022-08-16T13:41:27Z</time>
      </trkpt>
      <trkpt lat="46.47651" lon="5.17908">
        <ele>221.4</ele>
        <time>2022-08-16T13:41:29Z</time>
      </trkpt>
      <trkpt lat="46.47657" lon="5.17984">
        <ele>221</ele>
        <time>2022-08-16T13:41:35Z</time>
      </trkpt>
      <trkpt lat="46.47665" lon="5.18067">
        <ele>219.8</ele>
        <time>2022-08-16T13:41:41Z</time>
      </trkpt>
      <trkpt lat="46.47666" lon="5.18082">
        <ele>219.6</ele>
        <time>2022-08-16T13:41:42Z</time>
      </trkpt>
      <trkpt lat="46.47669" lon="5.18126">
        <ele>218.8</ele>
        <time>2022-08-16T13:41:45Z</time>
      </trkpt>
      <trkpt lat="46.47673" lon="5.1817">
        <ele>217.4</ele>
        <time>2022-08-16T13:41:48Z</time>
      </trkpt>
      <trkpt lat="46.47674" lon="5.18184">
        <ele>217.2</ele>
        <time>2022-08-16T13:41:49Z</time>
      </trkpt>
      <trkpt lat="46.47677" lon="5.18213">
        <ele>216</ele>
        <time>2022-08-16T13:41:51Z</time>
      </trkpt>
      <trkpt lat="46.47679" lon="5.18241">
        <ele>214.8</ele>
        <time>2022-08-16T13:41:53Z</time>
      </trkpt>
      <trkpt lat="46.47683" lon="5.18281">
        <ele>213.6</ele>
        <time>2022-08-16T13:41:56Z</time>
      </trkpt>
      <trkpt lat="46.47687" lon="5.18321">
        <ele>212.8</ele>
        <time>2022-08-16T13:41:59Z</time>
      </trkpt>
      <trkpt lat="46.47688" lon="5.18334">
        <ele>212.4</ele>
        <time>2022-08-16T13:42:00Z</time>
      </trkpt>
      <trkpt lat="46.47694" lon="5.18383">
        <ele>211.4</ele>
        <time>2022-08-16T13:42:04Z</time>
      </trkpt>
      <trkpt lat="46.47696" lon="5.18408">
        <ele>211</ele>
        <time>2022-08-16T13:42:06Z</time>
      </trkpt>
      <trkpt lat="46.47699" lon="5.18458">
        <ele>210.4</ele>
        <time>2022-08-16T13:42:10Z</time>
      </trkpt>
      <trkpt lat="46.477" lon="5.18495">
        <ele>210.2</ele>
        <time>2022-08-16T13:42:13Z</time>
      </trkpt>
      <trkpt lat="46.47704" lon="5.18545">
        <ele>209.2</ele>
        <time>2022-08-16T13:42:17Z</time>
      </trkpt>
      <trkpt lat="46.47712" lon="5.18629">
        <ele>209</ele>
        <time>2022-08-16T13:42:24Z</time>
      </trkpt>
      <trkpt lat="46.47713" lon="5.1864">
        <ele>209</ele>
        <time>2022-08-16T13:42:25Z</time>
      </trkpt>
      <trkpt lat="46.4772" lon="5.18722">
        <ele>209.4</ele>
        <time>2022-08-16T13:42:32Z</time>
      </trkpt>
      <trkpt lat="46.47723" lon="5.18745">
        <ele>209.4</ele>
        <time>2022-08-16T13:42:34Z</time>
      </trkpt>
      <trkpt lat="46.4773" lon="5.18825">
        <ele>209.2</ele>
        <time>2022-08-16T13:42:41Z</time>
      </trkpt>
      <trkpt lat="46.47731" lon="5.18835">
        <ele>209.2</ele>
        <time>2022-08-16T13:42:42Z</time>
      </trkpt>
      <trkpt lat="46.47735" lon="5.18887">
        <ele>209.6</ele>
        <time>2022-08-16T13:42:47Z</time>
      </trkpt>
      <trkpt lat="46.47737" lon="5.18906">
        <ele>210</ele>
        <time>2022-08-16T13:42:49Z</time>
      </trkpt>
      <trkpt lat="46.47738" lon="5.18925">
        <ele>210.4</ele>
        <time>2022-08-16T13:42:51Z</time>
      </trkpt>
      <trkpt lat="46.4774" lon="5.18943">
        <ele>210.8</ele>
        <time>2022-08-16T13:42:53Z</time>
      </trkpt>
      <trkpt lat="46.47742" lon="5.18958">
        <ele>211.4</ele>
        <time>2022-08-16T13:42:55Z</time>
      </trkpt>
      <trkpt lat="46.47743" lon="5.18968">
        <ele>211.6</ele>
        <time>2022-08-16T13:42:56Z</time>
      </trkpt>
      <trkpt lat="46.47747" lon="5.19015">
        <ele>212.4</ele>
        <time>2022-08-16T13:43:02Z</time>
      </trkpt>
      <trkpt lat="46.47747" lon="5.19022">
        <ele>212.4</ele>
        <time>2022-08-16T13:43:03Z</time>
      </trkpt>
      <trkpt lat="46.47748" lon="5.19029">
        <ele>212.8</ele>
        <time>2022-08-16T13:43:04Z</time>
      </trkpt>
      <trkpt lat="46.4775" lon="5.19051">
        <ele>213.4</ele>
        <time>2022-08-16T13:43:07Z</time>
      </trkpt>
      <trkpt lat="46.4775" lon="5.19058">
        <ele>213.6</ele>
        <time>2022-08-16T13:43:08Z</time>
      </trkpt>
      <trkpt lat="46.47753" lon="5.19074">
        <ele>213.8</ele>
        <time>2022-08-16T13:43:10Z</time>
      </trkpt>
      <trkpt lat="46.47753" lon="5.19082">
        <ele>214</ele>
        <time>2022-08-16T13:43:11Z</time>
      </trkpt>
      <trkpt lat="46.47753" lon="5.19099">
        <ele>214</ele>
        <time>2022-08-16T13:43:13Z</time>
      </trkpt>
      <trkpt lat="46.47753" lon="5.19107">
        <ele>214</ele>
        <time>2022-08-16T13:43:14Z</time>
      </trkpt>
      <trkpt lat="46.47758" lon="5.19152">
        <ele>214.8</ele>
        <time>2022-08-16T13:43:20Z</time>
      </trkpt>
      <trkpt lat="46.47759" lon="5.19158">
        <ele>215</ele>
        <time>2022-08-16T13:43:21Z</time>
      </trkpt>
      <trkpt lat="46.47764" lon="5.192">
        <ele>216</ele>
        <time>2022-08-16T13:43:27Z</time>
      </trkpt>
      <trkpt lat="46.47766" lon="5.1922">
        <ele>216.6</ele>
        <time>2022-08-16T13:43:30Z</time>
      </trkpt>
      <trkpt lat="46.47769" lon="5.19248">
        <ele>217.2</ele>
        <time>2022-08-16T13:43:34Z</time>
      </trkpt>
      <trkpt lat="46.47772" lon="5.19276">
        <ele>218</ele>
        <time>2022-08-16T13:43:38Z</time>
      </trkpt>
      <trkpt lat="46.47773" lon="5.19282">
        <ele>218.2</ele>
        <time>2022-08-16T13:43:39Z</time>
      </trkpt>
      <trkpt lat="46.47774" lon="5.19308">
        <ele>219.2</ele>
        <time>2022-08-16T13:43:43Z</time>
      </trkpt>
      <trkpt lat="46.47775" lon="5.19315">
        <ele>219.6</ele>
        <time>2022-08-16T13:43:44Z</time>
      </trkpt>
      <trkpt lat="46.47778" lon="5.19347">
        <ele>220.4</ele>
        <time>2022-08-16T13:43:48Z</time>
      </trkpt>
      <trkpt lat="46.47779" lon="5.19355">
        <ele>220.6</ele>
        <time>2022-08-16T13:43:49Z</time>
      </trkpt>
      <trkpt lat="46.47782" lon="5.19396">
        <ele>221.4</ele>
        <time>2022-08-16T13:43:54Z</time>
      </trkpt>
      <trkpt lat="46.47784" lon="5.19413">
        <ele>221.6</ele>
        <time>2022-08-16T13:43:56Z</time>
      </trkpt>
      <trkpt lat="46.47789" lon="5.19477">
        <ele>222.2</ele>
        <time>2022-08-16T13:44:03Z</time>
      </trkpt>
      <trkpt lat="46.47796" lon="5.19561">
        <ele>222.4</ele>
        <time>2022-08-16T13:44:12Z</time>
      </trkpt>
      <trkpt lat="46.47797" lon="5.19571">
        <ele>222.4</ele>
        <time>2022-08-16T13:44:13Z</time>
      </trkpt>
      <trkpt lat="46.47804" lon="5.19651">
        <ele>222.2</ele>
        <time>2022-08-16T13:44:21Z</time>
      </trkpt>
      <trkpt lat="46.47804" lon="5.19661">
        <ele>222.2</ele>
        <time>2022-08-16T13:44:22Z</time>
      </trkpt>
      <trkpt lat="46.47812" lon="5.19741">
        <ele>221.6</ele>
        <time>2022-08-16T13:44:30Z</time>
      </trkpt>
      <trkpt lat="46.47819" lon="5.19825">
        <ele>221.4</ele>
        <time>2022-08-16T13:44:38Z</time>
      </trkpt>
      <trkpt lat="46.47822" lon="5.19858">
        <ele>221.2</ele>
        <time>2022-08-16T13:44:41Z</time>
      </trkpt>
      <trkpt lat="46.4783" lon="5.19946">
        <ele>221</ele>
        <time>2022-08-16T13:44:49Z</time>
      </trkpt>
      <trkpt lat="46.47832" lon="5.19957">
        <ele>221</ele>
        <time>2022-08-16T13:44:50Z</time>
      </trkpt>
      <trkpt lat="46.47839" lon="5.20043">
        <ele>221.6</ele>
        <time>2022-08-16T13:44:58Z</time>
      </trkpt>
      <trkpt lat="46.47848" lon="5.20118">
        <ele>221.6</ele>
        <time>2022-08-16T13:45:05Z</time>
      </trkpt>
      <trkpt lat="46.47857" lon="5.20202">
        <ele>221.4</ele>
        <time>2022-08-16T13:45:12Z</time>
      </trkpt>
      <trkpt lat="46.47861" lon="5.20241">
        <ele>220.6</ele>
        <time>2022-08-16T13:45:15Z</time>
      </trkpt>
      <trkpt lat="46.47867" lon="5.20303">
        <ele>219.8</ele>
        <time>2022-08-16T13:45:20Z</time>
      </trkpt>
      <trkpt lat="46.47872" lon="5.20348">
        <ele>219.2</ele>
        <time>2022-08-16T13:45:24Z</time>
      </trkpt>
      <trkpt lat="46.47874" lon="5.2037">
        <ele>219</ele>
        <time>2022-08-16T13:45:26Z</time>
      </trkpt>
      <trkpt lat="46.47883" lon="5.20441">
        <ele>219.8</ele>
        <time>2022-08-16T13:45:33Z</time>
      </trkpt>
      <trkpt lat="46.47891" lon="5.20526">
        <ele>219.8</ele>
        <time>2022-08-16T13:45:41Z</time>
      </trkpt>
      <trkpt lat="46.47898" lon="5.20609">
        <ele>219</ele>
        <time>2022-08-16T13:45:48Z</time>
      </trkpt>
      <trkpt lat="46.47902" lon="5.20664">
        <ele>218</ele>
        <time>2022-08-16T13:45:52Z</time>
      </trkpt>
      <trkpt lat="46.47904" lon="5.20693">
        <ele>217.4</ele>
        <time>2022-08-16T13:45:54Z</time>
      </trkpt>
      <trkpt lat="46.47905" lon="5.20707">
        <ele>216.8</ele>
        <time>2022-08-16T13:45:55Z</time>
      </trkpt>
      <trkpt lat="46.47907" lon="5.20737">
        <ele>215.6</ele>
        <time>2022-08-16T13:45:57Z</time>
      </trkpt>
      <trkpt lat="46.4791" lon="5.20767">
        <ele>214.4</ele>
        <time>2022-08-16T13:45:59Z</time>
      </trkpt>
      <trkpt lat="46.47912" lon="5.20797">
        <ele>213.2</ele>
        <time>2022-08-16T13:46:01Z</time>
      </trkpt>
      <trkpt lat="46.47915" lon="5.20842">
        <ele>212</ele>
        <time>2022-08-16T13:46:04Z</time>
      </trkpt>
      <trkpt lat="46.47916" lon="5.20873">
        <ele>210.8</ele>
        <time>2022-08-16T13:46:06Z</time>
      </trkpt>
      <trkpt lat="46.47915" lon="5.20888">
        <ele>210.2</ele>
        <time>2022-08-16T13:46:07Z</time>
      </trkpt>
      <trkpt lat="46.47912" lon="5.20917">
        <ele>209.6</ele>
        <time>2022-08-16T13:46:09Z</time>
      </trkpt>
      <trkpt lat="46.47908" lon="5.20941">
        <ele>209.2</ele>
        <time>2022-08-16T13:46:11Z</time>
      </trkpt>
      <trkpt lat="46.47894" lon="5.21006">
        <ele>208.6</ele>
        <time>2022-08-16T13:46:16Z</time>
      </trkpt>
      <trkpt lat="46.47881" lon="5.21067">
        <ele>209.2</ele>
        <time>2022-08-16T13:46:22Z</time>
      </trkpt>
      <trkpt lat="46.47875" lon="5.21094">
        <ele>209.8</ele>
        <time>2022-08-16T13:46:25Z</time>
      </trkpt>
      <trkpt lat="46.47868" lon="5.21127">
        <ele>210.6</ele>
        <time>2022-08-16T13:46:29Z</time>
      </trkpt>
      <trkpt lat="46.47865" lon="5.21144">
        <ele>211</ele>
        <time>2022-08-16T13:46:31Z</time>
      </trkpt>
      <trkpt lat="46.47859" lon="5.21175">
        <ele>212</ele>
        <time>2022-08-16T13:46:35Z</time>
      </trkpt>
      <trkpt lat="46.47855" lon="5.2119">
        <ele>212.6</ele>
        <time>2022-08-16T13:46:37Z</time>
      </trkpt>
      <trkpt lat="46.47849" lon="5.21213">
        <ele>213.4</ele>
        <time>2022-08-16T13:46:40Z</time>
      </trkpt>
      <trkpt lat="46.47843" lon="5.21242">
        <ele>214</ele>
        <time>2022-08-16T13:46:44Z</time>
      </trkpt>
      <trkpt lat="46.4784" lon="5.21256">
        <ele>214.4</ele>
        <time>2022-08-16T13:46:46Z</time>
      </trkpt>
      <trkpt lat="46.47834" lon="5.21277">
        <ele>215.6</ele>
        <time>2022-08-16T13:46:49Z</time>
      </trkpt>
      <trkpt lat="46.47826" lon="5.21306">
        <ele>216</ele>
        <time>2022-08-16T13:46:53Z</time>
      </trkpt>
      <trkpt lat="46.47814" lon="5.21346">
        <ele>216.8</ele>
        <time>2022-08-16T13:46:58Z</time>
      </trkpt>
      <trkpt lat="46.47809" lon="5.21364">
        <ele>216.8</ele>
        <time>2022-08-16T13:47:00Z</time>
      </trkpt>
      <trkpt lat="46.47787" lon="5.21439">
        <ele>216.2</ele>
        <time>2022-08-16T13:47:08Z</time>
      </trkpt>
      <trkpt lat="46.47771" lon="5.21493">
        <ele>215.6</ele>
        <time>2022-08-16T13:47:13Z</time>
      </trkpt>
      <trkpt lat="46.4776" lon="5.21531">
        <ele>215.4</ele>
        <time>2022-08-16T13:47:17Z</time>
      </trkpt>
      <trkpt lat="46.47744" lon="5.21585">
        <ele>215.6</ele>
        <time>2022-08-16T13:47:23Z</time>
      </trkpt>
      <trkpt lat="46.47726" lon="5.21645">
        <ele>216.6</ele>
        <time>2022-08-16T13:47:31Z</time>
      </trkpt>
      <trkpt lat="46.47722" lon="5.21659">
        <ele>217</ele>
        <time>2022-08-16T13:47:33Z</time>
      </trkpt>
      <trkpt lat="46.47714" lon="5.21694">
        <ele>218.2</ele>
        <time>2022-08-16T13:47:38Z</time>
      </trkpt>
      <trkpt lat="46.47712" lon="5.21711">
        <ele>218.8</ele>
        <time>2022-08-16T13:47:40Z</time>
      </trkpt>
      <trkpt lat="46.47712" lon="5.21728">
        <ele>219.2</ele>
        <time>2022-08-16T13:47:42Z</time>
      </trkpt>
      <trkpt lat="46.47713" lon="5.21736">
        <ele>219.4</ele>
        <time>2022-08-16T13:47:43Z</time>
      </trkpt>
      <trkpt lat="46.47717" lon="5.21782">
        <ele>219.8</ele>
        <time>2022-08-16T13:47:48Z</time>
      </trkpt>
      <trkpt lat="46.47723" lon="5.21859">
        <ele>219.4</ele>
        <time>2022-08-16T13:47:55Z</time>
      </trkpt>
      <trkpt lat="46.4773" lon="5.21937">
        <ele>218.6</ele>
        <time>2022-08-16T13:48:02Z</time>
      </trkpt>
      <trkpt lat="46.47731" lon="5.21948">
        <ele>218.6</ele>
        <time>2022-08-16T13:48:03Z</time>
      </trkpt>
      <trkpt lat="46.47738" lon="5.22029">
        <ele>218.4</ele>
        <time>2022-08-16T13:48:11Z</time>
      </trkpt>
      <trkpt lat="46.47744" lon="5.22106">
        <ele>218.8</ele>
        <time>2022-08-16T13:48:19Z</time>
      </trkpt>
      <trkpt lat="46.47752" lon="5.22192">
        <ele>219.8</ele>
        <time>2022-08-16T13:48:28Z</time>
      </trkpt>
      <trkpt lat="46.47759" lon="5.22275">
        <ele>220.4</ele>
        <time>2022-08-16T13:48:37Z</time>
      </trkpt>
      <trkpt lat="46.4776" lon="5.22284">
        <ele>220.4</ele>
        <time>2022-08-16T13:48:38Z</time>
      </trkpt>
      <trkpt lat="46.47766" lon="5.22346">
        <ele>221.6</ele>
        <time>2022-08-16T13:48:45Z</time>
      </trkpt>
      <trkpt lat="46.47768" lon="5.22364">
        <ele>221.6</ele>
        <time>2022-08-16T13:48:47Z</time>
      </trkpt>
      <trkpt lat="46.47781" lon="5.22434">
        <ele>222.6</ele>
        <time>2022-08-16T13:48:55Z</time>
      </trkpt>
      <trkpt lat="46.47783" lon="5.22443">
        <ele>222.6</ele>
        <time>2022-08-16T13:48:56Z</time>
      </trkpt>
      <trkpt lat="46.47798" lon="5.22519">
        <ele>223.4</ele>
        <time>2022-08-16T13:49:04Z</time>
      </trkpt>
      <trkpt lat="46.47812" lon="5.22567">
        <ele>223.4</ele>
        <time>2022-08-16T13:49:09Z</time>
      </trkpt>
      <trkpt lat="46.47816" lon="5.22573">
        <ele>223.4</ele>
        <time>2022-08-16T13:49:10Z</time>
      </trkpt>
      <trkpt lat="46.47827" lon="5.22591">
        <ele>223.4</ele>
        <time>2022-08-16T13:49:12Z</time>
      </trkpt>
      <trkpt lat="46.47848" lon="5.22613">
        <ele>223.2</ele>
        <time>2022-08-16T13:49:15Z</time>
      </trkpt>
      <trkpt lat="46.47895" lon="5.22662">
        <ele>221.4</ele>
        <time>2022-08-16T13:49:21Z</time>
      </trkpt>
      <trkpt lat="46.4792" lon="5.22688">
        <ele>220.2</ele>
        <time>2022-08-16T13:49:24Z</time>
      </trkpt>
      <trkpt lat="46.47946" lon="5.22716">
        <ele>219</ele>
        <time>2022-08-16T13:49:27Z</time>
      </trkpt>
      <trkpt lat="46.47963" lon="5.22737">
        <ele>217.8</ele>
        <time>2022-08-16T13:49:29Z</time>
      </trkpt>
      <trkpt lat="46.4797" lon="5.22748">
        <ele>217.4</ele>
        <time>2022-08-16T13:49:30Z</time>
      </trkpt>
      <trkpt lat="46.47982" lon="5.22771">
        <ele>216.6</ele>
        <time>2022-08-16T13:49:32Z</time>
      </trkpt>
      <trkpt lat="46.47993" lon="5.228">
        <ele>215.4</ele>
        <time>2022-08-16T13:49:34Z</time>
      </trkpt>
      <trkpt lat="46.48008" lon="5.22841">
        <ele>214.4</ele>
        <time>2022-08-16T13:49:37Z</time>
      </trkpt>
      <trkpt lat="46.48023" lon="5.22881">
        <ele>213.2</ele>
        <time>2022-08-16T13:49:40Z</time>
      </trkpt>
      <trkpt lat="46.48036" lon="5.22922">
        <ele>212.2</ele>
        <time>2022-08-16T13:49:43Z</time>
      </trkpt>
      <trkpt lat="46.4804" lon="5.22936">
        <ele>212.2</ele>
        <time>2022-08-16T13:49:44Z</time>
      </trkpt>
      <trkpt lat="46.48043" lon="5.22951">
        <ele>211.8</ele>
        <time>2022-08-16T13:49:45Z</time>
      </trkpt>
      <trkpt lat="46.48046" lon="5.22996">
        <ele>210.8</ele>
        <time>2022-08-16T13:49:48Z</time>
      </trkpt>
      <trkpt lat="46.48048" lon="5.23085">
        <ele>209.8</ele>
        <time>2022-08-16T13:49:54Z</time>
      </trkpt>
      <trkpt lat="46.48048" lon="5.231">
        <ele>209.6</ele>
        <time>2022-08-16T13:49:55Z</time>
      </trkpt>
      <trkpt lat="46.48049" lon="5.23131">
        <ele>208.8</ele>
        <time>2022-08-16T13:49:57Z</time>
      </trkpt>
      <trkpt lat="46.4805" lon="5.23162">
        <ele>208.2</ele>
        <time>2022-08-16T13:49:59Z</time>
      </trkpt>
      <trkpt lat="46.48051" lon="5.23226">
        <ele>207.2</ele>
        <time>2022-08-16T13:50:03Z</time>
      </trkpt>
      <trkpt lat="46.48052" lon="5.23256">
        <ele>206.2</ele>
        <time>2022-08-16T13:50:05Z</time>
      </trkpt>
      <trkpt lat="46.48052" lon="5.23271">
        <ele>205.8</ele>
        <time>2022-08-16T13:50:06Z</time>
      </trkpt>
      <trkpt lat="46.48053" lon="5.23315">
        <ele>204.6</ele>
        <time>2022-08-16T13:50:09Z</time>
      </trkpt>
      <trkpt lat="46.48054" lon="5.23344">
        <ele>204</ele>
        <time>2022-08-16T13:50:11Z</time>
      </trkpt>
      <trkpt lat="46.48055" lon="5.23411">
        <ele>203.8</ele>
        <time>2022-08-16T13:50:16Z</time>
      </trkpt>
      <trkpt lat="46.48056" lon="5.2345">
        <ele>203.6</ele>
        <time>2022-08-16T13:50:19Z</time>
      </trkpt>
      <trkpt lat="46.48059" lon="5.23537">
        <ele>203.2</ele>
        <time>2022-08-16T13:50:26Z</time>
      </trkpt>
      <trkpt lat="46.48059" lon="5.23548">
        <ele>203.2</ele>
        <time>2022-08-16T13:50:27Z</time>
      </trkpt>
      <trkpt lat="46.48062" lon="5.23626">
        <ele>202.8</ele>
        <time>2022-08-16T13:50:34Z</time>
      </trkpt>
      <trkpt lat="46.48063" lon="5.23639">
        <ele>202.8</ele>
        <time>2022-08-16T13:50:35Z</time>
      </trkpt>
      <trkpt lat="46.48072" lon="5.2368">
        <ele>202.8</ele>
        <time>2022-08-16T13:50:39Z</time>
      </trkpt>
      <trkpt lat="46.48084" lon="5.23717">
        <ele>202.8</ele>
        <time>2022-08-16T13:50:43Z</time>
      </trkpt>
      <trkpt lat="46.48087" lon="5.23726">
        <ele>203</ele>
        <time>2022-08-16T13:50:44Z</time>
      </trkpt>
      <trkpt lat="46.48094" lon="5.23741">
        <ele>203</ele>
        <time>2022-08-16T13:50:46Z</time>
      </trkpt>
      <trkpt lat="46.48112" lon="5.23771">
        <ele>203.4</ele>
        <time>2022-08-16T13:50:50Z</time>
      </trkpt>
      <trkpt lat="46.4815" lon="5.23816">
        <ele>203.6</ele>
        <time>2022-08-16T13:50:57Z</time>
      </trkpt>
      <trkpt lat="46.4817" lon="5.23843">
        <ele>203.8</ele>
        <time>2022-08-16T13:51:01Z</time>
      </trkpt>
      <trkpt lat="46.48179" lon="5.23858">
        <ele>204</ele>
        <time>2022-08-16T13:51:03Z</time>
      </trkpt>
      <trkpt lat="46.48182" lon="5.23866">
        <ele>204</ele>
        <time>2022-08-16T13:51:04Z</time>
      </trkpt>
      <trkpt lat="46.48185" lon="5.23875">
        <ele>204</ele>
        <time>2022-08-16T13:51:05Z</time>
      </trkpt>
      <trkpt lat="46.48189" lon="5.23902">
        <ele>204.2</ele>
        <time>2022-08-16T13:51:08Z</time>
      </trkpt>
      <trkpt lat="46.4819" lon="5.23913">
        <ele>204.2</ele>
        <time>2022-08-16T13:51:09Z</time>
      </trkpt>
      <trkpt lat="46.48188" lon="5.23932">
        <ele>204.4</ele>
        <time>2022-08-16T13:51:11Z</time>
      </trkpt>
      <trkpt lat="46.48184" lon="5.23949">
        <ele>204.8</ele>
        <time>2022-08-16T13:51:13Z</time>
      </trkpt>
      <trkpt lat="46.48178" lon="5.23971">
        <ele>205</ele>
        <time>2022-08-16T13:51:16Z</time>
      </trkpt>
      <trkpt lat="46.48172" lon="5.23985">
        <ele>205.2</ele>
        <time>2022-08-16T13:51:18Z</time>
      </trkpt>
      <trkpt lat="46.4816" lon="5.24017">
        <ele>206.2</ele>
        <time>2022-08-16T13:51:24Z</time>
      </trkpt>
      <trkpt lat="46.48158" lon="5.24022">
        <ele>206.2</ele>
        <time>2022-08-16T13:51:25Z</time>
      </trkpt>
      <trkpt lat="46.48148" lon="5.24049">
        <ele>207.2</ele>
        <time>2022-08-16T13:51:30Z</time>
      </trkpt>
      <trkpt lat="46.48144" lon="5.2406">
        <ele>207.6</ele>
        <time>2022-08-16T13:51:32Z</time>
      </trkpt>
      <trkpt lat="46.48134" lon="5.24085">
        <ele>208.4</ele>
        <time>2022-08-16T13:51:37Z</time>
      </trkpt>
      <trkpt lat="46.48126" lon="5.24106">
        <ele>209</ele>
        <time>2022-08-16T13:51:41Z</time>
      </trkpt>
      <trkpt lat="46.48122" lon="5.24116">
        <ele>209.4</ele>
        <time>2022-08-16T13:51:43Z</time>
      </trkpt>
      <trkpt lat="46.48112" lon="5.24141">
        <ele>210.6</ele>
        <time>2022-08-16T13:51:48Z</time>
      </trkpt>
      <trkpt lat="46.48105" lon="5.2416">
        <ele>211.6</ele>
        <time>2022-08-16T13:51:52Z</time>
      </trkpt>
      <trkpt lat="46.48095" lon="5.24183">
        <ele>212.8</ele>
        <time>2022-08-16T13:51:57Z</time>
      </trkpt>
      <trkpt lat="46.4809" lon="5.24197">
        <ele>213.8</ele>
        <time>2022-08-16T13:52:00Z</time>
      </trkpt>
      <trkpt lat="46.48088" lon="5.24202">
        <ele>214</ele>
        <time>2022-08-16T13:52:01Z</time>
      </trkpt>
      <trkpt lat="46.48084" lon="5.24215">
        <ele>215.2</ele>
        <time>2022-08-16T13:52:04Z</time>
      </trkpt>
      <trkpt lat="46.48079" lon="5.2423">
        <ele>216</ele>
        <time>2022-08-16T13:52:07Z</time>
      </trkpt>
      <trkpt lat="46.48077" lon="5.24235">
        <ele>216.2</ele>
        <time>2022-08-16T13:52:08Z</time>
      </trkpt>
      <trkpt lat="46.48072" lon="5.24275">
        <ele>217</ele>
        <time>2022-08-16T13:52:16Z</time>
      </trkpt>
      <trkpt lat="46.48072" lon="5.2428">
        <ele>217.2</ele>
        <time>2022-08-16T13:52:17Z</time>
      </trkpt>
      <trkpt lat="46.48077" lon="5.24299">
        <ele>218.4</ele>
        <time>2022-08-16T13:52:21Z</time>
      </trkpt>
      <trkpt lat="46.48079" lon="5.24305">
        <ele>218.6</ele>
        <time>2022-08-16T13:52:22Z</time>
      </trkpt>
      <trkpt lat="46.48091" lon="5.24323">
        <ele>219.8</ele>
        <time>2022-08-16T13:52:27Z</time>
      </trkpt>
      <trkpt lat="46.48094" lon="5.24326">
        <ele>220</ele>
        <time>2022-08-16T13:52:28Z</time>
      </trkpt>
      <trkpt lat="46.48106" lon="5.24342">
        <ele>221</ele>
        <time>2022-08-16T13:52:33Z</time>
      </trkpt>
      <trkpt lat="46.48107" lon="5.24346">
        <ele>221.4</ele>
        <time>2022-08-16T13:52:34Z</time>
      </trkpt>
      <trkpt lat="46.48104" lon="5.24365">
        <ele>222</ele>
        <time>2022-08-16T13:52:38Z</time>
      </trkpt>
      <trkpt lat="46.48095" lon="5.24376">
        <ele>223.2</ele>
        <time>2022-08-16T13:52:41Z</time>
      </trkpt>
      <trkpt lat="46.48091" lon="5.2438">
        <ele>223.4</ele>
        <time>2022-08-16T13:52:42Z</time>
      </trkpt>
      <trkpt lat="46.48061" lon="5.24404">
        <ele>223.8</ele>
        <time>2022-08-16T13:52:48Z</time>
      </trkpt>
      <trkpt lat="46.4803" lon="5.24425">
        <ele>223.8</ele>
        <time>2022-08-16T13:52:54Z</time>
      </trkpt>
      <trkpt lat="46.47986" lon="5.24454">
        <ele>224</ele>
        <time>2022-08-16T13:53:02Z</time>
      </trkpt>
      <trkpt lat="46.47982" lon="5.24458">
        <ele>224.2</ele>
        <time>2022-08-16T13:53:03Z</time>
      </trkpt>
      <trkpt lat="46.47938" lon="5.24486">
        <ele>225</ele>
        <time>2022-08-16T13:53:11Z</time>
      </trkpt>
      <trkpt lat="46.47922" lon="5.24494">
        <ele>225</ele>
        <time>2022-08-16T13:53:14Z</time>
      </trkpt>
      <trkpt lat="46.47905" lon="5.24497">
        <ele>225.2</ele>
        <time>2022-08-16T13:53:17Z</time>
      </trkpt>
      <trkpt lat="46.47895" lon="5.24498">
        <ele>225.4</ele>
        <time>2022-08-16T13:53:19Z</time>
      </trkpt>
      <trkpt lat="46.47864" lon="5.24496">
        <ele>226</ele>
        <time>2022-08-16T13:53:24Z</time>
      </trkpt>
      <trkpt lat="46.47815" lon="5.24497">
        <ele>225.8</ele>
        <time>2022-08-16T13:53:31Z</time>
      </trkpt>
      <trkpt lat="46.47765" lon="5.24503">
        <ele>224.6</ele>
        <time>2022-08-16T13:53:38Z</time>
      </trkpt>
      <trkpt lat="46.47735" lon="5.24511">
        <ele>224.4</ele>
        <time>2022-08-16T13:53:42Z</time>
      </trkpt>
      <trkpt lat="46.47701" lon="5.24523">
        <ele>224.2</ele>
        <time>2022-08-16T13:53:47Z</time>
      </trkpt>
      <trkpt lat="46.47655" lon="5.24545">
        <ele>224.6</ele>
        <time>2022-08-16T13:53:54Z</time>
      </trkpt>
      <trkpt lat="46.47602" lon="5.24577">
        <ele>224.6</ele>
        <time>2022-08-16T13:54:02Z</time>
      </trkpt>
      <trkpt lat="46.47588" lon="5.24585">
        <ele>224.4</ele>
        <time>2022-08-16T13:54:04Z</time>
      </trkpt>
      <trkpt lat="46.47573" lon="5.24593">
        <ele>224</ele>
        <time>2022-08-16T13:54:06Z</time>
      </trkpt>
      <trkpt lat="46.47528" lon="5.24618">
        <ele>223.8</ele>
        <time>2022-08-16T13:54:12Z</time>
      </trkpt>
      <trkpt lat="46.47482" lon="5.24636">
        <ele>223.4</ele>
        <time>2022-08-16T13:54:18Z</time>
      </trkpt>
      <trkpt lat="46.47476" lon="5.24637">
        <ele>223.2</ele>
        <time>2022-08-16T13:54:19Z</time>
      </trkpt>
      <trkpt lat="46.47437" lon="5.2464">
        <ele>223.2</ele>
        <time>2022-08-16T13:54:24Z</time>
      </trkpt>
      <trkpt lat="46.47376" lon="5.24645">
        <ele>222.8</ele>
        <time>2022-08-16T13:54:32Z</time>
      </trkpt>
      <trkpt lat="46.47368" lon="5.24646">
        <ele>222.8</ele>
        <time>2022-08-16T13:54:33Z</time>
      </trkpt>
      <trkpt lat="46.47329" lon="5.2465">
        <ele>222.2</ele>
        <time>2022-08-16T13:54:38Z</time>
      </trkpt>
      <trkpt lat="46.47296" lon="5.24651">
        <ele>222</ele>
        <time>2022-08-16T13:54:42Z</time>
      </trkpt>
      <trkpt lat="46.47271" lon="5.24652">
        <ele>221</ele>
        <time>2022-08-16T13:54:45Z</time>
      </trkpt>
      <trkpt lat="46.47236" lon="5.24653">
        <ele>220</ele>
        <time>2022-08-16T13:54:49Z</time>
      </trkpt>
      <trkpt lat="46.47186" lon="5.2465">
        <ele>218.6</ele>
        <time>2022-08-16T13:54:55Z</time>
      </trkpt>
      <trkpt lat="46.47169" lon="5.24647">
        <ele>218</ele>
        <time>2022-08-16T13:54:57Z</time>
      </trkpt>
      <trkpt lat="46.47144" lon="5.24639">
        <ele>217.4</ele>
        <time>2022-08-16T13:55:00Z</time>
      </trkpt>
      <trkpt lat="46.47112" lon="5.24627">
        <ele>216.6</ele>
        <time>2022-08-16T13:55:04Z</time>
      </trkpt>
      <trkpt lat="46.47105" lon="5.24629">
        <ele>216</ele>
        <time>2022-08-16T13:55:05Z</time>
      </trkpt>
      <trkpt lat="46.47098" lon="5.24634">
        <ele>215.6</ele>
        <time>2022-08-16T13:55:06Z</time>
      </trkpt>
      <trkpt lat="46.47088" lon="5.24651">
        <ele>215</ele>
        <time>2022-08-16T13:55:08Z</time>
      </trkpt>
      <trkpt lat="46.47085" lon="5.24662">
        <ele>214.6</ele>
        <time>2022-08-16T13:55:09Z</time>
      </trkpt>
      <trkpt lat="46.47075" lon="5.24695">
        <ele>213.6</ele>
        <time>2022-08-16T13:55:12Z</time>
      </trkpt>
      <trkpt lat="46.47072" lon="5.24703">
        <ele>213.4</ele>
        <time>2022-08-16T13:55:13Z</time>
      </trkpt>
      <trkpt lat="46.47045" lon="5.24755">
        <ele>212.6</ele>
        <time>2022-08-16T13:55:18Z</time>
      </trkpt>
      <trkpt lat="46.47038" lon="5.24765">
        <ele>212.2</ele>
        <time>2022-08-16T13:55:19Z</time>
      </trkpt>
      <trkpt lat="46.47013" lon="5.24793">
        <ele>211.4</ele>
        <time>2022-08-16T13:55:22Z</time>
      </trkpt>
      <trkpt lat="46.47005" lon="5.24801">
        <ele>211</ele>
        <time>2022-08-16T13:55:23Z</time>
      </trkpt>
      <trkpt lat="46.46979" lon="5.24825">
        <ele>209.8</ele>
        <time>2022-08-16T13:55:26Z</time>
      </trkpt>
      <trkpt lat="46.46954" lon="5.24846">
        <ele>209</ele>
        <time>2022-08-16T13:55:29Z</time>
      </trkpt>
      <trkpt lat="46.46917" lon="5.24876">
        <ele>208.6</ele>
        <time>2022-08-16T13:55:34Z</time>
      </trkpt>
      <trkpt lat="46.46886" lon="5.24902">
        <ele>209</ele>
        <time>2022-08-16T13:55:39Z</time>
      </trkpt>
      <trkpt lat="46.46845" lon="5.24934">
        <ele>210</ele>
        <time>2022-08-16T13:55:46Z</time>
      </trkpt>
      <trkpt lat="46.46809" lon="5.24964">
        <ele>210.6</ele>
        <time>2022-08-16T13:55:53Z</time>
      </trkpt>
      <trkpt lat="46.46794" lon="5.24976">
        <ele>211.2</ele>
        <time>2022-08-16T13:55:56Z</time>
      </trkpt>
      <trkpt lat="46.46782" lon="5.24986">
        <ele>211.6</ele>
        <time>2022-08-16T13:55:59Z</time>
      </trkpt>
      <trkpt lat="46.46774" lon="5.24992">
        <ele>211.8</ele>
        <time>2022-08-16T13:56:01Z</time>
      </trkpt>
      <trkpt lat="46.46766" lon="5.25">
        <ele>211.8</ele>
        <time>2022-08-16T13:56:03Z</time>
      </trkpt>
      <trkpt lat="46.46758" lon="5.25008">
        <ele>212</ele>
        <time>2022-08-16T13:56:05Z</time>
      </trkpt>
      <trkpt lat="46.46753" lon="5.25011">
        <ele>212.2</ele>
        <time>2022-08-16T13:56:06Z</time>
      </trkpt>
      <trkpt lat="46.46743" lon="5.25018">
        <ele>212.4</ele>
        <time>2022-08-16T13:56:08Z</time>
      </trkpt>
      <trkpt lat="46.46734" lon="5.25024">
        <ele>212.6</ele>
        <time>2022-08-16T13:56:10Z</time>
      </trkpt>
      <trkpt lat="46.4673" lon="5.25028">
        <ele>212.6</ele>
        <time>2022-08-16T13:56:11Z</time>
      </trkpt>
      <trkpt lat="46.46719" lon="5.25038">
        <ele>212.8</ele>
        <time>2022-08-16T13:56:13Z</time>
      </trkpt>
      <trkpt lat="46.46705" lon="5.25048">
        <ele>213</ele>
        <time>2022-08-16T13:56:15Z</time>
      </trkpt>
      <trkpt lat="46.46692" lon="5.2506">
        <ele>213.2</ele>
        <time>2022-08-16T13:56:17Z</time>
      </trkpt>
      <trkpt lat="46.46655" lon="5.25087">
        <ele>213.2</ele>
        <time>2022-08-16T13:56:23Z</time>
      </trkpt>
      <trkpt lat="46.46631" lon="5.25105">
        <ele>213.4</ele>
        <time>2022-08-16T13:56:28Z</time>
      </trkpt>
      <trkpt lat="46.46611" lon="5.25121">
        <ele>214.2</ele>
        <time>2022-08-16T13:56:32Z</time>
      </trkpt>
      <trkpt lat="46.46596" lon="5.25134">
        <ele>214.8</ele>
        <time>2022-08-16T13:56:35Z</time>
      </trkpt>
      <trkpt lat="46.46586" lon="5.25142">
        <ele>214.8</ele>
        <time>2022-08-16T13:56:37Z</time>
      </trkpt>
      <trkpt lat="46.46569" lon="5.25155">
        <ele>215</ele>
        <time>2022-08-16T13:56:40Z</time>
      </trkpt>
      <trkpt lat="46.46536" lon="5.25184">
        <ele>215.2</ele>
        <time>2022-08-16T13:56:46Z</time>
      </trkpt>
      <trkpt lat="46.46531" lon="5.25189">
        <ele>215.4</ele>
        <time>2022-08-16T13:56:47Z</time>
      </trkpt>
      <trkpt lat="46.46505" lon="5.25209">
        <ele>215.6</ele>
        <time>2022-08-16T13:56:52Z</time>
      </trkpt>
      <trkpt lat="46.46494" lon="5.25218">
        <ele>215.8</ele>
        <time>2022-08-16T13:56:54Z</time>
      </trkpt>
      <trkpt lat="46.46455" lon="5.25248">
        <ele>216.4</ele>
        <time>2022-08-16T13:57:02Z</time>
      </trkpt>
      <trkpt lat="46.46431" lon="5.25267">
        <ele>217.6</ele>
        <time>2022-08-16T13:57:07Z</time>
      </trkpt>
      <trkpt lat="46.46413" lon="5.25282">
        <ele>218.2</ele>
        <time>2022-08-16T13:57:11Z</time>
      </trkpt>
      <trkpt lat="46.46401" lon="5.25295">
        <ele>218.6</ele>
        <time>2022-08-16T13:57:14Z</time>
      </trkpt>
      <trkpt lat="46.46386" lon="5.25314">
        <ele>219</ele>
        <time>2022-08-16T13:57:18Z</time>
      </trkpt>
      <trkpt lat="46.46362" lon="5.25354">
        <ele>219.6</ele>
        <time>2022-08-16T13:57:25Z</time>
      </trkpt>
      <trkpt lat="46.46352" lon="5.25371">
        <ele>219.8</ele>
        <time>2022-08-16T13:57:28Z</time>
      </trkpt>
      <trkpt lat="46.46317" lon="5.25432">
        <ele>220.4</ele>
        <time>2022-08-16T13:57:38Z</time>
      </trkpt>
      <trkpt lat="46.46311" lon="5.25442">
        <ele>220.6</ele>
        <time>2022-08-16T13:57:40Z</time>
      </trkpt>
      <trkpt lat="46.46304" lon="5.25454">
        <ele>220.8</ele>
        <time>2022-08-16T13:57:42Z</time>
      </trkpt>
      <trkpt lat="46.46276" lon="5.25503">
        <ele>221.6</ele>
        <time>2022-08-16T13:57:50Z</time>
      </trkpt>
      <trkpt lat="46.46266" lon="5.2552">
        <ele>221.8</ele>
        <time>2022-08-16T13:57:53Z</time>
      </trkpt>
      <trkpt lat="46.46263" lon="5.25527">
        <ele>222</ele>
        <time>2022-08-16T13:57:54Z</time>
      </trkpt>
      <trkpt lat="46.46257" lon="5.2554">
        <ele>222.2</ele>
        <time>2022-08-16T13:57:56Z</time>
      </trkpt>
      <trkpt lat="46.46246" lon="5.25582">
        <ele>222.8</ele>
        <time>2022-08-16T13:58:02Z</time>
      </trkpt>
      <trkpt lat="46.46242" lon="5.25598">
        <ele>222.8</ele>
        <time>2022-08-16T13:58:04Z</time>
      </trkpt>
      <trkpt lat="46.4623" lon="5.25644">
        <ele>223.2</ele>
        <time>2022-08-16T13:58:10Z</time>
      </trkpt>
      <trkpt lat="46.46224" lon="5.25681">
        <ele>223.2</ele>
        <time>2022-08-16T13:58:14Z</time>
      </trkpt>
      <trkpt lat="46.46224" lon="5.25692">
        <ele>223.2</ele>
        <time>2022-08-16T13:58:15Z</time>
      </trkpt>
      <trkpt lat="46.46225" lon="5.25716">
        <ele>223</ele>
        <time>2022-08-16T13:58:17Z</time>
      </trkpt>
      <trkpt lat="46.46229" lon="5.25739">
        <ele>222.8</ele>
        <time>2022-08-16T13:58:19Z</time>
      </trkpt>
      <trkpt lat="46.46239" lon="5.25787">
        <ele>221.8</ele>
        <time>2022-08-16T13:58:23Z</time>
      </trkpt>
      <trkpt lat="46.46246" lon="5.2582">
        <ele>221.2</ele>
        <time>2022-08-16T13:58:26Z</time>
      </trkpt>
      <trkpt lat="46.4625" lon="5.25839">
        <ele>221.2</ele>
        <time>2022-08-16T13:58:28Z</time>
      </trkpt>
      <trkpt lat="46.46251" lon="5.25856">
        <ele>221.4</ele>
        <time>2022-08-16T13:58:30Z</time>
      </trkpt>
      <trkpt lat="46.46251" lon="5.25865">
        <ele>221.4</ele>
        <time>2022-08-16T13:58:31Z</time>
      </trkpt>
      <trkpt lat="46.46248" lon="5.25889">
        <ele>222</ele>
        <time>2022-08-16T13:58:34Z</time>
      </trkpt>
      <trkpt lat="46.46243" lon="5.25904">
        <ele>222.4</ele>
        <time>2022-08-16T13:58:36Z</time>
      </trkpt>
      <trkpt lat="46.46237" lon="5.25922">
        <ele>223.2</ele>
        <time>2022-08-16T13:58:39Z</time>
      </trkpt>
      <trkpt lat="46.46231" lon="5.25941">
        <ele>224.2</ele>
        <time>2022-08-16T13:58:42Z</time>
      </trkpt>
      <trkpt lat="46.46224" lon="5.25959">
        <ele>225.4</ele>
        <time>2022-08-16T13:58:45Z</time>
      </trkpt>
      <trkpt lat="46.46221" lon="5.25971">
        <ele>226</ele>
        <time>2022-08-16T13:58:47Z</time>
      </trkpt>
      <trkpt lat="46.46219" lon="5.25978">
        <ele>226.4</ele>
        <time>2022-08-16T13:58:48Z</time>
      </trkpt>
      <trkpt lat="46.46211" lon="5.2601">
        <ele>227.6</ele>
        <time>2022-08-16T13:58:53Z</time>
      </trkpt>
      <trkpt lat="46.46208" lon="5.26031">
        <ele>228.6</ele>
        <time>2022-08-16T13:58:56Z</time>
      </trkpt>
      <trkpt lat="46.462" lon="5.26094">
        <ele>229.8</ele>
        <time>2022-08-16T13:59:04Z</time>
      </trkpt>
      <trkpt lat="46.46195" lon="5.2615">
        <ele>229.6</ele>
        <time>2022-08-16T13:59:10Z</time>
      </trkpt>
      <trkpt lat="46.46189" lon="5.26221">
        <ele>229.4</ele>
        <time>2022-08-16T13:59:17Z</time>
      </trkpt>
      <trkpt lat="46.46183" lon="5.26287">
        <ele>228.6</ele>
        <time>2022-08-16T13:59:23Z</time>
      </trkpt>
      <trkpt lat="46.46182" lon="5.26302">
        <ele>228.2</ele>
        <time>2022-08-16T13:59:24Z</time>
      </trkpt>
      <trkpt lat="46.46178" lon="5.2634">
        <ele>227.4</ele>
        <time>2022-08-16T13:59:27Z</time>
      </trkpt>
      <trkpt lat="46.46174" lon="5.26382">
        <ele>226.2</ele>
        <time>2022-08-16T13:59:30Z</time>
      </trkpt>
      <trkpt lat="46.4617" lon="5.26427">
        <ele>225</ele>
        <time>2022-08-16T13:59:33Z</time>
      </trkpt>
      <trkpt lat="46.46166" lon="5.26474">
        <ele>223</ele>
        <time>2022-08-16T13:59:36Z</time>
      </trkpt>
      <trkpt lat="46.46164" lon="5.2649">
        <ele>222.2</ele>
        <time>2022-08-16T13:59:37Z</time>
      </trkpt>
      <trkpt lat="46.46163" lon="5.26506">
        <ele>222</ele>
        <time>2022-08-16T13:59:38Z</time>
      </trkpt>
      <trkpt lat="46.46158" lon="5.26554">
        <ele>220.6</ele>
        <time>2022-08-16T13:59:41Z</time>
      </trkpt>
      <trkpt lat="46.46153" lon="5.26607">
        <ele>219.6</ele>
        <time>2022-08-16T13:59:44Z</time>
      </trkpt>
      <trkpt lat="46.46152" lon="5.26621">
        <ele>219</ele>
        <time>2022-08-16T13:59:45Z</time>
      </trkpt>
      <trkpt lat="46.46151" lon="5.26638">
        <ele>218.2</ele>
        <time>2022-08-16T13:59:46Z</time>
      </trkpt>
      <trkpt lat="46.4615" lon="5.26673">
        <ele>217</ele>
        <time>2022-08-16T13:59:48Z</time>
      </trkpt>
      <trkpt lat="46.46148" lon="5.26712">
        <ele>216</ele>
        <time>2022-08-16T13:59:50Z</time>
      </trkpt>
      <trkpt lat="46.46148" lon="5.2673">
        <ele>215.2</ele>
        <time>2022-08-16T13:59:51Z</time>
      </trkpt>
      <trkpt lat="46.46147" lon="5.26744">
        <ele>214.6</ele>
        <time>2022-08-16T13:59:52Z</time>
      </trkpt>
      <trkpt lat="46.46147" lon="5.26761">
        <ele>213.2</ele>
        <time>2022-08-16T13:59:53Z</time>
      </trkpt>
      <trkpt lat="46.46146" lon="5.26795">
        <ele>211.8</ele>
        <time>2022-08-16T13:59:55Z</time>
      </trkpt>
      <trkpt lat="46.46145" lon="5.26844">
        <ele>210.8</ele>
        <time>2022-08-16T13:59:58Z</time>
      </trkpt>
      <trkpt lat="46.46145" lon="5.26863">
        <ele>210.6</ele>
        <time>2022-08-16T13:59:59Z</time>
      </trkpt>
      <trkpt lat="46.46142" lon="5.26921">
        <ele>209.6</ele>
        <time>2022-08-16T14:00:03Z</time>
      </trkpt>
      <trkpt lat="46.46142" lon="5.2695">
        <ele>209.2</ele>
        <time>2022-08-16T14:00:05Z</time>
      </trkpt>
      <trkpt lat="46.46141" lon="5.27004">
        <ele>208.6</ele>
        <time>2022-08-16T14:00:09Z</time>
      </trkpt>
      <trkpt lat="46.4614" lon="5.27031">
        <ele>208.4</ele>
        <time>2022-08-16T14:00:11Z</time>
      </trkpt>
      <trkpt lat="46.46138" lon="5.27119">
        <ele>208.2</ele>
        <time>2022-08-16T14:00:18Z</time>
      </trkpt>
      <trkpt lat="46.46137" lon="5.27131">
        <ele>208.2</ele>
        <time>2022-08-16T14:00:19Z</time>
      </trkpt>
      <trkpt lat="46.46135" lon="5.27211">
        <ele>207.6</ele>
        <time>2022-08-16T14:00:25Z</time>
      </trkpt>
      <trkpt lat="46.46135" lon="5.27225">
        <ele>207.4</ele>
        <time>2022-08-16T14:00:26Z</time>
      </trkpt>
      <trkpt lat="46.46133" lon="5.27301">
        <ele>206.4</ele>
        <time>2022-08-16T14:00:32Z</time>
      </trkpt>
      <trkpt lat="46.46133" lon="5.27326">
        <ele>206</ele>
        <time>2022-08-16T14:00:34Z</time>
      </trkpt>
      <trkpt lat="46.4613" lon="5.27409">
        <ele>205.8</ele>
        <time>2022-08-16T14:00:41Z</time>
      </trkpt>
      <trkpt lat="46.4613" lon="5.2742">
        <ele>205.8</ele>
        <time>2022-08-16T14:00:42Z</time>
      </trkpt>
      <trkpt lat="46.46128" lon="5.27502">
        <ele>205.6</ele>
        <time>2022-08-16T14:00:49Z</time>
      </trkpt>
      <trkpt lat="46.46126" lon="5.2756">
        <ele>205.4</ele>
        <time>2022-08-16T14:00:54Z</time>
      </trkpt>
      <trkpt lat="46.46125" lon="5.27606">
        <ele>205.4</ele>
        <time>2022-08-16T14:00:58Z</time>
      </trkpt>
      <trkpt lat="46.46123" lon="5.27694">
        <ele>206</ele>
        <time>2022-08-16T14:01:06Z</time>
      </trkpt>
      <trkpt lat="46.46121" lon="5.27755">
        <ele>206.6</ele>
        <time>2022-08-16T14:01:12Z</time>
      </trkpt>
      <trkpt lat="46.46121" lon="5.27774">
        <ele>206.8</ele>
        <time>2022-08-16T14:01:14Z</time>
      </trkpt>
      <trkpt lat="46.46121" lon="5.27819">
        <ele>207.6</ele>
        <time>2022-08-16T14:01:19Z</time>
      </trkpt>
      <trkpt lat="46.46122" lon="5.27844">
        <ele>208.4</ele>
        <time>2022-08-16T14:01:22Z</time>
      </trkpt>
      <trkpt lat="46.46123" lon="5.27869">
        <ele>209</ele>
        <time>2022-08-16T14:01:25Z</time>
      </trkpt>
      <trkpt lat="46.46123" lon="5.27891">
        <ele>209.4</ele>
        <time>2022-08-16T14:01:28Z</time>
      </trkpt>
      <trkpt lat="46.46123" lon="5.27907">
        <ele>210</ele>
        <time>2022-08-16T14:01:30Z</time>
      </trkpt>
      <trkpt lat="46.46124" lon="5.27935">
        <ele>211.2</ele>
        <time>2022-08-16T14:01:34Z</time>
      </trkpt>
      <trkpt lat="46.46125" lon="5.2794">
        <ele>211.2</ele>
        <time>2022-08-16T14:01:35Z</time>
      </trkpt>
      <trkpt lat="46.46129" lon="5.27953">
        <ele>212.2</ele>
        <time>2022-08-16T14:01:37Z</time>
      </trkpt>
      <trkpt lat="46.46133" lon="5.27961">
        <ele>213</ele>
        <time>2022-08-16T14:01:39Z</time>
      </trkpt>
      <trkpt lat="46.46139" lon="5.27969">
        <ele>213.4</ele>
        <time>2022-08-16T14:01:41Z</time>
      </trkpt>
      <trkpt lat="46.46145" lon="5.27976">
        <ele>214.6</ele>
        <time>2022-08-16T14:01:43Z</time>
      </trkpt>
      <trkpt lat="46.46152" lon="5.27981">
        <ele>215.6</ele>
        <time>2022-08-16T14:01:45Z</time>
      </trkpt>
      <trkpt lat="46.46161" lon="5.27988">
        <ele>217</ele>
        <time>2022-08-16T14:01:48Z</time>
      </trkpt>
      <trkpt lat="46.46173" lon="5.27997">
        <ele>218</ele>
        <time>2022-08-16T14:01:52Z</time>
      </trkpt>
      <trkpt lat="46.46186" lon="5.28008">
        <ele>219.2</ele>
        <time>2022-08-16T14:01:56Z</time>
      </trkpt>
      <trkpt lat="46.46191" lon="5.28016">
        <ele>219.8</ele>
        <time>2022-08-16T14:01:58Z</time>
      </trkpt>
      <trkpt lat="46.46194" lon="5.28024">
        <ele>220.2</ele>
        <time>2022-08-16T14:02:00Z</time>
      </trkpt>
      <trkpt lat="46.46194" lon="5.28038">
        <ele>220.6</ele>
        <time>2022-08-16T14:02:02Z</time>
      </trkpt>
      <trkpt lat="46.46187" lon="5.28087">
        <ele>221</ele>
        <time>2022-08-16T14:02:08Z</time>
      </trkpt>
      <trkpt lat="46.46183" lon="5.28137">
        <ele>220.8</ele>
        <time>2022-08-16T14:02:14Z</time>
      </trkpt>
      <trkpt lat="46.46169" lon="5.28223">
        <ele>221</ele>
        <time>2022-08-16T14:02:24Z</time>
      </trkpt>
      <trkpt lat="46.46165" lon="5.28277">
        <ele>221</ele>
        <time>2022-08-16T14:02:29Z</time>
      </trkpt>
      <trkpt lat="46.46165" lon="5.28289">
        <ele>220.6</ele>
        <time>2022-08-16T14:02:30Z</time>
      </trkpt>
      <trkpt lat="46.4617" lon="5.28324">
        <ele>219.8</ele>
        <time>2022-08-16T14:02:33Z</time>
      </trkpt>
      <trkpt lat="46.46176" lon="5.28364">
        <ele>218.8</ele>
        <time>2022-08-16T14:02:36Z</time>
      </trkpt>
      <trkpt lat="46.46182" lon="5.28402">
        <ele>217.8</ele>
        <time>2022-08-16T14:02:39Z</time>
      </trkpt>
      <trkpt lat="46.46186" lon="5.28427">
        <ele>217.4</ele>
        <time>2022-08-16T14:02:41Z</time>
      </trkpt>
      <trkpt lat="46.46194" lon="5.28481">
        <ele>217</ele>
        <time>2022-08-16T14:02:46Z</time>
      </trkpt>
      <trkpt lat="46.462" lon="5.28522">
        <ele>217.4</ele>
        <time>2022-08-16T14:02:51Z</time>
      </trkpt>
      <trkpt lat="46.46205" lon="5.28557">
        <ele>219</ele>
        <time>2022-08-16T14:02:56Z</time>
      </trkpt>
      <trkpt lat="46.46208" lon="5.28577">
        <ele>220</ele>
        <time>2022-08-16T14:02:59Z</time>
      </trkpt>
      <trkpt lat="46.46209" lon="5.28584">
        <ele>220</ele>
        <time>2022-08-16T14:03:00Z</time>
      </trkpt>
      <trkpt lat="46.46215" lon="5.28622">
        <ele>221.2</ele>
        <time>2022-08-16T14:03:06Z</time>
      </trkpt>
      <trkpt lat="46.46215" lon="5.28627">
        <ele>221.4</ele>
        <time>2022-08-16T14:03:07Z</time>
      </trkpt>
      <trkpt lat="46.46219" lon="5.28649">
        <ele>222.4</ele>
        <time>2022-08-16T14:03:11Z</time>
      </trkpt>
      <trkpt lat="46.46221" lon="5.2866">
        <ele>222.8</ele>
        <time>2022-08-16T14:03:13Z</time>
      </trkpt>
      <trkpt lat="46.46223" lon="5.28669">
        <ele>223.6</ele>
        <time>2022-08-16T14:03:15Z</time>
      </trkpt>
      <trkpt lat="46.46228" lon="5.28685">
        <ele>224.8</ele>
        <time>2022-08-16T14:03:18Z</time>
      </trkpt>
      <trkpt lat="46.46241" lon="5.28703">
        <ele>225.8</ele>
        <time>2022-08-16T14:03:22Z</time>
      </trkpt>
      <trkpt lat="46.46248" lon="5.28708">
        <ele>226.4</ele>
        <time>2022-08-16T14:03:24Z</time>
      </trkpt>
      <trkpt lat="46.46259" lon="5.28717">
        <ele>227</ele>
        <time>2022-08-16T14:03:27Z</time>
      </trkpt>
      <trkpt lat="46.46286" lon="5.28737">
        <ele>228.2</ele>
        <time>2022-08-16T14:03:35Z</time>
      </trkpt>
      <trkpt lat="46.46313" lon="5.28754">
        <ele>229.2</ele>
        <time>2022-08-16T14:03:41Z</time>
      </trkpt>
      <trkpt lat="46.46318" lon="5.28757">
        <ele>229.4</ele>
        <time>2022-08-16T14:03:42Z</time>
      </trkpt>
      <trkpt lat="46.46339" lon="5.28771">
        <ele>230.2</ele>
        <time>2022-08-16T14:03:47Z</time>
      </trkpt>
      <trkpt lat="46.46347" lon="5.28778">
        <ele>230.6</ele>
        <time>2022-08-16T14:03:49Z</time>
      </trkpt>
      <trkpt lat="46.46369" lon="5.28795">
        <ele>231.4</ele>
        <time>2022-08-16T14:03:54Z</time>
      </trkpt>
      <trkpt lat="46.46377" lon="5.28804">
        <ele>231.8</ele>
        <time>2022-08-16T14:03:56Z</time>
      </trkpt>
      <trkpt lat="46.46398" lon="5.28831">
        <ele>232.4</ele>
        <time>2022-08-16T14:04:01Z</time>
      </trkpt>
      <trkpt lat="46.46401" lon="5.28837">
        <ele>232.4</ele>
        <time>2022-08-16T14:04:02Z</time>
      </trkpt>
      <trkpt lat="46.46417" lon="5.28881">
        <ele>233</ele>
        <time>2022-08-16T14:04:08Z</time>
      </trkpt>
      <trkpt lat="46.46432" lon="5.28947">
        <ele>233.2</ele>
        <time>2022-08-16T14:04:16Z</time>
      </trkpt>
      <trkpt lat="46.46436" lon="5.28963">
        <ele>233.4</ele>
        <time>2022-08-16T14:04:18Z</time>
      </trkpt>
      <trkpt lat="46.46446" lon="5.29014">
        <ele>233.8</ele>
        <time>2022-08-16T14:04:24Z</time>
      </trkpt>
      <trkpt lat="46.46455" lon="5.29059">
        <ele>234.4</ele>
        <time>2022-08-16T14:04:29Z</time>
      </trkpt>
      <trkpt lat="46.46463" lon="5.29096">
        <ele>235.2</ele>
        <time>2022-08-16T14:04:33Z</time>
      </trkpt>
      <trkpt lat="46.46476" lon="5.29153">
        <ele>235.2</ele>
        <time>2022-08-16T14:04:39Z</time>
      </trkpt>
      <trkpt lat="46.46487" lon="5.29207">
        <ele>235</ele>
        <time>2022-08-16T14:04:44Z</time>
      </trkpt>
      <trkpt lat="46.46505" lon="5.29294">
        <ele>234.6</ele>
        <time>2022-08-16T14:04:51Z</time>
      </trkpt>
      <trkpt lat="46.46521" lon="5.29369">
        <ele>233.2</ele>
        <time>2022-08-16T14:04:57Z</time>
      </trkpt>
      <trkpt lat="46.46526" lon="5.29393">
        <ele>233</ele>
        <time>2022-08-16T14:04:59Z</time>
      </trkpt>
      <trkpt lat="46.46542" lon="5.29466">
        <ele>232.8</ele>
        <time>2022-08-16T14:05:05Z</time>
      </trkpt>
      <trkpt lat="46.46561" lon="5.29548">
        <ele>232.6</ele>
        <time>2022-08-16T14:05:12Z</time>
      </trkpt>
      <trkpt lat="46.46563" lon="5.29561">
        <ele>232.6</ele>
        <time>2022-08-16T14:05:13Z</time>
      </trkpt>
      <trkpt lat="46.46576" lon="5.29617">
        <ele>232.6</ele>
        <time>2022-08-16T14:05:18Z</time>
      </trkpt>
      <trkpt lat="46.46594" lon="5.29682">
        <ele>233.8</ele>
        <time>2022-08-16T14:05:25Z</time>
      </trkpt>
      <trkpt lat="46.46602" lon="5.2971">
        <ele>234.4</ele>
        <time>2022-08-16T14:05:28Z</time>
      </trkpt>
      <trkpt lat="46.46617" lon="5.29766">
        <ele>235.2</ele>
        <time>2022-08-16T14:05:34Z</time>
      </trkpt>
      <trkpt lat="46.46619" lon="5.29775">
        <ele>235.4</ele>
        <time>2022-08-16T14:05:35Z</time>
      </trkpt>
      <trkpt lat="46.46624" lon="5.2979">
        <ele>235.6</ele>
        <time>2022-08-16T14:05:37Z</time>
      </trkpt>
      <trkpt lat="46.46629" lon="5.29806">
        <ele>235.6</ele>
        <time>2022-08-16T14:05:39Z</time>
      </trkpt>
      <trkpt lat="46.46638" lon="5.29836">
        <ele>236</ele>
        <time>2022-08-16T14:05:43Z</time>
      </trkpt>
      <trkpt lat="46.4664" lon="5.29847">
        <ele>236</ele>
        <time>2022-08-16T14:05:44Z</time>
      </trkpt>
      <trkpt lat="46.46642" lon="5.29857">
        <ele>236.2</ele>
        <time>2022-08-16T14:05:45Z</time>
      </trkpt>
      <trkpt lat="46.46647" lon="5.29875">
        <ele>236.4</ele>
        <time>2022-08-16T14:05:47Z</time>
      </trkpt>
      <trkpt lat="46.4665" lon="5.29883">
        <ele>236.4</ele>
        <time>2022-08-16T14:05:48Z</time>
      </trkpt>
      <trkpt lat="46.46653" lon="5.29893">
        <ele>236.4</ele>
        <time>2022-08-16T14:05:49Z</time>
      </trkpt>
      <trkpt lat="46.46665" lon="5.29937">
        <ele>236.8</ele>
        <time>2022-08-16T14:05:53Z</time>
      </trkpt>
      <trkpt lat="46.46681" lon="5.3">
        <ele>236.2</ele>
        <time>2022-08-16T14:05:59Z</time>
      </trkpt>
      <trkpt lat="46.46685" lon="5.30012">
        <ele>236</ele>
        <time>2022-08-16T14:06:00Z</time>
      </trkpt>
      <trkpt lat="46.46698" lon="5.30059">
        <ele>235.6</ele>
        <time>2022-08-16T14:06:04Z</time>
      </trkpt>
      <trkpt lat="46.46704" lon="5.30083">
        <ele>235.2</ele>
        <time>2022-08-16T14:06:06Z</time>
      </trkpt>
      <trkpt lat="46.46723" lon="5.30158">
        <ele>234.4</ele>
        <time>2022-08-16T14:06:13Z</time>
      </trkpt>
      <trkpt lat="46.46725" lon="5.30169">
        <ele>234.4</ele>
        <time>2022-08-16T14:06:14Z</time>
      </trkpt>
      <trkpt lat="46.46741" lon="5.30216">
        <ele>234.4</ele>
        <time>2022-08-16T14:06:19Z</time>
      </trkpt>
      <trkpt lat="46.46745" lon="5.30224">
        <ele>234.4</ele>
        <time>2022-08-16T14:06:20Z</time>
      </trkpt>
      <trkpt lat="46.46752" lon="5.30234">
        <ele>234.4</ele>
        <time>2022-08-16T14:06:21Z</time>
      </trkpt>
      <trkpt lat="46.46777" lon="5.30263">
        <ele>234.8</ele>
        <time>2022-08-16T14:06:25Z</time>
      </trkpt>
      <trkpt lat="46.46816" lon="5.30309">
        <ele>235.2</ele>
        <time>2022-08-16T14:06:31Z</time>
      </trkpt>
      <trkpt lat="46.46828" lon="5.30323">
        <ele>235.2</ele>
        <time>2022-08-16T14:06:33Z</time>
      </trkpt>
      <trkpt lat="46.46867" lon="5.30368">
        <ele>235</ele>
        <time>2022-08-16T14:06:39Z</time>
      </trkpt>
      <trkpt lat="46.46876" lon="5.30375">
        <ele>234.8</ele>
        <time>2022-08-16T14:06:40Z</time>
      </trkpt>
      <trkpt lat="46.46915" lon="5.30394">
        <ele>234.6</ele>
        <time>2022-08-16T14:06:45Z</time>
      </trkpt>
      <trkpt lat="46.4697" lon="5.30421">
        <ele>234.4</ele>
        <time>2022-08-16T14:06:52Z</time>
      </trkpt>
      <trkpt lat="46.47016" lon="5.30461">
        <ele>234.6</ele>
        <time>2022-08-16T14:06:59Z</time>
      </trkpt>
      <trkpt lat="46.47068" lon="5.30505">
        <ele>235</ele>
        <time>2022-08-16T14:07:07Z</time>
      </trkpt>
      <trkpt lat="46.47074" lon="5.30511">
        <ele>235</ele>
        <time>2022-08-16T14:07:08Z</time>
      </trkpt>
      <trkpt lat="46.47114" lon="5.3054">
        <ele>235.4</ele>
        <time>2022-08-16T14:07:14Z</time>
      </trkpt>
      <trkpt lat="46.47122" lon="5.30544">
        <ele>235.6</ele>
        <time>2022-08-16T14:07:15Z</time>
      </trkpt>
      <trkpt lat="46.47165" lon="5.30561">
        <ele>235.6</ele>
        <time>2022-08-16T14:07:21Z</time>
      </trkpt>
      <trkpt lat="46.47207" lon="5.30559">
        <ele>235.2</ele>
        <time>2022-08-16T14:07:26Z</time>
      </trkpt>
      <trkpt lat="46.47223" lon="5.3056">
        <ele>234.6</ele>
        <time>2022-08-16T14:07:28Z</time>
      </trkpt>
      <trkpt lat="46.47239" lon="5.30566">
        <ele>234.6</ele>
        <time>2022-08-16T14:07:30Z</time>
      </trkpt>
      <trkpt lat="46.4726" lon="5.30581">
        <ele>234.6</ele>
        <time>2022-08-16T14:07:33Z</time>
      </trkpt>
      <trkpt lat="46.47271" lon="5.30594">
        <ele>234.4</ele>
        <time>2022-08-16T14:07:35Z</time>
      </trkpt>
      <trkpt lat="46.47306" lon="5.30639">
        <ele>234.8</ele>
        <time>2022-08-16T14:07:41Z</time>
      </trkpt>
      <trkpt lat="46.47314" lon="5.30656">
        <ele>235</ele>
        <time>2022-08-16T14:07:43Z</time>
      </trkpt>
      <trkpt lat="46.47317" lon="5.30666">
        <ele>235</ele>
        <time>2022-08-16T14:07:44Z</time>
      </trkpt>
      <trkpt lat="46.47318" lon="5.30677">
        <ele>235</ele>
        <time>2022-08-16T14:07:45Z</time>
      </trkpt>
      <trkpt lat="46.47318" lon="5.30715">
        <ele>235</ele>
        <time>2022-08-16T14:07:48Z</time>
      </trkpt>
      <trkpt lat="46.47323" lon="5.30803">
        <ele>234.8</ele>
        <time>2022-08-16T14:07:55Z</time>
      </trkpt>
      <trkpt lat="46.47327" lon="5.30839">
        <ele>234.4</ele>
        <time>2022-08-16T14:07:58Z</time>
      </trkpt>
      <trkpt lat="46.4733" lon="5.30863">
        <ele>234.4</ele>
        <time>2022-08-16T14:08:00Z</time>
      </trkpt>
      <trkpt lat="46.47335" lon="5.30884">
        <ele>234.4</ele>
        <time>2022-08-16T14:08:02Z</time>
      </trkpt>
      <trkpt lat="46.47343" lon="5.30897">
        <ele>234.4</ele>
        <time>2022-08-16T14:08:04Z</time>
      </trkpt>
      <trkpt lat="46.47349" lon="5.30901">
        <ele>234.4</ele>
        <time>2022-08-16T14:08:05Z</time>
      </trkpt>
      <trkpt lat="46.47358" lon="5.30901">
        <ele>234.4</ele>
        <time>2022-08-16T14:08:06Z</time>
      </trkpt>
      <trkpt lat="46.47373" lon="5.30896">
        <ele>234.4</ele>
        <time>2022-08-16T14:08:08Z</time>
      </trkpt>
      <trkpt lat="46.47419" lon="5.30875">
        <ele>234.4</ele>
        <time>2022-08-16T14:08:14Z</time>
      </trkpt>
      <trkpt lat="46.47472" lon="5.30846">
        <ele>234.2</ele>
        <time>2022-08-16T14:08:21Z</time>
      </trkpt>
      <trkpt lat="46.47478" lon="5.30843">
        <ele>234.4</ele>
        <time>2022-08-16T14:08:22Z</time>
      </trkpt>
      <trkpt lat="46.47529" lon="5.30817">
        <ele>235.2</ele>
        <time>2022-08-16T14:08:29Z</time>
      </trkpt>
      <trkpt lat="46.47544" lon="5.30812">
        <ele>235.4</ele>
        <time>2022-08-16T14:08:31Z</time>
      </trkpt>
      <trkpt lat="46.47559" lon="5.30809">
        <ele>235.4</ele>
        <time>2022-08-16T14:08:33Z</time>
      </trkpt>
      <trkpt lat="46.4761" lon="5.30801">
        <ele>235.8</ele>
        <time>2022-08-16T14:08:40Z</time>
      </trkpt>
      <trkpt lat="46.47664" lon="5.30792">
        <ele>235.6</ele>
        <time>2022-08-16T14:08:47Z</time>
      </trkpt>
      <trkpt lat="46.47702" lon="5.30787">
        <ele>235.4</ele>
        <time>2022-08-16T14:08:52Z</time>
      </trkpt>
      <trkpt lat="46.4776" lon="5.30778">
        <ele>235</ele>
        <time>2022-08-16T14:08:59Z</time>
      </trkpt>
      <trkpt lat="46.47806" lon="5.30772">
        <ele>234.4</ele>
        <time>2022-08-16T14:09:05Z</time>
      </trkpt>
      <trkpt lat="46.47822" lon="5.30773">
        <ele>234.4</ele>
        <time>2022-08-16T14:09:07Z</time>
      </trkpt>
      <trkpt lat="46.47834" lon="5.30776">
        <ele>234.6</ele>
        <time>2022-08-16T14:09:09Z</time>
      </trkpt>
      <trkpt lat="46.47844" lon="5.30786">
        <ele>234.6</ele>
        <time>2022-08-16T14:09:11Z</time>
      </trkpt>
      <trkpt lat="46.47851" lon="5.30796">
        <ele>235</ele>
        <time>2022-08-16T14:09:13Z</time>
      </trkpt>
      <trkpt lat="46.4786" lon="5.30802">
        <ele>235.8</ele>
        <time>2022-08-16T14:09:15Z</time>
      </trkpt>
      <trkpt lat="46.4789" lon="5.30807">
        <ele>236.6</ele>
        <time>2022-08-16T14:09:19Z</time>
      </trkpt>
      <trkpt lat="46.47936" lon="5.30821">
        <ele>236.2</ele>
        <time>2022-08-16T14:09:24Z</time>
      </trkpt>
      <trkpt lat="46.47946" lon="5.30821">
        <ele>235.8</ele>
        <time>2022-08-16T14:09:25Z</time>
      </trkpt>
      <trkpt lat="46.47968" lon="5.30817">
        <ele>234.8</ele>
        <time>2022-08-16T14:09:27Z</time>
      </trkpt>
      <trkpt lat="46.47978" lon="5.30814">
        <ele>234.4</ele>
        <time>2022-08-16T14:09:28Z</time>
      </trkpt>
      <trkpt lat="46.47996" lon="5.30804">
        <ele>233</ele>
        <time>2022-08-16T14:09:30Z</time>
      </trkpt>
      <trkpt lat="46.48005" lon="5.30799">
        <ele>232.8</ele>
        <time>2022-08-16T14:09:31Z</time>
      </trkpt>
      <trkpt lat="46.48052" lon="5.30773">
        <ele>232.4</ele>
        <time>2022-08-16T14:09:37Z</time>
      </trkpt>
      <trkpt lat="46.481" lon="5.30747">
        <ele>233</ele>
        <time>2022-08-16T14:09:44Z</time>
      </trkpt>
      <trkpt lat="46.48114" lon="5.30739">
        <ele>233</ele>
        <time>2022-08-16T14:09:46Z</time>
      </trkpt>
      <trkpt lat="46.48158" lon="5.30714">
        <ele>233</ele>
        <time>2022-08-16T14:09:52Z</time>
      </trkpt>
      <trkpt lat="46.48214" lon="5.30688">
        <ele>232.6</ele>
        <time>2022-08-16T14:09:59Z</time>
      </trkpt>
      <trkpt lat="46.48222" lon="5.30686">
        <ele>232.4</ele>
        <time>2022-08-16T14:10:00Z</time>
      </trkpt>
      <trkpt lat="46.48249" lon="5.30689">
        <ele>231.8</ele>
        <time>2022-08-16T14:10:03Z</time>
      </trkpt>
      <trkpt lat="46.48287" lon="5.307">
        <ele>230.8</ele>
        <time>2022-08-16T14:10:07Z</time>
      </trkpt>
      <trkpt lat="46.48303" lon="5.30701">
        <ele>230.2</ele>
        <time>2022-08-16T14:10:09Z</time>
      </trkpt>
      <trkpt lat="46.4832" lon="5.30698">
        <ele>229.6</ele>
        <time>2022-08-16T14:10:11Z</time>
      </trkpt>
      <trkpt lat="46.48336" lon="5.30691">
        <ele>229.2</ele>
        <time>2022-08-16T14:10:13Z</time>
      </trkpt>
      <trkpt lat="46.4835" lon="5.3068">
        <ele>229</ele>
        <time>2022-08-16T14:10:15Z</time>
      </trkpt>
      <trkpt lat="46.4837" lon="5.30661">
        <ele>229</ele>
        <time>2022-08-16T14:10:18Z</time>
      </trkpt>
      <trkpt lat="46.48421" lon="5.30611">
        <ele>229.4</ele>
        <time>2022-08-16T14:10:26Z</time>
      </trkpt>
      <trkpt lat="46.48428" lon="5.30605">
        <ele>229.6</ele>
        <time>2022-08-16T14:10:27Z</time>
      </trkpt>
      <trkpt lat="46.48478" lon="5.30557">
        <ele>230.2</ele>
        <time>2022-08-16T14:10:35Z</time>
      </trkpt>
      <trkpt lat="46.48484" lon="5.30551">
        <ele>230.2</ele>
        <time>2022-08-16T14:10:36Z</time>
      </trkpt>
      <trkpt lat="46.48502" lon="5.30533">
        <ele>230.6</ele>
        <time>2022-08-16T14:10:39Z</time>
      </trkpt>
      <trkpt lat="46.48538" lon="5.30501">
        <ele>231.6</ele>
        <time>2022-08-16T14:10:45Z</time>
      </trkpt>
      <trkpt lat="46.48544" lon="5.30497">
        <ele>231.6</ele>
        <time>2022-08-16T14:10:46Z</time>
      </trkpt>
      <trkpt lat="46.48556" lon="5.30499">
        <ele>231.4</ele>
        <time>2022-08-16T14:10:48Z</time>
      </trkpt>
      <trkpt lat="46.48561" lon="5.30505">
        <ele>231.4</ele>
        <time>2022-08-16T14:10:49Z</time>
      </trkpt>
      <trkpt lat="46.48563" lon="5.30514">
        <ele>231</ele>
        <time>2022-08-16T14:10:50Z</time>
      </trkpt>
      <trkpt lat="46.48563" lon="5.30524">
        <ele>231</ele>
        <time>2022-08-16T14:10:51Z</time>
      </trkpt>
      <trkpt lat="46.48561" lon="5.30544">
        <ele>230.8</ele>
        <time>2022-08-16T14:10:53Z</time>
      </trkpt>
      <trkpt lat="46.48549" lon="5.30617">
        <ele>230.2</ele>
        <time>2022-08-16T14:10:59Z</time>
      </trkpt>
      <trkpt lat="46.48542" lon="5.3067">
        <ele>229.6</ele>
        <time>2022-08-16T14:11:03Z</time>
      </trkpt>
      <trkpt lat="46.48543" lon="5.30683">
        <ele>229.4</ele>
        <time>2022-08-16T14:11:04Z</time>
      </trkpt>
      <trkpt lat="46.48551" lon="5.30722">
        <ele>229</ele>
        <time>2022-08-16T14:11:07Z</time>
      </trkpt>
      <trkpt lat="46.48555" lon="5.30734">
        <ele>228.6</ele>
        <time>2022-08-16T14:11:08Z</time>
      </trkpt>
      <trkpt lat="46.48561" lon="5.30744">
        <ele>228.4</ele>
        <time>2022-08-16T14:11:09Z</time>
      </trkpt>
      <trkpt lat="46.48568" lon="5.30753">
        <ele>227.8</ele>
        <time>2022-08-16T14:11:10Z</time>
      </trkpt>
      <trkpt lat="46.48576" lon="5.30761">
        <ele>227</ele>
        <time>2022-08-16T14:11:11Z</time>
      </trkpt>
      <trkpt lat="46.48591" lon="5.30775">
        <ele>226.2</ele>
        <time>2022-08-16T14:11:13Z</time>
      </trkpt>
      <trkpt lat="46.48625" lon="5.30802">
        <ele>225</ele>
        <time>2022-08-16T14:11:17Z</time>
      </trkpt>
      <trkpt lat="46.48675" lon="5.30833">
        <ele>224.4</ele>
        <time>2022-08-16T14:11:23Z</time>
      </trkpt>
      <trkpt lat="46.4869" lon="5.30842">
        <ele>224.2</ele>
        <time>2022-08-16T14:11:25Z</time>
      </trkpt>
      <trkpt lat="46.48704" lon="5.30851">
        <ele>224.2</ele>
        <time>2022-08-16T14:11:27Z</time>
      </trkpt>
      <trkpt lat="46.48716" lon="5.30866">
        <ele>224.8</ele>
        <time>2022-08-16T14:11:29Z</time>
      </trkpt>
      <trkpt lat="46.48723" lon="5.30886">
        <ele>224.8</ele>
        <time>2022-08-16T14:11:31Z</time>
      </trkpt>
      <trkpt lat="46.48723" lon="5.30897">
        <ele>225</ele>
        <time>2022-08-16T14:11:32Z</time>
      </trkpt>
      <trkpt lat="46.4872" lon="5.30908">
        <ele>225.2</ele>
        <time>2022-08-16T14:11:33Z</time>
      </trkpt>
      <trkpt lat="46.48716" lon="5.30917">
        <ele>225.4</ele>
        <time>2022-08-16T14:11:34Z</time>
      </trkpt>
      <trkpt lat="46.4871" lon="5.30924">
        <ele>225.4</ele>
        <time>2022-08-16T14:11:35Z</time>
      </trkpt>
      <trkpt lat="46.48699" lon="5.30939">
        <ele>225.8</ele>
        <time>2022-08-16T14:11:37Z</time>
      </trkpt>
      <trkpt lat="46.48694" lon="5.30947">
        <ele>225.8</ele>
        <time>2022-08-16T14:11:38Z</time>
      </trkpt>
      <trkpt lat="46.48689" lon="5.30955">
        <ele>226.2</ele>
        <time>2022-08-16T14:11:39Z</time>
      </trkpt>
      <trkpt lat="46.48671" lon="5.30993">
        <ele>227.4</ele>
        <time>2022-08-16T14:11:43Z</time>
      </trkpt>
      <trkpt lat="46.48659" lon="5.31013">
        <ele>228</ele>
        <time>2022-08-16T14:11:45Z</time>
      </trkpt>
      <trkpt lat="46.48622" lon="5.31083">
        <ele>228.2</ele>
        <time>2022-08-16T14:11:52Z</time>
      </trkpt>
      <trkpt lat="46.48588" lon="5.31155">
        <ele>227.6</ele>
        <time>2022-08-16T14:11:59Z</time>
      </trkpt>
      <trkpt lat="46.48573" lon="5.31185">
        <ele>226.6</ele>
        <time>2022-08-16T14:12:02Z</time>
      </trkpt>
      <trkpt lat="46.48568" lon="5.31196">
        <ele>226.6</ele>
        <time>2022-08-16T14:12:03Z</time>
      </trkpt>
      <trkpt lat="46.48548" lon="5.31253">
        <ele>225.6</ele>
        <time>2022-08-16T14:12:08Z</time>
      </trkpt>
      <trkpt lat="46.48549" lon="5.31291">
        <ele>224.6</ele>
        <time>2022-08-16T14:12:11Z</time>
      </trkpt>
      <trkpt lat="46.4855" lon="5.31303">
        <ele>224.4</ele>
        <time>2022-08-16T14:12:12Z</time>
      </trkpt>
      <trkpt lat="46.48556" lon="5.31351">
        <ele>223.4</ele>
        <time>2022-08-16T14:12:16Z</time>
      </trkpt>
      <trkpt lat="46.48559" lon="5.31363">
        <ele>223.2</ele>
        <time>2022-08-16T14:12:17Z</time>
      </trkpt>
      <trkpt lat="46.48564" lon="5.31375">
        <ele>222.8</ele>
        <time>2022-08-16T14:12:18Z</time>
      </trkpt>
      <trkpt lat="46.48577" lon="5.31393">
        <ele>222.4</ele>
        <time>2022-08-16T14:12:20Z</time>
      </trkpt>
      <trkpt lat="46.48592" lon="5.31411">
        <ele>222</ele>
        <time>2022-08-16T14:12:22Z</time>
      </trkpt>
      <trkpt lat="46.48604" lon="5.31434">
        <ele>221.4</ele>
        <time>2022-08-16T14:12:24Z</time>
      </trkpt>
      <trkpt lat="46.48607" lon="5.31448">
        <ele>221</ele>
        <time>2022-08-16T14:12:25Z</time>
      </trkpt>
      <trkpt lat="46.48608" lon="5.31463">
        <ele>220.6</ele>
        <time>2022-08-16T14:12:26Z</time>
      </trkpt>
      <trkpt lat="46.4861" lon="5.31491">
        <ele>219</ele>
        <time>2022-08-16T14:12:28Z</time>
      </trkpt>
      <trkpt lat="46.48612" lon="5.31504">
        <ele>218.8</ele>
        <time>2022-08-16T14:12:29Z</time>
      </trkpt>
      <trkpt lat="46.48616" lon="5.31516">
        <ele>218.4</ele>
        <time>2022-08-16T14:12:30Z</time>
      </trkpt>
      <trkpt lat="46.4862" lon="5.31527">
        <ele>218</ele>
        <time>2022-08-16T14:12:31Z</time>
      </trkpt>
      <trkpt lat="46.48626" lon="5.31537">
        <ele>217.8</ele>
        <time>2022-08-16T14:12:32Z</time>
      </trkpt>
      <trkpt lat="46.48632" lon="5.31546">
        <ele>217.6</ele>
        <time>2022-08-16T14:12:33Z</time>
      </trkpt>
      <trkpt lat="46.48652" lon="5.31569">
        <ele>217.4</ele>
        <time>2022-08-16T14:12:36Z</time>
      </trkpt>
      <trkpt lat="46.48681" lon="5.3161">
        <ele>217.4</ele>
        <time>2022-08-16T14:12:41Z</time>
      </trkpt>
      <trkpt lat="46.48704" lon="5.3164">
        <ele>217.6</ele>
        <time>2022-08-16T14:12:45Z</time>
      </trkpt>
      <trkpt lat="46.48717" lon="5.31655">
        <ele>217.6</ele>
        <time>2022-08-16T14:12:47Z</time>
      </trkpt>
      <trkpt lat="46.48737" lon="5.31679">
        <ele>217.6</ele>
        <time>2022-08-16T14:12:50Z</time>
      </trkpt>
      <trkpt lat="46.48749" lon="5.31693">
        <ele>217.6</ele>
        <time>2022-08-16T14:12:52Z</time>
      </trkpt>
      <trkpt lat="46.48759" lon="5.31707">
        <ele>217.8</ele>
        <time>2022-08-16T14:12:54Z</time>
      </trkpt>
      <trkpt lat="46.4877" lon="5.31723">
        <ele>217.8</ele>
        <time>2022-08-16T14:12:56Z</time>
      </trkpt>
      <trkpt lat="46.48776" lon="5.31747">
        <ele>217.8</ele>
        <time>2022-08-16T14:12:58Z</time>
      </trkpt>
      <trkpt lat="46.48777" lon="5.31759">
        <ele>217.6</ele>
        <time>2022-08-16T14:12:59Z</time>
      </trkpt>
      <trkpt lat="46.48781" lon="5.3182">
        <ele>217.2</ele>
        <time>2022-08-16T14:13:04Z</time>
      </trkpt>
      <trkpt lat="46.48783" lon="5.3183">
        <ele>217</ele>
        <time>2022-08-16T14:13:05Z</time>
      </trkpt>
      <trkpt lat="46.48787" lon="5.3184">
        <ele>217</ele>
        <time>2022-08-16T14:13:06Z</time>
      </trkpt>
      <trkpt lat="46.48802" lon="5.31851">
        <ele>217</ele>
        <time>2022-08-16T14:13:08Z</time>
      </trkpt>
      <trkpt lat="46.48818" lon="5.31858">
        <ele>216.8</ele>
        <time>2022-08-16T14:13:10Z</time>
      </trkpt>
      <trkpt lat="46.4883" lon="5.31871">
        <ele>216.6</ele>
        <time>2022-08-16T14:13:12Z</time>
      </trkpt>
      <trkpt lat="46.48837" lon="5.3189">
        <ele>216.4</ele>
        <time>2022-08-16T14:13:14Z</time>
      </trkpt>
      <trkpt lat="46.48839" lon="5.31901">
        <ele>216.4</ele>
        <time>2022-08-16T14:13:15Z</time>
      </trkpt>
      <trkpt lat="46.48845" lon="5.31977">
        <ele>216.8</ele>
        <time>2022-08-16T14:13:22Z</time>
      </trkpt>
      <trkpt lat="46.48844" lon="5.31997">
        <ele>217</ele>
        <time>2022-08-16T14:13:24Z</time>
      </trkpt>
      <trkpt lat="46.48841" lon="5.32027">
        <ele>217.4</ele>
        <time>2022-08-16T14:13:27Z</time>
      </trkpt>
      <trkpt lat="46.48828" lon="5.32094">
        <ele>218</ele>
        <time>2022-08-16T14:13:34Z</time>
      </trkpt>
      <trkpt lat="46.48825" lon="5.32111">
        <ele>218.2</ele>
        <time>2022-08-16T14:13:36Z</time>
      </trkpt>
      <trkpt lat="46.48821" lon="5.32146">
        <ele>218.4</ele>
        <time>2022-08-16T14:13:40Z</time>
      </trkpt>
      <trkpt lat="46.48824" lon="5.32196">
        <ele>219.2</ele>
        <time>2022-08-16T14:13:46Z</time>
      </trkpt>
      <trkpt lat="46.48831" lon="5.32232">
        <ele>219.8</ele>
        <time>2022-08-16T14:13:51Z</time>
      </trkpt>
      <trkpt lat="46.48836" lon="5.32246">
        <ele>220.6</ele>
        <time>2022-08-16T14:13:53Z</time>
      </trkpt>
      <trkpt lat="46.48842" lon="5.32258">
        <ele>220.8</ele>
        <time>2022-08-16T14:13:55Z</time>
      </trkpt>
      <trkpt lat="46.48857" lon="5.32279">
        <ele>221</ele>
        <time>2022-08-16T14:13:58Z</time>
      </trkpt>
      <trkpt lat="46.48882" lon="5.32317">
        <ele>221</ele>
        <time>2022-08-16T14:14:02Z</time>
      </trkpt>
      <trkpt lat="46.48903" lon="5.32354">
        <ele>220.2</ele>
        <time>2022-08-16T14:14:05Z</time>
      </trkpt>
      <trkpt lat="46.48908" lon="5.32368">
        <ele>219.2</ele>
        <time>2022-08-16T14:14:06Z</time>
      </trkpt>
      <trkpt lat="46.48919" lon="5.32408">
        <ele>217.6</ele>
        <time>2022-08-16T14:14:09Z</time>
      </trkpt>
      <trkpt lat="46.48923" lon="5.32421">
        <ele>217.4</ele>
        <time>2022-08-16T14:14:10Z</time>
      </trkpt>
      <trkpt lat="46.48944" lon="5.32495">
        <ele>216.4</ele>
        <time>2022-08-16T14:14:16Z</time>
      </trkpt>
      <trkpt lat="46.48953" lon="5.3253">
        <ele>215.8</ele>
        <time>2022-08-16T14:14:19Z</time>
      </trkpt>
      <trkpt lat="46.48954" lon="5.32553">
        <ele>215.8</ele>
        <time>2022-08-16T14:14:21Z</time>
      </trkpt>
      <trkpt lat="46.48949" lon="5.3257">
        <ele>215.6</ele>
        <time>2022-08-16T14:14:23Z</time>
      </trkpt>
      <trkpt lat="46.48944" lon="5.32579">
        <ele>215.6</ele>
        <time>2022-08-16T14:14:24Z</time>
      </trkpt>
      <trkpt lat="46.48921" lon="5.32615">
        <ele>215.6</ele>
        <time>2022-08-16T14:14:29Z</time>
      </trkpt>
      <trkpt lat="46.48917" lon="5.3263">
        <ele>215.8</ele>
        <time>2022-08-16T14:14:31Z</time>
      </trkpt>
      <trkpt lat="46.48916" lon="5.32637">
        <ele>215.8</ele>
        <time>2022-08-16T14:14:32Z</time>
      </trkpt>
      <trkpt lat="46.48917" lon="5.32644">
        <ele>216</ele>
        <time>2022-08-16T14:14:33Z</time>
      </trkpt>
      <trkpt lat="46.4892" lon="5.32656">
        <ele>216.2</ele>
        <time>2022-08-16T14:14:35Z</time>
      </trkpt>
      <trkpt lat="46.48923" lon="5.32662">
        <ele>216.4</ele>
        <time>2022-08-16T14:14:36Z</time>
      </trkpt>
      <trkpt lat="46.48931" lon="5.32676">
        <ele>217.4</ele>
        <time>2022-08-16T14:14:39Z</time>
      </trkpt>
      <trkpt lat="46.48934" lon="5.3268">
        <ele>218</ele>
        <time>2022-08-16T14:14:40Z</time>
      </trkpt>
      <trkpt lat="46.48941" lon="5.32687">
        <ele>218.4</ele>
        <time>2022-08-16T14:14:42Z</time>
      </trkpt>
      <trkpt lat="46.48948" lon="5.32694">
        <ele>219.2</ele>
        <time>2022-08-16T14:14:44Z</time>
      </trkpt>
      <trkpt lat="46.48957" lon="5.32702">
        <ele>220</ele>
        <time>2022-08-16T14:14:47Z</time>
      </trkpt>
      <trkpt lat="46.48961" lon="5.32705">
        <ele>220.2</ele>
        <time>2022-08-16T14:14:48Z</time>
      </trkpt>
      <trkpt lat="46.48976" lon="5.32712">
        <ele>221.2</ele>
        <time>2022-08-16T14:14:52Z</time>
      </trkpt>
      <trkpt lat="46.4898" lon="5.32713">
        <ele>221.6</ele>
        <time>2022-08-16T14:14:53Z</time>
      </trkpt>
      <trkpt lat="46.48996" lon="5.32713">
        <ele>222.4</ele>
        <time>2022-08-16T14:14:57Z</time>
      </trkpt>
      <trkpt lat="46.49003" lon="5.32712">
        <ele>222.8</ele>
        <time>2022-08-16T14:14:59Z</time>
      </trkpt>
      <trkpt lat="46.49011" lon="5.32711">
        <ele>223.2</ele>
        <time>2022-08-16T14:15:01Z</time>
      </trkpt>
      <trkpt lat="46.4902" lon="5.3271">
        <ele>223.6</ele>
        <time>2022-08-16T14:15:03Z</time>
      </trkpt>
      <trkpt lat="46.4904" lon="5.32706">
        <ele>224.6</ele>
        <time>2022-08-16T14:15:08Z</time>
      </trkpt>
      <trkpt lat="46.49052" lon="5.32704">
        <ele>225</ele>
        <time>2022-08-16T14:15:11Z</time>
      </trkpt>
      <trkpt lat="46.49076" lon="5.32699">
        <ele>226</ele>
        <time>2022-08-16T14:15:17Z</time>
      </trkpt>
      <trkpt lat="46.49087" lon="5.32698">
        <ele>226.4</ele>
        <time>2022-08-16T14:15:20Z</time>
      </trkpt>
      <trkpt lat="46.49094" lon="5.32697">
        <ele>227.2</ele>
        <time>2022-08-16T14:15:22Z</time>
      </trkpt>
      <trkpt lat="46.49109" lon="5.32699">
        <ele>228</ele>
        <time>2022-08-16T14:15:26Z</time>
      </trkpt>
      <trkpt lat="46.49117" lon="5.32706">
        <ele>228.2</ele>
        <time>2022-08-16T14:15:28Z</time>
      </trkpt>
      <trkpt lat="46.49123" lon="5.32715">
        <ele>228.6</ele>
        <time>2022-08-16T14:15:30Z</time>
      </trkpt>
      <trkpt lat="46.49126" lon="5.32721">
        <ele>228.6</ele>
        <time>2022-08-16T14:15:31Z</time>
      </trkpt>
      <trkpt lat="46.49132" lon="5.3274">
        <ele>229.6</ele>
        <time>2022-08-16T14:15:34Z</time>
      </trkpt>
      <trkpt lat="46.49136" lon="5.32761">
        <ele>230</ele>
        <time>2022-08-16T14:15:37Z</time>
      </trkpt>
      <trkpt lat="46.49142" lon="5.328">
        <ele>230.2</ele>
        <time>2022-08-16T14:15:42Z</time>
      </trkpt>
      <trkpt lat="46.49143" lon="5.32811">
        <ele>230.4</ele>
        <time>2022-08-16T14:15:43Z</time>
      </trkpt>
      <trkpt lat="46.4914" lon="5.32841">
        <ele>230.2</ele>
        <time>2022-08-16T14:15:46Z</time>
      </trkpt>
      <trkpt lat="46.49138" lon="5.32851">
        <ele>230.2</ele>
        <time>2022-08-16T14:15:47Z</time>
      </trkpt>
      <trkpt lat="46.49133" lon="5.32871">
        <ele>230.2</ele>
        <time>2022-08-16T14:15:49Z</time>
      </trkpt>
      <trkpt lat="46.49129" lon="5.32887">
        <ele>230.2</ele>
        <time>2022-08-16T14:15:51Z</time>
      </trkpt>
      <trkpt lat="46.49128" lon="5.32896">
        <ele>230.2</ele>
        <time>2022-08-16T14:15:52Z</time>
      </trkpt>
      <trkpt lat="46.49127" lon="5.32905">
        <ele>230.4</ele>
        <time>2022-08-16T14:15:53Z</time>
      </trkpt>
      <trkpt lat="46.49125" lon="5.32935">
        <ele>230.4</ele>
        <time>2022-08-16T14:15:56Z</time>
      </trkpt>
      <trkpt lat="46.49126" lon="5.32965">
        <ele>230.4</ele>
        <time>2022-08-16T14:15:59Z</time>
      </trkpt>
      <trkpt lat="46.49128" lon="5.32984">
        <ele>230.4</ele>
        <time>2022-08-16T14:16:01Z</time>
      </trkpt>
      <trkpt lat="46.49137" lon="5.33048">
        <ele>231</ele>
        <time>2022-08-16T14:16:08Z</time>
      </trkpt>
      <trkpt lat="46.49139" lon="5.33057">
        <ele>231.2</ele>
        <time>2022-08-16T14:16:09Z</time>
      </trkpt>
      <trkpt lat="46.49157" lon="5.33117">
        <ele>231.8</ele>
        <time>2022-08-16T14:16:16Z</time>
      </trkpt>
      <trkpt lat="46.49167" lon="5.33132">
        <ele>231.8</ele>
        <time>2022-08-16T14:16:18Z</time>
      </trkpt>
      <trkpt lat="46.49179" lon="5.33144">
        <ele>232</ele>
        <time>2022-08-16T14:16:20Z</time>
      </trkpt>
      <trkpt lat="46.49185" lon="5.33149">
        <ele>232</ele>
        <time>2022-08-16T14:16:21Z</time>
      </trkpt>
      <trkpt lat="46.49227" lon="5.33184">
        <ele>232.4</ele>
        <time>2022-08-16T14:16:28Z</time>
      </trkpt>
      <trkpt lat="46.49238" lon="5.33193">
        <ele>232.4</ele>
        <time>2022-08-16T14:16:30Z</time>
      </trkpt>
      <trkpt lat="46.49248" lon="5.33206">
        <ele>232.6</ele>
        <time>2022-08-16T14:16:32Z</time>
      </trkpt>
      <trkpt lat="46.49262" lon="5.33239">
        <ele>233</ele>
        <time>2022-08-16T14:16:36Z</time>
      </trkpt>
      <trkpt lat="46.49265" lon="5.33248">
        <ele>233</ele>
        <time>2022-08-16T14:16:37Z</time>
      </trkpt>
      <trkpt lat="46.49275" lon="5.33301">
        <ele>234.2</ele>
        <time>2022-08-16T14:16:43Z</time>
      </trkpt>
      <trkpt lat="46.49288" lon="5.33363">
        <ele>235.2</ele>
        <time>2022-08-16T14:16:50Z</time>
      </trkpt>
      <trkpt lat="46.4929" lon="5.33372">
        <ele>235.6</ele>
        <time>2022-08-16T14:16:51Z</time>
      </trkpt>
      <trkpt lat="46.49299" lon="5.33422">
        <ele>236.4</ele>
        <time>2022-08-16T14:16:57Z</time>
      </trkpt>
      <trkpt lat="46.49304" lon="5.33447">
        <ele>236.6</ele>
        <time>2022-08-16T14:17:00Z</time>
      </trkpt>
      <trkpt lat="46.4931" lon="5.33483">
        <ele>237</ele>
        <time>2022-08-16T14:17:04Z</time>
      </trkpt>
      <trkpt lat="46.49315" lon="5.33549">
        <ele>237.6</ele>
        <time>2022-08-16T14:17:11Z</time>
      </trkpt>
      <trkpt lat="46.49313" lon="5.33568">
        <ele>237.6</ele>
        <time>2022-08-16T14:17:13Z</time>
      </trkpt>
      <trkpt lat="46.49308" lon="5.33596">
        <ele>237.6</ele>
        <time>2022-08-16T14:17:16Z</time>
      </trkpt>
      <trkpt lat="46.49301" lon="5.33653">
        <ele>237.6</ele>
        <time>2022-08-16T14:17:22Z</time>
      </trkpt>
      <trkpt lat="46.49301" lon="5.33663">
        <ele>237.6</ele>
        <time>2022-08-16T14:17:23Z</time>
      </trkpt>
      <trkpt lat="46.49301" lon="5.3372">
        <ele>238</ele>
        <time>2022-08-16T14:17:29Z</time>
      </trkpt>
      <trkpt lat="46.49295" lon="5.33775">
        <ele>238.4</ele>
        <time>2022-08-16T14:17:35Z</time>
      </trkpt>
      <trkpt lat="46.49293" lon="5.33784">
        <ele>238.4</ele>
        <time>2022-08-16T14:17:36Z</time>
      </trkpt>
      <trkpt lat="46.4929" lon="5.33802">
        <ele>238.6</ele>
        <time>2022-08-16T14:17:38Z</time>
      </trkpt>
      <trkpt lat="46.49284" lon="5.33837">
        <ele>238.8</ele>
        <time>2022-08-16T14:17:42Z</time>
      </trkpt>
      <trkpt lat="46.49269" lon="5.3391">
        <ele>238.8</ele>
        <time>2022-08-16T14:17:50Z</time>
      </trkpt>
      <trkpt lat="46.49255" lon="5.33977">
        <ele>239</ele>
        <time>2022-08-16T14:17:57Z</time>
      </trkpt>
      <trkpt lat="46.49239" lon="5.3406">
        <ele>239</ele>
        <time>2022-08-16T14:18:06Z</time>
      </trkpt>
      <trkpt lat="46.49236" lon="5.3407">
        <ele>239</ele>
        <time>2022-08-16T14:18:07Z</time>
      </trkpt>
      <trkpt lat="46.49234" lon="5.3408">
        <ele>239</ele>
        <time>2022-08-16T14:18:08Z</time>
      </trkpt>
      <trkpt lat="46.49223" lon="5.34137">
        <ele>238.4</ele>
        <time>2022-08-16T14:18:13Z</time>
      </trkpt>
      <trkpt lat="46.49214" lon="5.34185">
        <ele>237.4</ele>
        <time>2022-08-16T14:18:17Z</time>
      </trkpt>
      <trkpt lat="46.49206" lon="5.34232">
        <ele>236.6</ele>
        <time>2022-08-16T14:18:21Z</time>
      </trkpt>
      <trkpt lat="46.49201" lon="5.34254">
        <ele>236.2</ele>
        <time>2022-08-16T14:18:23Z</time>
      </trkpt>
      <trkpt lat="46.49191" lon="5.34307">
        <ele>236.2</ele>
        <time>2022-08-16T14:18:28Z</time>
      </trkpt>
      <trkpt lat="46.49181" lon="5.34364">
        <ele>236.8</ele>
        <time>2022-08-16T14:18:34Z</time>
      </trkpt>
      <trkpt lat="46.49165" lon="5.34441">
        <ele>237</ele>
        <time>2022-08-16T14:18:41Z</time>
      </trkpt>
      <trkpt lat="46.4915" lon="5.34521">
        <ele>236</ele>
        <time>2022-08-16T14:18:48Z</time>
      </trkpt>
      <trkpt lat="46.49148" lon="5.34531">
        <ele>236</ele>
        <time>2022-08-16T14:18:49Z</time>
      </trkpt>
      <trkpt lat="46.49138" lon="5.3458">
        <ele>236</ele>
        <time>2022-08-16T14:18:54Z</time>
      </trkpt>
      <trkpt lat="46.49135" lon="5.34598">
        <ele>236.2</ele>
        <time>2022-08-16T14:18:56Z</time>
      </trkpt>
      <trkpt lat="46.49129" lon="5.34626">
        <ele>236.6</ele>
        <time>2022-08-16T14:18:59Z</time>
      </trkpt>
      <trkpt lat="46.49125" lon="5.34646">
        <ele>236.6</ele>
        <time>2022-08-16T14:19:01Z</time>
      </trkpt>
      <trkpt lat="46.49117" lon="5.34691">
        <ele>236.6</ele>
        <time>2022-08-16T14:19:05Z</time>
      </trkpt>
      <trkpt lat="46.49102" lon="5.34751">
        <ele>236</ele>
        <time>2022-08-16T14:19:11Z</time>
      </trkpt>
      <trkpt lat="46.49095" lon="5.34795">
        <ele>236.8</ele>
        <time>2022-08-16T14:19:16Z</time>
      </trkpt>
      <trkpt lat="46.49088" lon="5.34836">
        <ele>237.2</ele>
        <time>2022-08-16T14:19:21Z</time>
      </trkpt>
      <trkpt lat="46.49085" lon="5.34854">
        <ele>237.2</ele>
        <time>2022-08-16T14:19:23Z</time>
      </trkpt>
      <trkpt lat="46.49078" lon="5.34879">
        <ele>237.4</ele>
        <time>2022-08-16T14:19:26Z</time>
      </trkpt>
      <trkpt lat="46.49069" lon="5.34924">
        <ele>238</ele>
        <time>2022-08-16T14:19:31Z</time>
      </trkpt>
      <trkpt lat="46.49067" lon="5.34942">
        <ele>238.4</ele>
        <time>2022-08-16T14:19:33Z</time>
      </trkpt>
      <trkpt lat="46.49063" lon="5.3496">
        <ele>238.8</ele>
        <time>2022-08-16T14:19:35Z</time>
      </trkpt>
      <trkpt lat="46.49058" lon="5.34983">
        <ele>239.2</ele>
        <time>2022-08-16T14:19:38Z</time>
      </trkpt>
      <trkpt lat="46.49055" lon="5.35">
        <ele>239.6</ele>
        <time>2022-08-16T14:19:40Z</time>
      </trkpt>
      <trkpt lat="46.49052" lon="5.35006">
        <ele>239.8</ele>
        <time>2022-08-16T14:19:41Z</time>
      </trkpt>
      <trkpt lat="46.4905" lon="5.35014">
        <ele>240</ele>
        <time>2022-08-16T14:19:42Z</time>
      </trkpt>
      <trkpt lat="46.49047" lon="5.35029">
        <ele>240.4</ele>
        <time>2022-08-16T14:19:44Z</time>
      </trkpt>
      <trkpt lat="46.49047" lon="5.35036">
        <ele>240.4</ele>
        <time>2022-08-16T14:19:45Z</time>
      </trkpt>
      <trkpt lat="46.49047" lon="5.35045">
        <ele>240.6</ele>
        <time>2022-08-16T14:19:46Z</time>
      </trkpt>
      <trkpt lat="46.49046" lon="5.35053">
        <ele>241</ele>
        <time>2022-08-16T14:19:47Z</time>
      </trkpt>
      <trkpt lat="46.49044" lon="5.35076">
        <ele>241.4</ele>
        <time>2022-08-16T14:19:50Z</time>
      </trkpt>
      <trkpt lat="46.49035" lon="5.35105">
        <ele>242</ele>
        <time>2022-08-16T14:19:54Z</time>
      </trkpt>
      <trkpt lat="46.49031" lon="5.3512">
        <ele>242</ele>
        <time>2022-08-16T14:19:56Z</time>
      </trkpt>
      <trkpt lat="46.49023" lon="5.35143">
        <ele>242</ele>
        <time>2022-08-16T14:19:59Z</time>
      </trkpt>
      <trkpt lat="46.4901" lon="5.35172">
        <ele>242.2</ele>
        <time>2022-08-16T14:20:03Z</time>
      </trkpt>
      <trkpt lat="46.48988" lon="5.35223">
        <ele>242</ele>
        <time>2022-08-16T14:20:09Z</time>
      </trkpt>
      <trkpt lat="46.48959" lon="5.35285">
        <ele>241.2</ele>
        <time>2022-08-16T14:20:16Z</time>
      </trkpt>
      <trkpt lat="46.48948" lon="5.35312">
        <ele>240.6</ele>
        <time>2022-08-16T14:20:19Z</time>
      </trkpt>
      <trkpt lat="46.48917" lon="5.35383">
        <ele>240</ele>
        <time>2022-08-16T14:20:27Z</time>
      </trkpt>
      <trkpt lat="46.48888" lon="5.35448">
        <ele>240.4</ele>
        <time>2022-08-16T14:20:35Z</time>
      </trkpt>
      <trkpt lat="46.4886" lon="5.35511">
        <ele>241.2</ele>
        <time>2022-08-16T14:20:43Z</time>
      </trkpt>
      <trkpt lat="46.48833" lon="5.35573">
        <ele>241.6</ele>
        <time>2022-08-16T14:20:51Z</time>
      </trkpt>
      <trkpt lat="46.4883" lon="5.35581">
        <ele>241.8</ele>
        <time>2022-08-16T14:20:52Z</time>
      </trkpt>
      <trkpt lat="46.48814" lon="5.35615">
        <ele>241.8</ele>
        <time>2022-08-16T14:20:56Z</time>
      </trkpt>
      <trkpt lat="46.48791" lon="5.35666">
        <ele>241.6</ele>
        <time>2022-08-16T14:21:02Z</time>
      </trkpt>
      <trkpt lat="46.48763" lon="5.35733">
        <ele>241.8</ele>
        <time>2022-08-16T14:21:10Z</time>
      </trkpt>
      <trkpt lat="46.48734" lon="5.35799">
        <ele>241.8</ele>
        <time>2022-08-16T14:21:18Z</time>
      </trkpt>
      <trkpt lat="46.48714" lon="5.35846">
        <ele>241.6</ele>
        <time>2022-08-16T14:21:24Z</time>
      </trkpt>
      <trkpt lat="46.48701" lon="5.35876">
        <ele>241.8</ele>
        <time>2022-08-16T14:21:28Z</time>
      </trkpt>
      <trkpt lat="46.48696" lon="5.35891">
        <ele>242</ele>
        <time>2022-08-16T14:21:30Z</time>
      </trkpt>
      <trkpt lat="46.48686" lon="5.35922">
        <ele>243</ele>
        <time>2022-08-16T14:21:34Z</time>
      </trkpt>
      <trkpt lat="46.48684" lon="5.3593">
        <ele>243</ele>
        <time>2022-08-16T14:21:35Z</time>
      </trkpt>
      <trkpt lat="46.48677" lon="5.35985">
        <ele>243.8</ele>
        <time>2022-08-16T14:21:41Z</time>
      </trkpt>
      <trkpt lat="46.48675" lon="5.36001">
        <ele>243.8</ele>
        <time>2022-08-16T14:21:43Z</time>
      </trkpt>
      <trkpt lat="46.48666" lon="5.36049">
        <ele>244.2</ele>
        <time>2022-08-16T14:21:48Z</time>
      </trkpt>
      <trkpt lat="46.48651" lon="5.36118">
        <ele>243.2</ele>
        <time>2022-08-16T14:21:54Z</time>
      </trkpt>
      <trkpt lat="46.48646" lon="5.36141">
        <ele>242.6</ele>
        <time>2022-08-16T14:21:56Z</time>
      </trkpt>
      <trkpt lat="46.48642" lon="5.36185">
        <ele>242</ele>
        <time>2022-08-16T14:22:00Z</time>
      </trkpt>
      <trkpt lat="46.48634" lon="5.36267">
        <ele>242.2</ele>
        <time>2022-08-16T14:22:08Z</time>
      </trkpt>
      <trkpt lat="46.48629" lon="5.36294">
        <ele>242.6</ele>
        <time>2022-08-16T14:22:11Z</time>
      </trkpt>
      <trkpt lat="46.48623" lon="5.36308">
        <ele>243</ele>
        <time>2022-08-16T14:22:13Z</time>
      </trkpt>
      <trkpt lat="46.48615" lon="5.36318">
        <ele>243.4</ele>
        <time>2022-08-16T14:22:15Z</time>
      </trkpt>
      <trkpt lat="46.48605" lon="5.36322">
        <ele>243.8</ele>
        <time>2022-08-16T14:22:17Z</time>
      </trkpt>
      <trkpt lat="46.4858" lon="5.36324">
        <ele>245</ele>
        <time>2022-08-16T14:22:22Z</time>
      </trkpt>
      <trkpt lat="46.4857" lon="5.36326">
        <ele>245.4</ele>
        <time>2022-08-16T14:22:24Z</time>
      </trkpt>
      <trkpt lat="46.48551" lon="5.36329">
        <ele>246</ele>
        <time>2022-08-16T14:22:28Z</time>
      </trkpt>
      <trkpt lat="46.48533" lon="5.36332">
        <ele>247.2</ele>
        <time>2022-08-16T14:22:32Z</time>
      </trkpt>
      <trkpt lat="46.48503" lon="5.36337">
        <ele>248.2</ele>
        <time>2022-08-16T14:22:38Z</time>
      </trkpt>
      <trkpt lat="46.48483" lon="5.36341">
        <ele>248.4</ele>
        <time>2022-08-16T14:22:42Z</time>
      </trkpt>
      <trkpt lat="46.48439" lon="5.36348">
        <ele>248.8</ele>
        <time>2022-08-16T14:22:50Z</time>
      </trkpt>
      <trkpt lat="46.48406" lon="5.36363">
        <ele>249</ele>
        <time>2022-08-16T14:22:56Z</time>
      </trkpt>
      <trkpt lat="46.48387" lon="5.36381">
        <ele>249.2</ele>
        <time>2022-08-16T14:23:00Z</time>
      </trkpt>
      <trkpt lat="46.48377" lon="5.36391">
        <ele>249.4</ele>
        <time>2022-08-16T14:23:02Z</time>
      </trkpt>
      <trkpt lat="46.4835" lon="5.36421">
        <ele>250</ele>
        <time>2022-08-16T14:23:08Z</time>
      </trkpt>
      <trkpt lat="46.48341" lon="5.36431">
        <ele>250.2</ele>
        <time>2022-08-16T14:23:10Z</time>
      </trkpt>
      <trkpt lat="46.48337" lon="5.36436">
        <ele>250.4</ele>
        <time>2022-08-16T14:23:11Z</time>
      </trkpt>
      <trkpt lat="46.48308" lon="5.36467">
        <ele>251.4</ele>
        <time>2022-08-16T14:23:18Z</time>
      </trkpt>
      <trkpt lat="46.483" lon="5.36476">
        <ele>251.6</ele>
        <time>2022-08-16T14:23:20Z</time>
      </trkpt>
      <trkpt lat="46.48276" lon="5.36502">
        <ele>252.4</ele>
        <time>2022-08-16T14:23:26Z</time>
      </trkpt>
      <trkpt lat="46.4826" lon="5.3652">
        <ele>253.2</ele>
        <time>2022-08-16T14:23:30Z</time>
      </trkpt>
      <trkpt lat="46.48256" lon="5.36524">
        <ele>253.4</ele>
        <time>2022-08-16T14:23:31Z</time>
      </trkpt>
      <trkpt lat="46.48228" lon="5.36553">
        <ele>254.4</ele>
        <time>2022-08-16T14:23:38Z</time>
      </trkpt>
      <trkpt lat="46.48224" lon="5.36557">
        <ele>254.6</ele>
        <time>2022-08-16T14:23:39Z</time>
      </trkpt>
      <trkpt lat="46.48219" lon="5.36558">
        <ele>254.6</ele>
        <time>2022-08-16T14:23:40Z</time>
      </trkpt>
      <trkpt lat="46.48214" lon="5.36559">
        <ele>254.6</ele>
        <time>2022-08-16T14:23:41Z</time>
      </trkpt>
      <trkpt lat="46.48203" lon="5.36559">
        <ele>254.8</ele>
        <time>2022-08-16T14:23:43Z</time>
      </trkpt>
      <trkpt lat="46.482" lon="5.36561">
        <ele>255</ele>
        <time>2022-08-16T14:23:44Z</time>
      </trkpt>
      <trkpt lat="46.48195" lon="5.36566">
        <ele>255</ele>
        <time>2022-08-16T14:23:45Z</time>
      </trkpt>
      <trkpt lat="46.48189" lon="5.36577">
        <ele>255.2</ele>
        <time>2022-08-16T14:23:47Z</time>
      </trkpt>
      <trkpt lat="46.48182" lon="5.36598">
        <ele>255.4</ele>
        <time>2022-08-16T14:23:50Z</time>
      </trkpt>
      <trkpt lat="46.48179" lon="5.36604">
        <ele>255.4</ele>
        <time>2022-08-16T14:23:51Z</time>
      </trkpt>
      <trkpt lat="46.48171" lon="5.36615">
        <ele>255.6</ele>
        <time>2022-08-16T14:23:53Z</time>
      </trkpt>
      <trkpt lat="46.48159" lon="5.36628">
        <ele>255.8</ele>
        <time>2022-08-16T14:23:56Z</time>
      </trkpt>
      <trkpt lat="46.48149" lon="5.36635">
        <ele>256</ele>
        <time>2022-08-16T14:23:58Z</time>
      </trkpt>
      <trkpt lat="46.48124" lon="5.36667">
        <ele>256.4</ele>
        <time>2022-08-16T14:24:04Z</time>
      </trkpt>
      <trkpt lat="46.48119" lon="5.36675">
        <ele>256.6</ele>
        <time>2022-08-16T14:24:06Z</time>
      </trkpt>
      <trkpt lat="46.4811" lon="5.36683">
        <ele>257</ele>
        <time>2022-08-16T14:24:08Z</time>
      </trkpt>
      <trkpt lat="46.48104" lon="5.36694">
        <ele>257.2</ele>
        <time>2022-08-16T14:24:10Z</time>
      </trkpt>
      <trkpt lat="46.48104" lon="5.36701">
        <ele>257.4</ele>
        <time>2022-08-16T14:24:11Z</time>
      </trkpt>
      <trkpt lat="46.48106" lon="5.36707">
        <ele>257.4</ele>
        <time>2022-08-16T14:24:12Z</time>
      </trkpt>
      <trkpt lat="46.48114" lon="5.36714">
        <ele>257.8</ele>
        <time>2022-08-16T14:24:14Z</time>
      </trkpt>
      <trkpt lat="46.48125" lon="5.36724">
        <ele>258.8</ele>
        <time>2022-08-16T14:24:17Z</time>
      </trkpt>
      <trkpt lat="46.48151" lon="5.36745">
        <ele>259.8</ele>
        <time>2022-08-16T14:24:24Z</time>
      </trkpt>
      <trkpt lat="46.48154" lon="5.36748">
        <ele>260</ele>
        <time>2022-08-16T14:24:25Z</time>
      </trkpt>
      <trkpt lat="46.48171" lon="5.36762">
        <ele>261.2</ele>
        <time>2022-08-16T14:24:30Z</time>
      </trkpt>
      <trkpt lat="46.48181" lon="5.3677">
        <ele>261.4</ele>
        <time>2022-08-16T14:24:33Z</time>
      </trkpt>
      <trkpt lat="46.48198" lon="5.36783">
        <ele>262.4</ele>
        <time>2022-08-16T14:24:38Z</time>
      </trkpt>
      <trkpt lat="46.48217" lon="5.36798">
        <ele>263.4</ele>
        <time>2022-08-16T14:24:44Z</time>
      </trkpt>
      <trkpt lat="46.48221" lon="5.36801">
        <ele>263.8</ele>
        <time>2022-08-16T14:24:45Z</time>
      </trkpt>
      <trkpt lat="46.48233" lon="5.36811">
        <ele>264.6</ele>
        <time>2022-08-16T14:24:49Z</time>
      </trkpt>
      <trkpt lat="46.48249" lon="5.36825">
        <ele>265.6</ele>
        <time>2022-08-16T14:24:54Z</time>
      </trkpt>
    </trkseg>
  </trk>
</gpx>